<?xml version="1.0" encoding="UTF-8" standalone="no" ?>
<gpx xmlns="http://www.topografix.com/GPX/1/1" xmlns:xsi="http://www.w3.org/2001/XMLSchema-instance" xsi:schemaLocation="http://www.topografix.com/GPX/1/1 http://www.topografix.com/GPX/1/1/gpx.xsd" version="1.1" creator="VisuGPX - https://www.visugpx.com">
  <metadata>
    <name>Echec au pas de Peyrole</name>
    <desc><![CDATA[A la sortie de Die en venant de Crest, contourner le rond point pour revenir sur le centre de Die. Prendre la D742. Après le pont de la Roche tourner à droit passer au Liotards, et continuer jusqu'au gué déssembleur ou l'on se gare ( peu de place).
Au départ nôtre intention était de passer le pas de Peyrole, puis en aller retour la vire du rocher des Heures, et retour par le col des Bachassons. Malheureusement la chute de neige de la veille en décidera autrement. Après une tentative jusqu'à 1350m en direction du pas de Peyrole, demi tour pour le col des Bachassons.]]></desc>
  </metadata>
  <trk>
    <name><![CDATA[2018-11-18 16:37:56]]></name>
    <trkseg>
      <trkpt lat="44.77429" lon="5.42092">
        <ele>576.45</ele>
        <time>2018-11-18T06:50:41Z</time>
      </trkpt>
      <trkpt lat="44.77429" lon="5.42092">
        <ele>576.45</ele>
        <time>2018-11-18T06:50:42Z</time>
      </trkpt>
      <trkpt lat="44.77429" lon="5.42092">
        <ele>538.96</ele>
        <time>2018-11-18T06:50:45Z</time>
      </trkpt>
      <trkpt lat="44.77429" lon="5.42092">
        <ele>538.96</ele>
        <time>2018-11-18T06:50:46Z</time>
      </trkpt>
      <trkpt lat="44.7743" lon="5.42094">
        <ele>538.96</ele>
        <time>2018-11-18T06:51:13Z</time>
      </trkpt>
      <trkpt lat="44.7743" lon="5.42093">
        <ele>539.92</ele>
        <time>2018-11-18T06:51:46Z</time>
      </trkpt>
      <trkpt lat="44.7743" lon="5.42093">
        <ele>538.48</ele>
        <time>2018-11-18T06:52:13Z</time>
      </trkpt>
      <trkpt lat="44.77434" lon="5.42091">
        <ele>538.48</ele>
        <time>2018-11-18T06:52:41Z</time>
      </trkpt>
      <trkpt lat="44.77432" lon="5.42092">
        <ele>538.48</ele>
        <time>2018-11-18T06:53:06Z</time>
      </trkpt>
      <trkpt lat="44.77433" lon="5.42093">
        <ele>538.48</ele>
        <time>2018-11-18T06:53:25Z</time>
      </trkpt>
      <trkpt lat="44.77433" lon="5.4209">
        <ele>538.48</ele>
        <time>2018-11-18T06:53:47Z</time>
      </trkpt>
      <trkpt lat="44.77427" lon="5.42079">
        <ele>537.99</ele>
        <time>2018-11-18T06:54:03Z</time>
      </trkpt>
      <trkpt lat="44.77424" lon="5.42071">
        <ele>537.03</ele>
        <time>2018-11-18T06:54:10Z</time>
      </trkpt>
      <trkpt lat="44.77411" lon="5.42038">
        <ele>534.63</ele>
        <time>2018-11-18T06:54:32Z</time>
      </trkpt>
      <trkpt lat="44.77396" lon="5.42013">
        <ele>533.67</ele>
        <time>2018-11-18T06:54:50Z</time>
      </trkpt>
      <trkpt lat="44.77387" lon="5.42002">
        <ele>533.19</ele>
        <time>2018-11-18T06:54:59Z</time>
      </trkpt>
      <trkpt lat="44.77377" lon="5.4199">
        <ele>533.67</ele>
        <time>2018-11-18T06:55:09Z</time>
      </trkpt>
      <trkpt lat="44.77364" lon="5.41976">
        <ele>532.23</ele>
        <time>2018-11-18T06:55:22Z</time>
      </trkpt>
      <trkpt lat="44.77347" lon="5.41961">
        <ele>530.79</ele>
        <time>2018-11-18T06:55:39Z</time>
      </trkpt>
      <trkpt lat="44.77337" lon="5.41966">
        <ele>530.3</ele>
        <time>2018-11-18T06:55:53Z</time>
      </trkpt>
      <trkpt lat="44.77335" lon="5.4197">
        <ele>530.3</ele>
        <time>2018-11-18T06:56:00Z</time>
      </trkpt>
      <trkpt lat="44.7733" lon="5.41975">
        <ele>531.75</ele>
        <time>2018-11-18T06:56:07Z</time>
      </trkpt>
      <trkpt lat="44.77317" lon="5.41985">
        <ele>533.19</ele>
        <time>2018-11-18T06:56:20Z</time>
      </trkpt>
      <trkpt lat="44.77313" lon="5.41988">
        <ele>533.19</ele>
        <time>2018-11-18T06:56:24Z</time>
      </trkpt>
      <trkpt lat="44.77302" lon="5.42013">
        <ele>534.63</ele>
        <time>2018-11-18T06:56:41Z</time>
      </trkpt>
      <trkpt lat="44.77292" lon="5.42017">
        <ele>537.03</ele>
        <time>2018-11-18T06:56:54Z</time>
      </trkpt>
      <trkpt lat="44.77287" lon="5.42017">
        <ele>537.51</ele>
        <time>2018-11-18T06:56:59Z</time>
      </trkpt>
      <trkpt lat="44.77274" lon="5.42017">
        <ele>538.96</ele>
        <time>2018-11-18T06:57:13Z</time>
      </trkpt>
      <trkpt lat="44.7726" lon="5.42027">
        <ele>540.88</ele>
        <time>2018-11-18T06:57:26Z</time>
      </trkpt>
      <trkpt lat="44.77247" lon="5.42041">
        <ele>542.32</ele>
        <time>2018-11-18T06:57:40Z</time>
      </trkpt>
      <trkpt lat="44.77242" lon="5.42043">
        <ele>542.32</ele>
        <time>2018-11-18T06:57:45Z</time>
      </trkpt>
      <trkpt lat="44.77232" lon="5.42052">
        <ele>543.28</ele>
        <time>2018-11-18T06:57:56Z</time>
      </trkpt>
      <trkpt lat="44.7722" lon="5.42065">
        <ele>543.28</ele>
        <time>2018-11-18T06:58:11Z</time>
      </trkpt>
      <trkpt lat="44.77218" lon="5.42067">
        <ele>543.28</ele>
        <time>2018-11-18T06:58:13Z</time>
      </trkpt>
      <trkpt lat="44.77215" lon="5.42068">
        <ele>543.28</ele>
        <time>2018-11-18T06:58:16Z</time>
      </trkpt>
      <trkpt lat="44.77204" lon="5.42081">
        <ele>544.24</ele>
        <time>2018-11-18T06:58:31Z</time>
      </trkpt>
      <trkpt lat="44.77193" lon="5.42107">
        <ele>545.69</ele>
        <time>2018-11-18T06:58:49Z</time>
      </trkpt>
      <trkpt lat="44.77179" lon="5.42118">
        <ele>546.65</ele>
        <time>2018-11-18T06:59:06Z</time>
      </trkpt>
      <trkpt lat="44.77169" lon="5.4212">
        <ele>547.61</ele>
        <time>2018-11-18T06:59:21Z</time>
      </trkpt>
      <trkpt lat="44.77157" lon="5.42129">
        <ele>548.57</ele>
        <time>2018-11-18T06:59:38Z</time>
      </trkpt>
      <trkpt lat="44.77151" lon="5.42131">
        <ele>549.05</ele>
        <time>2018-11-18T06:59:45Z</time>
      </trkpt>
      <trkpt lat="44.77139" lon="5.42137">
        <ele>550.01</ele>
        <time>2018-11-18T06:59:59Z</time>
      </trkpt>
      <trkpt lat="44.77134" lon="5.42139">
        <ele>550.01</ele>
        <time>2018-11-18T07:00:06Z</time>
      </trkpt>
      <trkpt lat="44.77113" lon="5.42145">
        <ele>550.97</ele>
        <time>2018-11-18T07:00:22Z</time>
      </trkpt>
      <trkpt lat="44.77101" lon="5.42153">
        <ele>551.93</ele>
        <time>2018-11-18T07:00:37Z</time>
      </trkpt>
      <trkpt lat="44.7709" lon="5.42162">
        <ele>552.41</ele>
        <time>2018-11-18T07:00:53Z</time>
      </trkpt>
      <trkpt lat="44.77077" lon="5.42178">
        <ele>553.38</ele>
        <time>2018-11-18T07:01:11Z</time>
      </trkpt>
      <trkpt lat="44.77077" lon="5.4218">
        <ele>553.86</ele>
        <time>2018-11-18T07:01:15Z</time>
      </trkpt>
      <trkpt lat="44.77059" lon="5.42186">
        <ele>554.34</ele>
        <time>2018-11-18T07:01:30Z</time>
      </trkpt>
      <trkpt lat="44.77045" lon="5.42188">
        <ele>555.3</ele>
        <time>2018-11-18T07:01:45Z</time>
      </trkpt>
      <trkpt lat="44.77032" lon="5.4219">
        <ele>556.26</ele>
        <time>2018-11-18T07:02:02Z</time>
      </trkpt>
      <trkpt lat="44.77019" lon="5.4219">
        <ele>557.22</ele>
        <time>2018-11-18T07:02:17Z</time>
      </trkpt>
      <trkpt lat="44.7701" lon="5.42192">
        <ele>557.7</ele>
        <time>2018-11-18T07:02:28Z</time>
      </trkpt>
      <trkpt lat="44.76993" lon="5.42201">
        <ele>560.59</ele>
        <time>2018-11-18T07:02:44Z</time>
      </trkpt>
      <trkpt lat="44.76985" lon="5.42209">
        <ele>563.47</ele>
        <time>2018-11-18T07:02:56Z</time>
      </trkpt>
      <trkpt lat="44.76979" lon="5.42212">
        <ele>563.95</ele>
        <time>2018-11-18T07:03:03Z</time>
      </trkpt>
      <trkpt lat="44.76964" lon="5.42215">
        <ele>565.39</ele>
        <time>2018-11-18T07:03:20Z</time>
      </trkpt>
      <trkpt lat="44.76941" lon="5.42217">
        <ele>567.32</ele>
        <time>2018-11-18T07:03:39Z</time>
      </trkpt>
      <trkpt lat="44.76923" lon="5.42217">
        <ele>568.76</ele>
        <time>2018-11-18T07:03:55Z</time>
      </trkpt>
      <trkpt lat="44.76903" lon="5.42209">
        <ele>570.68</ele>
        <time>2018-11-18T07:04:14Z</time>
      </trkpt>
      <trkpt lat="44.76885" lon="5.42206">
        <ele>572.12</ele>
        <time>2018-11-18T07:04:32Z</time>
      </trkpt>
      <trkpt lat="44.76866" lon="5.42212">
        <ele>573.56</ele>
        <time>2018-11-18T07:04:50Z</time>
      </trkpt>
      <trkpt lat="44.76864" lon="5.42212">
        <ele>575.01</ele>
        <time>2018-11-18T07:04:52Z</time>
      </trkpt>
      <trkpt lat="44.76849" lon="5.42219">
        <ele>575.49</ele>
        <time>2018-11-18T07:05:07Z</time>
      </trkpt>
      <trkpt lat="44.76841" lon="5.42224">
        <ele>576.93</ele>
        <time>2018-11-18T07:05:16Z</time>
      </trkpt>
      <trkpt lat="44.76829" lon="5.42234">
        <ele>578.37</ele>
        <time>2018-11-18T07:05:29Z</time>
      </trkpt>
      <trkpt lat="44.7681" lon="5.42235">
        <ele>580.29</ele>
        <time>2018-11-18T07:05:45Z</time>
      </trkpt>
      <trkpt lat="44.76788" lon="5.42232">
        <ele>582.22</ele>
        <time>2018-11-18T07:06:04Z</time>
      </trkpt>
      <trkpt lat="44.76772" lon="5.42235">
        <ele>583.18</ele>
        <time>2018-11-18T07:06:18Z</time>
      </trkpt>
      <trkpt lat="44.76751" lon="5.42246">
        <ele>584.62</ele>
        <time>2018-11-18T07:06:37Z</time>
      </trkpt>
      <trkpt lat="44.76734" lon="5.42255">
        <ele>586.06</ele>
        <time>2018-11-18T07:06:52Z</time>
      </trkpt>
      <trkpt lat="44.76715" lon="5.42265">
        <ele>587.5</ele>
        <time>2018-11-18T07:07:10Z</time>
      </trkpt>
      <trkpt lat="44.767" lon="5.42281">
        <ele>589.91</ele>
        <time>2018-11-18T07:07:27Z</time>
      </trkpt>
      <trkpt lat="44.76699" lon="5.42285">
        <ele>590.39</ele>
        <time>2018-11-18T07:07:30Z</time>
      </trkpt>
      <trkpt lat="44.76696" lon="5.42293">
        <ele>590.39</ele>
        <time>2018-11-18T07:07:35Z</time>
      </trkpt>
      <trkpt lat="44.76695" lon="5.42297">
        <ele>590.39</ele>
        <time>2018-11-18T07:07:38Z</time>
      </trkpt>
      <trkpt lat="44.76692" lon="5.423">
        <ele>590.39</ele>
        <time>2018-11-18T07:07:41Z</time>
      </trkpt>
      <trkpt lat="44.76682" lon="5.42319">
        <ele>591.83</ele>
        <time>2018-11-18T07:07:57Z</time>
      </trkpt>
      <trkpt lat="44.76672" lon="5.42342">
        <ele>593.75</ele>
        <time>2018-11-18T07:08:15Z</time>
      </trkpt>
      <trkpt lat="44.76668" lon="5.42352">
        <ele>594.23</ele>
        <time>2018-11-18T07:08:24Z</time>
      </trkpt>
      <trkpt lat="44.76659" lon="5.42369">
        <ele>596.15</ele>
        <time>2018-11-18T07:08:40Z</time>
      </trkpt>
      <trkpt lat="44.76651" lon="5.42385">
        <ele>598.56</ele>
        <time>2018-11-18T07:08:56Z</time>
      </trkpt>
      <trkpt lat="44.7665" lon="5.42387">
        <ele>598.56</ele>
        <time>2018-11-18T07:08:58Z</time>
      </trkpt>
      <trkpt lat="44.76647" lon="5.42394">
        <ele>599.52</ele>
        <time>2018-11-18T07:09:04Z</time>
      </trkpt>
      <trkpt lat="44.76635" lon="5.42411">
        <ele>601.44</ele>
        <time>2018-11-18T07:09:20Z</time>
      </trkpt>
      <trkpt lat="44.76633" lon="5.42415">
        <ele>601.44</ele>
        <time>2018-11-18T07:09:23Z</time>
      </trkpt>
      <trkpt lat="44.76632" lon="5.42417">
        <ele>601.44</ele>
        <time>2018-11-18T07:09:25Z</time>
      </trkpt>
      <trkpt lat="44.76624" lon="5.42431">
        <ele>603.85</ele>
        <time>2018-11-18T07:09:38Z</time>
      </trkpt>
      <trkpt lat="44.76622" lon="5.42435">
        <ele>604.33</ele>
        <time>2018-11-18T07:09:41Z</time>
      </trkpt>
      <trkpt lat="44.76621" lon="5.4244">
        <ele>604.81</ele>
        <time>2018-11-18T07:09:45Z</time>
      </trkpt>
      <trkpt lat="44.76616" lon="5.4246">
        <ele>605.77</ele>
        <time>2018-11-18T07:09:58Z</time>
      </trkpt>
      <trkpt lat="44.76613" lon="5.42466">
        <ele>606.25</ele>
        <time>2018-11-18T07:10:02Z</time>
      </trkpt>
      <trkpt lat="44.76604" lon="5.42486">
        <ele>608.17</ele>
        <time>2018-11-18T07:10:17Z</time>
      </trkpt>
      <trkpt lat="44.76598" lon="5.42495">
        <ele>608.65</ele>
        <time>2018-11-18T07:10:28Z</time>
      </trkpt>
      <trkpt lat="44.76584" lon="5.42509">
        <ele>610.57</ele>
        <time>2018-11-18T07:10:43Z</time>
      </trkpt>
      <trkpt lat="44.76574" lon="5.42515">
        <ele>612.02</ele>
        <time>2018-11-18T07:10:54Z</time>
      </trkpt>
      <trkpt lat="44.76571" lon="5.42515">
        <ele>612.02</ele>
        <time>2018-11-18T07:10:57Z</time>
      </trkpt>
      <trkpt lat="44.76557" lon="5.42525">
        <ele>614.9</ele>
        <time>2018-11-18T07:11:15Z</time>
      </trkpt>
      <trkpt lat="44.76554" lon="5.42528">
        <ele>615.38</ele>
        <time>2018-11-18T07:11:19Z</time>
      </trkpt>
      <trkpt lat="44.76544" lon="5.42542">
        <ele>617.3</ele>
        <time>2018-11-18T07:11:32Z</time>
      </trkpt>
      <trkpt lat="44.76532" lon="5.42553">
        <ele>619.23</ele>
        <time>2018-11-18T07:11:45Z</time>
      </trkpt>
      <trkpt lat="44.76529" lon="5.42555">
        <ele>619.71</ele>
        <time>2018-11-18T07:11:49Z</time>
      </trkpt>
      <trkpt lat="44.76524" lon="5.42584">
        <ele>621.63</ele>
        <time>2018-11-18T07:12:06Z</time>
      </trkpt>
      <trkpt lat="44.76524" lon="5.42585">
        <ele>622.11</ele>
        <time>2018-11-18T07:12:07Z</time>
      </trkpt>
      <trkpt lat="44.76522" lon="5.42609">
        <ele>624.99</ele>
        <time>2018-11-18T07:12:23Z</time>
      </trkpt>
      <trkpt lat="44.7652" lon="5.42615">
        <ele>625.47</ele>
        <time>2018-11-18T07:12:28Z</time>
      </trkpt>
      <trkpt lat="44.76508" lon="5.42638">
        <ele>627.88</ele>
        <time>2018-11-18T07:12:45Z</time>
      </trkpt>
      <trkpt lat="44.76498" lon="5.42653">
        <ele>629.8</ele>
        <time>2018-11-18T07:12:59Z</time>
      </trkpt>
      <trkpt lat="44.76493" lon="5.42667">
        <ele>632.2</ele>
        <time>2018-11-18T07:13:14Z</time>
      </trkpt>
      <trkpt lat="44.76493" lon="5.4267">
        <ele>631.72</ele>
        <time>2018-11-18T07:13:40Z</time>
      </trkpt>
      <trkpt lat="44.76489" lon="5.42682">
        <ele>633.17</ele>
        <time>2018-11-18T07:14:01Z</time>
      </trkpt>
      <trkpt lat="44.76484" lon="5.42699">
        <ele>636.05</ele>
        <time>2018-11-18T07:14:21Z</time>
      </trkpt>
      <trkpt lat="44.76484" lon="5.42706">
        <ele>637.01</ele>
        <time>2018-11-18T07:14:30Z</time>
      </trkpt>
      <trkpt lat="44.76481" lon="5.42716">
        <ele>637.49</ele>
        <time>2018-11-18T07:14:38Z</time>
      </trkpt>
      <trkpt lat="44.76479" lon="5.4273">
        <ele>638.93</ele>
        <time>2018-11-18T07:14:48Z</time>
      </trkpt>
      <trkpt lat="44.76478" lon="5.42757">
        <ele>641.34</ele>
        <time>2018-11-18T07:15:06Z</time>
      </trkpt>
      <trkpt lat="44.76479" lon="5.4278">
        <ele>643.74</ele>
        <time>2018-11-18T07:15:21Z</time>
      </trkpt>
      <trkpt lat="44.76478" lon="5.42784">
        <ele>643.74</ele>
        <time>2018-11-18T07:15:24Z</time>
      </trkpt>
      <trkpt lat="44.76478" lon="5.42806">
        <ele>644.7</ele>
        <time>2018-11-18T07:15:39Z</time>
      </trkpt>
      <trkpt lat="44.76478" lon="5.42812">
        <ele>645.18</ele>
        <time>2018-11-18T07:15:43Z</time>
      </trkpt>
      <trkpt lat="44.76478" lon="5.4282">
        <ele>645.66</ele>
        <time>2018-11-18T07:15:48Z</time>
      </trkpt>
      <trkpt lat="44.76477" lon="5.42828">
        <ele>645.66</ele>
        <time>2018-11-18T07:15:53Z</time>
      </trkpt>
      <trkpt lat="44.76478" lon="5.42851">
        <ele>646.62</ele>
        <time>2018-11-18T07:16:09Z</time>
      </trkpt>
      <trkpt lat="44.76478" lon="5.42859">
        <ele>648.07</ele>
        <time>2018-11-18T07:16:16Z</time>
      </trkpt>
      <trkpt lat="44.7648" lon="5.42874">
        <ele>649.51</ele>
        <time>2018-11-18T07:16:29Z</time>
      </trkpt>
      <trkpt lat="44.7648" lon="5.42876">
        <ele>649.51</ele>
        <time>2018-11-18T07:16:31Z</time>
      </trkpt>
      <trkpt lat="44.76479" lon="5.42879">
        <ele>650.47</ele>
        <time>2018-11-18T07:16:33Z</time>
      </trkpt>
      <trkpt lat="44.76481" lon="5.42887">
        <ele>650.95</ele>
        <time>2018-11-18T07:16:40Z</time>
      </trkpt>
      <trkpt lat="44.76487" lon="5.42911">
        <ele>652.87</ele>
        <time>2018-11-18T07:16:56Z</time>
      </trkpt>
      <trkpt lat="44.76484" lon="5.42919">
        <ele>654.31</ele>
        <time>2018-11-18T07:17:12Z</time>
      </trkpt>
      <trkpt lat="44.76485" lon="5.42923">
        <ele>654.31</ele>
        <time>2018-11-18T07:17:20Z</time>
      </trkpt>
      <trkpt lat="44.76487" lon="5.4294">
        <ele>655.76</ele>
        <time>2018-11-18T07:17:33Z</time>
      </trkpt>
      <trkpt lat="44.76487" lon="5.42957">
        <ele>658.64</ele>
        <time>2018-11-18T07:17:47Z</time>
      </trkpt>
      <trkpt lat="44.76488" lon="5.42976">
        <ele>660.56</ele>
        <time>2018-11-18T07:18:02Z</time>
      </trkpt>
      <trkpt lat="44.76485" lon="5.42989">
        <ele>662.01</ele>
        <time>2018-11-18T07:18:14Z</time>
      </trkpt>
      <trkpt lat="44.76486" lon="5.42991">
        <ele>662.01</ele>
        <time>2018-11-18T07:18:16Z</time>
      </trkpt>
      <trkpt lat="44.76486" lon="5.42994">
        <ele>662.49</ele>
        <time>2018-11-18T07:18:18Z</time>
      </trkpt>
      <trkpt lat="44.76487" lon="5.43011">
        <ele>664.89</ele>
        <time>2018-11-18T07:18:32Z</time>
      </trkpt>
      <trkpt lat="44.76489" lon="5.43029">
        <ele>666.81</ele>
        <time>2018-11-18T07:18:48Z</time>
      </trkpt>
      <trkpt lat="44.76488" lon="5.43049">
        <ele>669.22</ele>
        <time>2018-11-18T07:19:04Z</time>
      </trkpt>
      <trkpt lat="44.76486" lon="5.43069">
        <ele>671.14</ele>
        <time>2018-11-18T07:19:21Z</time>
      </trkpt>
      <trkpt lat="44.76489" lon="5.43086">
        <ele>673.54</ele>
        <time>2018-11-18T07:19:36Z</time>
      </trkpt>
      <trkpt lat="44.76487" lon="5.43102">
        <ele>675.46</ele>
        <time>2018-11-18T07:19:51Z</time>
      </trkpt>
      <trkpt lat="44.76486" lon="5.43116">
        <ele>676.91</ele>
        <time>2018-11-18T07:20:07Z</time>
      </trkpt>
      <trkpt lat="44.76486" lon="5.43138">
        <ele>678.83</ele>
        <time>2018-11-18T07:20:25Z</time>
      </trkpt>
      <trkpt lat="44.7648" lon="5.43155">
        <ele>681.71</ele>
        <time>2018-11-18T07:20:42Z</time>
      </trkpt>
      <trkpt lat="44.76475" lon="5.43165">
        <ele>683.63</ele>
        <time>2018-11-18T07:21:00Z</time>
      </trkpt>
      <trkpt lat="44.7647" lon="5.4318">
        <ele>685.08</ele>
        <time>2018-11-18T07:21:15Z</time>
      </trkpt>
      <trkpt lat="44.76467" lon="5.43192">
        <ele>687.48</ele>
        <time>2018-11-18T07:21:31Z</time>
      </trkpt>
      <trkpt lat="44.76465" lon="5.43208">
        <ele>689.88</ele>
        <time>2018-11-18T07:21:44Z</time>
      </trkpt>
      <trkpt lat="44.76466" lon="5.43227">
        <ele>692.77</ele>
        <time>2018-11-18T07:22:00Z</time>
      </trkpt>
      <trkpt lat="44.76474" lon="5.43241">
        <ele>695.17</ele>
        <time>2018-11-18T07:22:15Z</time>
      </trkpt>
      <trkpt lat="44.76483" lon="5.43262">
        <ele>697.57</ele>
        <time>2018-11-18T07:22:30Z</time>
      </trkpt>
      <trkpt lat="44.76484" lon="5.43267">
        <ele>698.05</ele>
        <time>2018-11-18T07:22:34Z</time>
      </trkpt>
      <trkpt lat="44.76487" lon="5.43291">
        <ele>700.94</ele>
        <time>2018-11-18T07:22:52Z</time>
      </trkpt>
      <trkpt lat="44.76489" lon="5.43309">
        <ele>702.86</ele>
        <time>2018-11-18T07:23:08Z</time>
      </trkpt>
      <trkpt lat="44.76494" lon="5.43323">
        <ele>705.26</ele>
        <time>2018-11-18T07:23:19Z</time>
      </trkpt>
      <trkpt lat="44.76495" lon="5.4334">
        <ele>706.71</ele>
        <time>2018-11-18T07:23:33Z</time>
      </trkpt>
      <trkpt lat="44.76489" lon="5.43354">
        <ele>709.11</ele>
        <time>2018-11-18T07:23:48Z</time>
      </trkpt>
      <trkpt lat="44.76479" lon="5.43371">
        <ele>711.99</ele>
        <time>2018-11-18T07:24:05Z</time>
      </trkpt>
      <trkpt lat="44.76474" lon="5.43386">
        <ele>713.92</ele>
        <time>2018-11-18T07:24:22Z</time>
      </trkpt>
      <trkpt lat="44.76478" lon="5.43397">
        <ele>717.28</ele>
        <time>2018-11-18T07:24:40Z</time>
      </trkpt>
      <trkpt lat="44.76479" lon="5.43404">
        <ele>719.68</ele>
        <time>2018-11-18T07:24:54Z</time>
      </trkpt>
      <trkpt lat="44.76483" lon="5.43409">
        <ele>720.65</ele>
        <time>2018-11-18T07:25:02Z</time>
      </trkpt>
      <trkpt lat="44.76495" lon="5.43425">
        <ele>721.61</ele>
        <time>2018-11-18T07:25:17Z</time>
      </trkpt>
      <trkpt lat="44.76498" lon="5.43441">
        <ele>724.49</ele>
        <time>2018-11-18T07:25:33Z</time>
      </trkpt>
      <trkpt lat="44.76504" lon="5.43459">
        <ele>726.89</ele>
        <time>2018-11-18T07:25:48Z</time>
      </trkpt>
      <trkpt lat="44.76511" lon="5.43482">
        <ele>728.82</ele>
        <time>2018-11-18T07:26:04Z</time>
      </trkpt>
      <trkpt lat="44.76514" lon="5.43497">
        <ele>731.22</ele>
        <time>2018-11-18T07:26:22Z</time>
      </trkpt>
      <trkpt lat="44.76517" lon="5.4351">
        <ele>733.62</ele>
        <time>2018-11-18T07:26:36Z</time>
      </trkpt>
      <trkpt lat="44.76523" lon="5.43525">
        <ele>736.03</ele>
        <time>2018-11-18T07:26:53Z</time>
      </trkpt>
      <trkpt lat="44.76526" lon="5.43537">
        <ele>737.95</ele>
        <time>2018-11-18T07:27:08Z</time>
      </trkpt>
      <trkpt lat="44.76528" lon="5.43551">
        <ele>741.79</ele>
        <time>2018-11-18T07:27:24Z</time>
      </trkpt>
      <trkpt lat="44.76532" lon="5.43566">
        <ele>745.16</ele>
        <time>2018-11-18T07:27:41Z</time>
      </trkpt>
      <trkpt lat="44.76533" lon="5.4358">
        <ele>748.04</ele>
        <time>2018-11-18T07:27:54Z</time>
      </trkpt>
      <trkpt lat="44.76533" lon="5.43597">
        <ele>751.41</ele>
        <time>2018-11-18T07:28:10Z</time>
      </trkpt>
      <trkpt lat="44.76529" lon="5.43603">
        <ele>752.85</ele>
        <time>2018-11-18T07:28:20Z</time>
      </trkpt>
      <trkpt lat="44.76515" lon="5.43627">
        <ele>755.73</ele>
        <time>2018-11-18T07:28:35Z</time>
      </trkpt>
      <trkpt lat="44.76513" lon="5.43633">
        <ele>759.1</ele>
        <time>2018-11-18T07:28:50Z</time>
      </trkpt>
      <trkpt lat="44.76512" lon="5.43653">
        <ele>761.5</ele>
        <time>2018-11-18T07:29:08Z</time>
      </trkpt>
      <trkpt lat="44.76506" lon="5.4366">
        <ele>761.98</ele>
        <time>2018-11-18T07:29:24Z</time>
      </trkpt>
      <trkpt lat="44.76505" lon="5.43666">
        <ele>762.94</ele>
        <time>2018-11-18T07:29:46Z</time>
      </trkpt>
      <trkpt lat="44.76501" lon="5.43657">
        <ele>763.42</ele>
        <time>2018-11-18T07:30:14Z</time>
      </trkpt>
      <trkpt lat="44.76501" lon="5.43662">
        <ele>763.42</ele>
        <time>2018-11-18T07:30:35Z</time>
      </trkpt>
      <trkpt lat="44.765" lon="5.43659">
        <ele>763.42</ele>
        <time>2018-11-18T07:30:48Z</time>
      </trkpt>
      <trkpt lat="44.76497" lon="5.43657">
        <ele>763.42</ele>
        <time>2018-11-18T07:31:04Z</time>
      </trkpt>
      <trkpt lat="44.76499" lon="5.43663">
        <ele>763.42</ele>
        <time>2018-11-18T07:31:26Z</time>
      </trkpt>
      <trkpt lat="44.76499" lon="5.43681">
        <ele>764.39</ele>
        <time>2018-11-18T07:31:47Z</time>
      </trkpt>
      <trkpt lat="44.7649" lon="5.4369">
        <ele>767.75</ele>
        <time>2018-11-18T07:32:01Z</time>
      </trkpt>
      <trkpt lat="44.76488" lon="5.437">
        <ele>770.15</ele>
        <time>2018-11-18T07:32:18Z</time>
      </trkpt>
      <trkpt lat="44.76481" lon="5.43708">
        <ele>773.52</ele>
        <time>2018-11-18T07:32:29Z</time>
      </trkpt>
      <trkpt lat="44.76483" lon="5.43735">
        <ele>776.88</ele>
        <time>2018-11-18T07:32:47Z</time>
      </trkpt>
      <trkpt lat="44.76477" lon="5.4375">
        <ele>778.81</ele>
        <time>2018-11-18T07:33:02Z</time>
      </trkpt>
      <trkpt lat="44.76466" lon="5.43765">
        <ele>781.21</ele>
        <time>2018-11-18T07:33:18Z</time>
      </trkpt>
      <trkpt lat="44.76468" lon="5.43756">
        <ele>782.65</ele>
        <time>2018-11-18T07:33:26Z</time>
      </trkpt>
      <trkpt lat="44.76468" lon="5.43742">
        <ele>785.05</ele>
        <time>2018-11-18T07:33:40Z</time>
      </trkpt>
      <trkpt lat="44.7646" lon="5.43753">
        <ele>787.94</ele>
        <time>2018-11-18T07:33:55Z</time>
      </trkpt>
      <trkpt lat="44.7645" lon="5.4377">
        <ele>790.34</ele>
        <time>2018-11-18T07:34:10Z</time>
      </trkpt>
      <trkpt lat="44.76443" lon="5.43776">
        <ele>792.74</ele>
        <time>2018-11-18T07:34:25Z</time>
      </trkpt>
      <trkpt lat="44.76443" lon="5.43776">
        <ele>792.74</ele>
        <time>2018-11-18T07:34:28Z</time>
      </trkpt>
      <trkpt lat="44.7645" lon="5.43756">
        <ele>794.67</ele>
        <time>2018-11-18T07:34:46Z</time>
      </trkpt>
      <trkpt lat="44.76451" lon="5.43749">
        <ele>796.59</ele>
        <time>2018-11-18T07:35:02Z</time>
      </trkpt>
      <trkpt lat="44.76447" lon="5.43737">
        <ele>799.95</ele>
        <time>2018-11-18T07:35:15Z</time>
      </trkpt>
      <trkpt lat="44.76444" lon="5.43729">
        <ele>802.84</ele>
        <time>2018-11-18T07:35:27Z</time>
      </trkpt>
      <trkpt lat="44.76439" lon="5.43717">
        <ele>806.2</ele>
        <time>2018-11-18T07:35:43Z</time>
      </trkpt>
      <trkpt lat="44.76436" lon="5.43704">
        <ele>809.57</ele>
        <time>2018-11-18T07:35:59Z</time>
      </trkpt>
      <trkpt lat="44.76433" lon="5.43698">
        <ele>811.49</ele>
        <time>2018-11-18T07:36:17Z</time>
      </trkpt>
      <trkpt lat="44.76429" lon="5.43692">
        <ele>814.37</ele>
        <time>2018-11-18T07:36:30Z</time>
      </trkpt>
      <trkpt lat="44.76423" lon="5.4368">
        <ele>817.74</ele>
        <time>2018-11-18T07:36:46Z</time>
      </trkpt>
      <trkpt lat="44.76417" lon="5.43672">
        <ele>821.1</ele>
        <time>2018-11-18T07:37:04Z</time>
      </trkpt>
      <trkpt lat="44.76414" lon="5.43666">
        <ele>823.51</ele>
        <time>2018-11-18T07:37:22Z</time>
      </trkpt>
      <trkpt lat="44.76411" lon="5.43657">
        <ele>825.91</ele>
        <time>2018-11-18T07:37:31Z</time>
      </trkpt>
      <trkpt lat="44.76405" lon="5.43639">
        <ele>827.35</ele>
        <time>2018-11-18T07:37:47Z</time>
      </trkpt>
      <trkpt lat="44.76401" lon="5.43623">
        <ele>830.72</ele>
        <time>2018-11-18T07:38:05Z</time>
      </trkpt>
      <trkpt lat="44.76394" lon="5.43615">
        <ele>834.08</ele>
        <time>2018-11-18T07:38:22Z</time>
      </trkpt>
      <trkpt lat="44.76388" lon="5.43607">
        <ele>837.45</ele>
        <time>2018-11-18T07:38:39Z</time>
      </trkpt>
      <trkpt lat="44.76383" lon="5.43599">
        <ele>841.29</ele>
        <time>2018-11-18T07:38:56Z</time>
      </trkpt>
      <trkpt lat="44.76377" lon="5.43593">
        <ele>844.66</ele>
        <time>2018-11-18T07:39:13Z</time>
      </trkpt>
      <trkpt lat="44.76371" lon="5.43581">
        <ele>847.54</ele>
        <time>2018-11-18T07:39:28Z</time>
      </trkpt>
      <trkpt lat="44.76364" lon="5.43577">
        <ele>849.94</ele>
        <time>2018-11-18T07:39:44Z</time>
      </trkpt>
      <trkpt lat="44.76362" lon="5.43584">
        <ele>852.83</ele>
        <time>2018-11-18T07:39:58Z</time>
      </trkpt>
      <trkpt lat="44.76357" lon="5.43594">
        <ele>856.19</ele>
        <time>2018-11-18T07:40:18Z</time>
      </trkpt>
      <trkpt lat="44.76352" lon="5.43589">
        <ele>859.08</ele>
        <time>2018-11-18T07:40:35Z</time>
      </trkpt>
      <trkpt lat="44.76345" lon="5.43583">
        <ele>861.96</ele>
        <time>2018-11-18T07:40:47Z</time>
      </trkpt>
      <trkpt lat="44.76339" lon="5.43589">
        <ele>865.32</ele>
        <time>2018-11-18T07:41:04Z</time>
      </trkpt>
      <trkpt lat="44.76335" lon="5.43598">
        <ele>868.21</ele>
        <time>2018-11-18T07:41:17Z</time>
      </trkpt>
      <trkpt lat="44.76332" lon="5.43604">
        <ele>871.09</ele>
        <time>2018-11-18T07:41:32Z</time>
      </trkpt>
      <trkpt lat="44.76327" lon="5.43613">
        <ele>873.98</ele>
        <time>2018-11-18T07:41:49Z</time>
      </trkpt>
      <trkpt lat="44.76322" lon="5.4362">
        <ele>877.34</ele>
        <time>2018-11-18T07:42:04Z</time>
      </trkpt>
      <trkpt lat="44.76318" lon="5.43634">
        <ele>880.71</ele>
        <time>2018-11-18T07:42:22Z</time>
      </trkpt>
      <trkpt lat="44.76311" lon="5.43632">
        <ele>883.59</ele>
        <time>2018-11-18T07:42:38Z</time>
      </trkpt>
      <trkpt lat="44.76304" lon="5.43624">
        <ele>885.99</ele>
        <time>2018-11-18T07:42:55Z</time>
      </trkpt>
      <trkpt lat="44.76305" lon="5.4364">
        <ele>889.36</ele>
        <time>2018-11-18T07:43:12Z</time>
      </trkpt>
      <trkpt lat="44.76301" lon="5.4365">
        <ele>891.76</ele>
        <time>2018-11-18T07:43:29Z</time>
      </trkpt>
      <trkpt lat="44.76301" lon="5.43663">
        <ele>895.12</ele>
        <time>2018-11-18T07:43:42Z</time>
      </trkpt>
      <trkpt lat="44.76301" lon="5.43679">
        <ele>897.53</ele>
        <time>2018-11-18T07:43:59Z</time>
      </trkpt>
      <trkpt lat="44.76291" lon="5.43689">
        <ele>900.89</ele>
        <time>2018-11-18T07:44:14Z</time>
      </trkpt>
      <trkpt lat="44.76286" lon="5.43684">
        <ele>904.26</ele>
        <time>2018-11-18T07:44:30Z</time>
      </trkpt>
      <trkpt lat="44.76282" lon="5.43677">
        <ele>907.14</ele>
        <time>2018-11-18T07:44:47Z</time>
      </trkpt>
      <trkpt lat="44.76277" lon="5.43666">
        <ele>910.03</ele>
        <time>2018-11-18T07:45:06Z</time>
      </trkpt>
      <trkpt lat="44.76271" lon="5.43665">
        <ele>913.39</ele>
        <time>2018-11-18T07:45:22Z</time>
      </trkpt>
      <trkpt lat="44.7627" lon="5.43676">
        <ele>915.79</ele>
        <time>2018-11-18T07:45:38Z</time>
      </trkpt>
      <trkpt lat="44.76263" lon="5.4369">
        <ele>918.68</ele>
        <time>2018-11-18T07:45:57Z</time>
      </trkpt>
      <trkpt lat="44.76259" lon="5.43702">
        <ele>922.04</ele>
        <time>2018-11-18T07:46:11Z</time>
      </trkpt>
      <trkpt lat="44.76253" lon="5.43714">
        <ele>924.45</ele>
        <time>2018-11-18T07:46:27Z</time>
      </trkpt>
      <trkpt lat="44.76249" lon="5.4373">
        <ele>927.33</ele>
        <time>2018-11-18T07:46:45Z</time>
      </trkpt>
      <trkpt lat="44.76246" lon="5.43726">
        <ele>930.69</ele>
        <time>2018-11-18T07:47:01Z</time>
      </trkpt>
      <trkpt lat="44.76244" lon="5.43713">
        <ele>932.62</ele>
        <time>2018-11-18T07:47:16Z</time>
      </trkpt>
      <trkpt lat="44.76238" lon="5.43698">
        <ele>935.98</ele>
        <time>2018-11-18T07:47:34Z</time>
      </trkpt>
      <trkpt lat="44.76234" lon="5.43686">
        <ele>938.86</ele>
        <time>2018-11-18T07:47:50Z</time>
      </trkpt>
      <trkpt lat="44.76232" lon="5.43696">
        <ele>941.75</ele>
        <time>2018-11-18T07:48:08Z</time>
      </trkpt>
      <trkpt lat="44.76228" lon="5.4371">
        <ele>945.11</ele>
        <time>2018-11-18T07:48:26Z</time>
      </trkpt>
      <trkpt lat="44.76224" lon="5.43725">
        <ele>948.48</ele>
        <time>2018-11-18T07:48:44Z</time>
      </trkpt>
      <trkpt lat="44.76229" lon="5.43744">
        <ele>951.84</ele>
        <time>2018-11-18T07:49:04Z</time>
      </trkpt>
      <trkpt lat="44.7623" lon="5.4375">
        <ele>952.8</ele>
        <time>2018-11-18T07:49:23Z</time>
      </trkpt>
      <trkpt lat="44.76234" lon="5.43768">
        <ele>955.21</ele>
        <time>2018-11-18T07:49:52Z</time>
      </trkpt>
      <trkpt lat="44.76226" lon="5.4378">
        <ele>958.57</ele>
        <time>2018-11-18T07:50:05Z</time>
      </trkpt>
      <trkpt lat="44.76227" lon="5.43795">
        <ele>961.94</ele>
        <time>2018-11-18T07:50:21Z</time>
      </trkpt>
      <trkpt lat="44.76232" lon="5.43808">
        <ele>965.3</ele>
        <time>2018-11-18T07:50:38Z</time>
      </trkpt>
      <trkpt lat="44.76234" lon="5.4381">
        <ele>965.78</ele>
        <time>2018-11-18T07:50:59Z</time>
      </trkpt>
      <trkpt lat="44.76234" lon="5.43813">
        <ele>965.78</ele>
        <time>2018-11-18T07:51:28Z</time>
      </trkpt>
      <trkpt lat="44.76236" lon="5.4381">
        <ele>965.3</ele>
        <time>2018-11-18T07:51:57Z</time>
      </trkpt>
      <trkpt lat="44.76234" lon="5.43812">
        <ele>965.3</ele>
        <time>2018-11-18T07:52:29Z</time>
      </trkpt>
      <trkpt lat="44.76234" lon="5.43813">
        <ele>965.78</ele>
        <time>2018-11-18T07:52:54Z</time>
      </trkpt>
      <trkpt lat="44.76231" lon="5.43816">
        <ele>965.78</ele>
        <time>2018-11-18T07:53:22Z</time>
      </trkpt>
      <trkpt lat="44.76217" lon="5.43816">
        <ele>968.67</ele>
        <time>2018-11-18T07:53:40Z</time>
      </trkpt>
      <trkpt lat="44.76204" lon="5.43814">
        <ele>972.03</ele>
        <time>2018-11-18T07:53:58Z</time>
      </trkpt>
      <trkpt lat="44.76195" lon="5.43815">
        <ele>975.39</ele>
        <time>2018-11-18T07:54:13Z</time>
      </trkpt>
      <trkpt lat="44.76205" lon="5.43805">
        <ele>977.32</ele>
        <time>2018-11-18T07:54:30Z</time>
      </trkpt>
      <trkpt lat="44.76197" lon="5.43813">
        <ele>978.28</ele>
        <time>2018-11-18T07:54:41Z</time>
      </trkpt>
      <trkpt lat="44.76185" lon="5.43821">
        <ele>981.64</ele>
        <time>2018-11-18T07:54:53Z</time>
      </trkpt>
      <trkpt lat="44.76186" lon="5.43819">
        <ele>979.72</ele>
        <time>2018-11-18T07:54:55Z</time>
      </trkpt>
      <trkpt lat="44.76194" lon="5.43809">
        <ele>983.09</ele>
        <time>2018-11-18T07:55:10Z</time>
      </trkpt>
      <trkpt lat="44.76187" lon="5.43804">
        <ele>985.97</ele>
        <time>2018-11-18T07:55:27Z</time>
      </trkpt>
      <trkpt lat="44.76174" lon="5.43809">
        <ele>987.89</ele>
        <time>2018-11-18T07:55:44Z</time>
      </trkpt>
      <trkpt lat="44.76166" lon="5.43816">
        <ele>991.26</ele>
        <time>2018-11-18T07:56:00Z</time>
      </trkpt>
      <trkpt lat="44.76158" lon="5.43827">
        <ele>994.14</ele>
        <time>2018-11-18T07:56:18Z</time>
      </trkpt>
      <trkpt lat="44.76144" lon="5.43838">
        <ele>996.54</ele>
        <time>2018-11-18T07:56:35Z</time>
      </trkpt>
      <trkpt lat="44.76132" lon="5.43851">
        <ele>998.47</ele>
        <time>2018-11-18T07:56:54Z</time>
      </trkpt>
      <trkpt lat="44.76136" lon="5.43863">
        <ele>1001.35</ele>
        <time>2018-11-18T07:57:10Z</time>
      </trkpt>
      <trkpt lat="44.7614" lon="5.43877">
        <ele>1003.75</ele>
        <time>2018-11-18T07:57:26Z</time>
      </trkpt>
      <trkpt lat="44.7614" lon="5.43892">
        <ele>1005.2</ele>
        <time>2018-11-18T07:57:42Z</time>
      </trkpt>
      <trkpt lat="44.76142" lon="5.43907">
        <ele>1007.6</ele>
        <time>2018-11-18T07:57:59Z</time>
      </trkpt>
      <trkpt lat="44.76142" lon="5.4392">
        <ele>1010.96</ele>
        <time>2018-11-18T07:58:13Z</time>
      </trkpt>
      <trkpt lat="44.76138" lon="5.43942">
        <ele>1013.85</ele>
        <time>2018-11-18T07:58:33Z</time>
      </trkpt>
      <trkpt lat="44.76139" lon="5.43957">
        <ele>1016.73</ele>
        <time>2018-11-18T07:58:49Z</time>
      </trkpt>
      <trkpt lat="44.76141" lon="5.43973">
        <ele>1019.62</ele>
        <time>2018-11-18T07:59:08Z</time>
      </trkpt>
      <trkpt lat="44.76147" lon="5.43987">
        <ele>1022.5</ele>
        <time>2018-11-18T07:59:27Z</time>
      </trkpt>
      <trkpt lat="44.76148" lon="5.44007">
        <ele>1025.86</ele>
        <time>2018-11-18T07:59:46Z</time>
      </trkpt>
      <trkpt lat="44.76144" lon="5.44025">
        <ele>1029.23</ele>
        <time>2018-11-18T08:00:05Z</time>
      </trkpt>
      <trkpt lat="44.76137" lon="5.44042">
        <ele>1031.63</ele>
        <time>2018-11-18T08:00:23Z</time>
      </trkpt>
      <trkpt lat="44.76131" lon="5.44062">
        <ele>1034.04</ele>
        <time>2018-11-18T08:00:43Z</time>
      </trkpt>
      <trkpt lat="44.76129" lon="5.44072">
        <ele>1035.48</ele>
        <time>2018-11-18T08:00:53Z</time>
      </trkpt>
      <trkpt lat="44.76113" lon="5.44084">
        <ele>1038.36</ele>
        <time>2018-11-18T08:01:13Z</time>
      </trkpt>
      <trkpt lat="44.76104" lon="5.44093">
        <ele>1039.8</ele>
        <time>2018-11-18T08:01:30Z</time>
      </trkpt>
      <trkpt lat="44.76096" lon="5.44103">
        <ele>1041.73</ele>
        <time>2018-11-18T08:01:44Z</time>
      </trkpt>
      <trkpt lat="44.76084" lon="5.44115">
        <ele>1044.13</ele>
        <time>2018-11-18T08:02:01Z</time>
      </trkpt>
      <trkpt lat="44.76082" lon="5.44116">
        <ele>1044.13</ele>
        <time>2018-11-18T08:02:03Z</time>
      </trkpt>
      <trkpt lat="44.76075" lon="5.44137">
        <ele>1046.05</ele>
        <time>2018-11-18T08:02:19Z</time>
      </trkpt>
      <trkpt lat="44.76068" lon="5.44156">
        <ele>1048.45</ele>
        <time>2018-11-18T08:02:36Z</time>
      </trkpt>
      <trkpt lat="44.76061" lon="5.4417">
        <ele>1050.38</ele>
        <time>2018-11-18T08:02:52Z</time>
      </trkpt>
      <trkpt lat="44.76049" lon="5.44189">
        <ele>1052.78</ele>
        <time>2018-11-18T08:03:13Z</time>
      </trkpt>
      <trkpt lat="44.76042" lon="5.44198">
        <ele>1053.74</ele>
        <time>2018-11-18T08:03:24Z</time>
      </trkpt>
      <trkpt lat="44.76032" lon="5.44211">
        <ele>1055.67</ele>
        <time>2018-11-18T08:03:42Z</time>
      </trkpt>
      <trkpt lat="44.76018" lon="5.4423">
        <ele>1056.63</ele>
        <time>2018-11-18T08:03:59Z</time>
      </trkpt>
      <trkpt lat="44.76008" lon="5.44244">
        <ele>1058.07</ele>
        <time>2018-11-18T08:04:15Z</time>
      </trkpt>
      <trkpt lat="44.75997" lon="5.44259">
        <ele>1059.99</ele>
        <time>2018-11-18T08:04:31Z</time>
      </trkpt>
      <trkpt lat="44.75986" lon="5.44276">
        <ele>1060.95</ele>
        <time>2018-11-18T08:04:48Z</time>
      </trkpt>
      <trkpt lat="44.75977" lon="5.44299">
        <ele>1062.39</ele>
        <time>2018-11-18T08:05:06Z</time>
      </trkpt>
      <trkpt lat="44.7597" lon="5.44325">
        <ele>1062.87</ele>
        <time>2018-11-18T08:05:23Z</time>
      </trkpt>
      <trkpt lat="44.75969" lon="5.44339">
        <ele>1064.32</ele>
        <time>2018-11-18T08:05:38Z</time>
      </trkpt>
      <trkpt lat="44.75965" lon="5.44359">
        <ele>1066.24</ele>
        <time>2018-11-18T08:05:57Z</time>
      </trkpt>
      <trkpt lat="44.75966" lon="5.44362">
        <ele>1067.2</ele>
        <time>2018-11-18T08:06:16Z</time>
      </trkpt>
      <trkpt lat="44.75966" lon="5.44388">
        <ele>1068.64</ele>
        <time>2018-11-18T08:06:37Z</time>
      </trkpt>
      <trkpt lat="44.75966" lon="5.44392">
        <ele>1068.16</ele>
        <time>2018-11-18T08:06:39Z</time>
      </trkpt>
      <trkpt lat="44.75961" lon="5.44415">
        <ele>1069.12</ele>
        <time>2018-11-18T08:06:55Z</time>
      </trkpt>
      <trkpt lat="44.75958" lon="5.44441">
        <ele>1071.05</ele>
        <time>2018-11-18T08:07:13Z</time>
      </trkpt>
      <trkpt lat="44.7596" lon="5.44467">
        <ele>1072.49</ele>
        <time>2018-11-18T08:07:32Z</time>
      </trkpt>
      <trkpt lat="44.75967" lon="5.44493">
        <ele>1073.45</ele>
        <time>2018-11-18T08:07:49Z</time>
      </trkpt>
      <trkpt lat="44.75971" lon="5.44513">
        <ele>1073.45</ele>
        <time>2018-11-18T08:08:02Z</time>
      </trkpt>
      <trkpt lat="44.75971" lon="5.4452">
        <ele>1073.45</ele>
        <time>2018-11-18T08:08:05Z</time>
      </trkpt>
      <trkpt lat="44.75971" lon="5.4454">
        <ele>1073.45</ele>
        <time>2018-11-18T08:08:18Z</time>
      </trkpt>
      <trkpt lat="44.75967" lon="5.44573">
        <ele>1073.93</ele>
        <time>2018-11-18T08:08:36Z</time>
      </trkpt>
      <trkpt lat="44.75963" lon="5.44605">
        <ele>1073.45</ele>
        <time>2018-11-18T08:08:55Z</time>
      </trkpt>
      <trkpt lat="44.75965" lon="5.44625">
        <ele>1073.45</ele>
        <time>2018-11-18T08:09:12Z</time>
      </trkpt>
      <trkpt lat="44.75982" lon="5.44646">
        <ele>1073.45</ele>
        <time>2018-11-18T08:09:29Z</time>
      </trkpt>
      <trkpt lat="44.75994" lon="5.44657">
        <ele>1073.45</ele>
        <time>2018-11-18T08:09:48Z</time>
      </trkpt>
      <trkpt lat="44.75981" lon="5.4466">
        <ele>1076.33</ele>
        <time>2018-11-18T08:10:07Z</time>
      </trkpt>
      <trkpt lat="44.75969" lon="5.44655">
        <ele>1078.74</ele>
        <time>2018-11-18T08:10:23Z</time>
      </trkpt>
      <trkpt lat="44.75957" lon="5.44648">
        <ele>1081.62</ele>
        <time>2018-11-18T08:10:39Z</time>
      </trkpt>
      <trkpt lat="44.75945" lon="5.44638">
        <ele>1084.99</ele>
        <time>2018-11-18T08:10:55Z</time>
      </trkpt>
      <trkpt lat="44.75934" lon="5.44634">
        <ele>1087.87</ele>
        <time>2018-11-18T08:11:11Z</time>
      </trkpt>
      <trkpt lat="44.75927" lon="5.44635">
        <ele>1091.23</ele>
        <time>2018-11-18T08:11:28Z</time>
      </trkpt>
      <trkpt lat="44.75917" lon="5.44636">
        <ele>1094.6</ele>
        <time>2018-11-18T08:11:45Z</time>
      </trkpt>
      <trkpt lat="44.75907" lon="5.44626">
        <ele>1097.96</ele>
        <time>2018-11-18T08:12:02Z</time>
      </trkpt>
      <trkpt lat="44.759" lon="5.44627">
        <ele>1101.33</ele>
        <time>2018-11-18T08:12:20Z</time>
      </trkpt>
      <trkpt lat="44.75887" lon="5.44616">
        <ele>1104.21</ele>
        <time>2018-11-18T08:12:39Z</time>
      </trkpt>
      <trkpt lat="44.75881" lon="5.44613">
        <ele>1107.58</ele>
        <time>2018-11-18T08:12:54Z</time>
      </trkpt>
      <trkpt lat="44.75872" lon="5.44612">
        <ele>1110.46</ele>
        <time>2018-11-18T08:13:11Z</time>
      </trkpt>
      <trkpt lat="44.75867" lon="5.44614">
        <ele>1113.34</ele>
        <time>2018-11-18T08:13:23Z</time>
      </trkpt>
      <trkpt lat="44.75858" lon="5.44609">
        <ele>1116.71</ele>
        <time>2018-11-18T08:13:40Z</time>
      </trkpt>
      <trkpt lat="44.7585" lon="5.44599">
        <ele>1120.07</ele>
        <time>2018-11-18T08:13:57Z</time>
      </trkpt>
      <trkpt lat="44.75842" lon="5.44598">
        <ele>1122.48</ele>
        <time>2018-11-18T08:14:11Z</time>
      </trkpt>
      <trkpt lat="44.75838" lon="5.44591">
        <ele>1125.36</ele>
        <time>2018-11-18T08:14:28Z</time>
      </trkpt>
      <trkpt lat="44.75835" lon="5.44577">
        <ele>1128.73</ele>
        <time>2018-11-18T08:14:43Z</time>
      </trkpt>
      <trkpt lat="44.75825" lon="5.44575">
        <ele>1130.65</ele>
        <time>2018-11-18T08:15:00Z</time>
      </trkpt>
      <trkpt lat="44.75818" lon="5.44582">
        <ele>1130.65</ele>
        <time>2018-11-18T08:15:15Z</time>
      </trkpt>
      <trkpt lat="44.7582" lon="5.44582">
        <ele>1130.65</ele>
        <time>2018-11-18T08:15:36Z</time>
      </trkpt>
      <trkpt lat="44.75822" lon="5.44585">
        <ele>1130.65</ele>
        <time>2018-11-18T08:16:11Z</time>
      </trkpt>
      <trkpt lat="44.7582" lon="5.44579">
        <ele>1130.65</ele>
        <time>2018-11-18T08:16:28Z</time>
      </trkpt>
      <trkpt lat="44.75818" lon="5.44577">
        <ele>1130.65</ele>
        <time>2018-11-18T08:16:44Z</time>
      </trkpt>
      <trkpt lat="44.75818" lon="5.44578">
        <ele>1130.65</ele>
        <time>2018-11-18T08:16:51Z</time>
      </trkpt>
      <trkpt lat="44.75819" lon="5.44576">
        <ele>1130.65</ele>
        <time>2018-11-18T08:16:56Z</time>
      </trkpt>
      <trkpt lat="44.7582" lon="5.44576">
        <ele>1130.65</ele>
        <time>2018-11-18T08:17:08Z</time>
      </trkpt>
      <trkpt lat="44.75821" lon="5.44575">
        <ele>1130.65</ele>
        <time>2018-11-18T08:17:24Z</time>
      </trkpt>
      <trkpt lat="44.75819" lon="5.44567">
        <ele>1130.65</ele>
        <time>2018-11-18T08:17:41Z</time>
      </trkpt>
      <trkpt lat="44.75817" lon="5.44567">
        <ele>1131.13</ele>
        <time>2018-11-18T08:18:06Z</time>
      </trkpt>
      <trkpt lat="44.75818" lon="5.44562">
        <ele>1131.13</ele>
        <time>2018-11-18T08:18:25Z</time>
      </trkpt>
      <trkpt lat="44.75819" lon="5.44559">
        <ele>1131.13</ele>
        <time>2018-11-18T08:18:48Z</time>
      </trkpt>
      <trkpt lat="44.75819" lon="5.44558">
        <ele>1131.61</ele>
        <time>2018-11-18T08:19:07Z</time>
      </trkpt>
      <trkpt lat="44.75821" lon="5.44558">
        <ele>1131.61</ele>
        <time>2018-11-18T08:19:30Z</time>
      </trkpt>
      <trkpt lat="44.75822" lon="5.44558">
        <ele>1132.57</ele>
        <time>2018-11-18T08:19:50Z</time>
      </trkpt>
      <trkpt lat="44.75823" lon="5.44562">
        <ele>1132.57</ele>
        <time>2018-11-18T08:20:22Z</time>
      </trkpt>
      <trkpt lat="44.75824" lon="5.4456">
        <ele>1131.13</ele>
        <time>2018-11-18T08:20:52Z</time>
      </trkpt>
      <trkpt lat="44.75823" lon="5.44557">
        <ele>1131.13</ele>
        <time>2018-11-18T08:21:25Z</time>
      </trkpt>
      <trkpt lat="44.75822" lon="5.44558">
        <ele>1131.13</ele>
        <time>2018-11-18T08:21:47Z</time>
      </trkpt>
      <trkpt lat="44.75821" lon="5.44564">
        <ele>1130.65</ele>
        <time>2018-11-18T08:22:03Z</time>
      </trkpt>
      <trkpt lat="44.7582" lon="5.44576">
        <ele>1129.69</ele>
        <time>2018-11-18T08:22:20Z</time>
      </trkpt>
      <trkpt lat="44.75822" lon="5.44574">
        <ele>1129.21</ele>
        <time>2018-11-18T08:22:43Z</time>
      </trkpt>
      <trkpt lat="44.75821" lon="5.44574">
        <ele>1129.21</ele>
        <time>2018-11-18T08:22:45Z</time>
      </trkpt>
      <trkpt lat="44.75815" lon="5.44581">
        <ele>1130.65</ele>
        <time>2018-11-18T08:22:57Z</time>
      </trkpt>
      <trkpt lat="44.75808" lon="5.44591">
        <ele>1133.53</ele>
        <time>2018-11-18T08:23:14Z</time>
      </trkpt>
      <trkpt lat="44.75802" lon="5.44601">
        <ele>1136.9</ele>
        <time>2018-11-18T08:23:29Z</time>
      </trkpt>
      <trkpt lat="44.758" lon="5.44608">
        <ele>1138.34</ele>
        <time>2018-11-18T08:23:52Z</time>
      </trkpt>
      <trkpt lat="44.75798" lon="5.44619">
        <ele>1141.7</ele>
        <time>2018-11-18T08:24:05Z</time>
      </trkpt>
      <trkpt lat="44.75796" lon="5.44625">
        <ele>1142.66</ele>
        <time>2018-11-18T08:24:12Z</time>
      </trkpt>
      <trkpt lat="44.75795" lon="5.44633">
        <ele>1142.66</ele>
        <time>2018-11-18T08:24:17Z</time>
      </trkpt>
      <trkpt lat="44.75792" lon="5.44654">
        <ele>1142.66</ele>
        <time>2018-11-18T08:24:35Z</time>
      </trkpt>
      <trkpt lat="44.7579" lon="5.44671">
        <ele>1143.63</ele>
        <time>2018-11-18T08:24:55Z</time>
      </trkpt>
      <trkpt lat="44.75786" lon="5.44687">
        <ele>1146.51</ele>
        <time>2018-11-18T08:25:09Z</time>
      </trkpt>
      <trkpt lat="44.75786" lon="5.44689">
        <ele>1146.99</ele>
        <time>2018-11-18T08:25:11Z</time>
      </trkpt>
      <trkpt lat="44.75785" lon="5.44706">
        <ele>1150.35</ele>
        <time>2018-11-18T08:25:26Z</time>
      </trkpt>
      <trkpt lat="44.75787" lon="5.4472">
        <ele>1153.72</ele>
        <time>2018-11-18T08:25:43Z</time>
      </trkpt>
      <trkpt lat="44.75784" lon="5.44732">
        <ele>1157.08</ele>
        <time>2018-11-18T08:25:58Z</time>
      </trkpt>
      <trkpt lat="44.75784" lon="5.44741">
        <ele>1160.45</ele>
        <time>2018-11-18T08:26:14Z</time>
      </trkpt>
      <trkpt lat="44.75777" lon="5.44748">
        <ele>1163.33</ele>
        <time>2018-11-18T08:26:32Z</time>
      </trkpt>
      <trkpt lat="44.75783" lon="5.44757">
        <ele>1166.22</ele>
        <time>2018-11-18T08:26:48Z</time>
      </trkpt>
      <trkpt lat="44.75788" lon="5.44771">
        <ele>1169.58</ele>
        <time>2018-11-18T08:27:07Z</time>
      </trkpt>
      <trkpt lat="44.75791" lon="5.44782">
        <ele>1172.47</ele>
        <time>2018-11-18T08:27:24Z</time>
      </trkpt>
      <trkpt lat="44.75798" lon="5.44794">
        <ele>1175.83</ele>
        <time>2018-11-18T08:27:40Z</time>
      </trkpt>
      <trkpt lat="44.75805" lon="5.44802">
        <ele>1179.19</ele>
        <time>2018-11-18T08:27:59Z</time>
      </trkpt>
      <trkpt lat="44.7581" lon="5.44815">
        <ele>1182.08</ele>
        <time>2018-11-18T08:28:15Z</time>
      </trkpt>
      <trkpt lat="44.75815" lon="5.44825">
        <ele>1184.48</ele>
        <time>2018-11-18T08:28:33Z</time>
      </trkpt>
      <trkpt lat="44.75823" lon="5.4484">
        <ele>1187.85</ele>
        <time>2018-11-18T08:28:50Z</time>
      </trkpt>
      <trkpt lat="44.75826" lon="5.44848">
        <ele>1190.25</ele>
        <time>2018-11-18T08:29:07Z</time>
      </trkpt>
      <trkpt lat="44.75834" lon="5.44859">
        <ele>1193.61</ele>
        <time>2018-11-18T08:29:24Z</time>
      </trkpt>
      <trkpt lat="44.75838" lon="5.44867">
        <ele>1196.02</ele>
        <time>2018-11-18T08:29:37Z</time>
      </trkpt>
      <trkpt lat="44.75844" lon="5.44876">
        <ele>1197.94</ele>
        <time>2018-11-18T08:29:53Z</time>
      </trkpt>
      <trkpt lat="44.75852" lon="5.44885">
        <ele>1200.82</ele>
        <time>2018-11-18T08:30:12Z</time>
      </trkpt>
      <trkpt lat="44.7586" lon="5.44895">
        <ele>1203.23</ele>
        <time>2018-11-18T08:30:29Z</time>
      </trkpt>
      <trkpt lat="44.75859" lon="5.44904">
        <ele>1204.67</ele>
        <time>2018-11-18T08:30:47Z</time>
      </trkpt>
      <trkpt lat="44.75866" lon="5.4491">
        <ele>1207.55</ele>
        <time>2018-11-18T08:31:01Z</time>
      </trkpt>
      <trkpt lat="44.75877" lon="5.44924">
        <ele>1210.44</ele>
        <time>2018-11-18T08:31:18Z</time>
      </trkpt>
      <trkpt lat="44.75882" lon="5.44937">
        <ele>1212.84</ele>
        <time>2018-11-18T08:31:34Z</time>
      </trkpt>
      <trkpt lat="44.75887" lon="5.44949">
        <ele>1215.24</ele>
        <time>2018-11-18T08:31:49Z</time>
      </trkpt>
      <trkpt lat="44.75891" lon="5.44965">
        <ele>1218.61</ele>
        <time>2018-11-18T08:32:06Z</time>
      </trkpt>
      <trkpt lat="44.75896" lon="5.44975">
        <ele>1221.97</ele>
        <time>2018-11-18T08:32:23Z</time>
      </trkpt>
      <trkpt lat="44.75903" lon="5.44984">
        <ele>1225.34</ele>
        <time>2018-11-18T08:32:41Z</time>
      </trkpt>
      <trkpt lat="44.75904" lon="5.44992">
        <ele>1227.26</ele>
        <time>2018-11-18T08:32:56Z</time>
      </trkpt>
      <trkpt lat="44.75906" lon="5.45002">
        <ele>1230.62</ele>
        <time>2018-11-18T08:33:12Z</time>
      </trkpt>
      <trkpt lat="44.75905" lon="5.4501">
        <ele>1233.03</ele>
        <time>2018-11-18T08:33:30Z</time>
      </trkpt>
      <trkpt lat="44.75904" lon="5.45021">
        <ele>1236.39</ele>
        <time>2018-11-18T08:33:49Z</time>
      </trkpt>
      <trkpt lat="44.75906" lon="5.45028">
        <ele>1238.8</ele>
        <time>2018-11-18T08:34:06Z</time>
      </trkpt>
      <trkpt lat="44.75907" lon="5.45029">
        <ele>1240.72</ele>
        <time>2018-11-18T08:34:30Z</time>
      </trkpt>
      <trkpt lat="44.75905" lon="5.45034">
        <ele>1242.64</ele>
        <time>2018-11-18T08:34:52Z</time>
      </trkpt>
      <trkpt lat="44.75903" lon="5.45037">
        <ele>1244.56</ele>
        <time>2018-11-18T08:35:08Z</time>
      </trkpt>
      <trkpt lat="44.75905" lon="5.45046">
        <ele>1246.49</ele>
        <time>2018-11-18T08:35:22Z</time>
      </trkpt>
      <trkpt lat="44.75904" lon="5.45055">
        <ele>1249.85</ele>
        <time>2018-11-18T08:35:37Z</time>
      </trkpt>
      <trkpt lat="44.75905" lon="5.45061">
        <ele>1252.74</ele>
        <time>2018-11-18T08:35:53Z</time>
      </trkpt>
      <trkpt lat="44.75905" lon="5.45071">
        <ele>1256.1</ele>
        <time>2018-11-18T08:36:09Z</time>
      </trkpt>
      <trkpt lat="44.75905" lon="5.45079">
        <ele>1258.5</ele>
        <time>2018-11-18T08:36:23Z</time>
      </trkpt>
      <trkpt lat="44.75904" lon="5.45082">
        <ele>1261.39</ele>
        <time>2018-11-18T08:36:39Z</time>
      </trkpt>
      <trkpt lat="44.75908" lon="5.45091">
        <ele>1264.75</ele>
        <time>2018-11-18T08:36:53Z</time>
      </trkpt>
      <trkpt lat="44.7591" lon="5.45099">
        <ele>1267.64</ele>
        <time>2018-11-18T08:37:09Z</time>
      </trkpt>
      <trkpt lat="44.75917" lon="5.45107">
        <ele>1270.04</ele>
        <time>2018-11-18T08:37:23Z</time>
      </trkpt>
      <trkpt lat="44.75925" lon="5.45107">
        <ele>1272.44</ele>
        <time>2018-11-18T08:37:39Z</time>
      </trkpt>
      <trkpt lat="44.7593" lon="5.45113">
        <ele>1274.85</ele>
        <time>2018-11-18T08:37:54Z</time>
      </trkpt>
      <trkpt lat="44.75936" lon="5.45121">
        <ele>1278.21</ele>
        <time>2018-11-18T08:38:11Z</time>
      </trkpt>
      <trkpt lat="44.7594" lon="5.45128">
        <ele>1279.65</ele>
        <time>2018-11-18T08:38:26Z</time>
      </trkpt>
      <trkpt lat="44.75944" lon="5.4513">
        <ele>1280.13</ele>
        <time>2018-11-18T08:38:47Z</time>
      </trkpt>
      <trkpt lat="44.75947" lon="5.45131">
        <ele>1282.06</ele>
        <time>2018-11-18T08:39:06Z</time>
      </trkpt>
      <trkpt lat="44.75952" lon="5.45136">
        <ele>1282.06</ele>
        <time>2018-11-18T08:39:21Z</time>
      </trkpt>
      <trkpt lat="44.75958" lon="5.45143">
        <ele>1282.54</ele>
        <time>2018-11-18T08:39:38Z</time>
      </trkpt>
      <trkpt lat="44.75959" lon="5.45146">
        <ele>1281.09</ele>
        <time>2018-11-18T08:39:41Z</time>
      </trkpt>
      <trkpt lat="44.75961" lon="5.45153">
        <ele>1282.54</ele>
        <time>2018-11-18T08:39:47Z</time>
      </trkpt>
      <trkpt lat="44.75966" lon="5.45163">
        <ele>1284.94</ele>
        <time>2018-11-18T08:40:03Z</time>
      </trkpt>
      <trkpt lat="44.75969" lon="5.45173">
        <ele>1287.34</ele>
        <time>2018-11-18T08:40:18Z</time>
      </trkpt>
      <trkpt lat="44.75971" lon="5.45186">
        <ele>1288.3</ele>
        <time>2018-11-18T08:40:32Z</time>
      </trkpt>
      <trkpt lat="44.75975" lon="5.45198">
        <ele>1291.19</ele>
        <time>2018-11-18T08:40:49Z</time>
      </trkpt>
      <trkpt lat="44.75977" lon="5.45204">
        <ele>1293.11</ele>
        <time>2018-11-18T08:41:05Z</time>
      </trkpt>
      <trkpt lat="44.75978" lon="5.45215">
        <ele>1294.07</ele>
        <time>2018-11-18T08:41:23Z</time>
      </trkpt>
      <trkpt lat="44.75981" lon="5.45222">
        <ele>1295.03</ele>
        <time>2018-11-18T08:41:41Z</time>
      </trkpt>
      <trkpt lat="44.75986" lon="5.45231">
        <ele>1298.4</ele>
        <time>2018-11-18T08:41:59Z</time>
      </trkpt>
      <trkpt lat="44.75991" lon="5.45232">
        <ele>1300.8</ele>
        <time>2018-11-18T08:42:18Z</time>
      </trkpt>
      <trkpt lat="44.75998" lon="5.45231">
        <ele>1303.69</ele>
        <time>2018-11-18T08:42:36Z</time>
      </trkpt>
      <trkpt lat="44.76003" lon="5.45232">
        <ele>1305.61</ele>
        <time>2018-11-18T08:42:57Z</time>
      </trkpt>
      <trkpt lat="44.76004" lon="5.45233">
        <ele>1306.57</ele>
        <time>2018-11-18T08:43:20Z</time>
      </trkpt>
      <trkpt lat="44.76006" lon="5.45241">
        <ele>1307.53</ele>
        <time>2018-11-18T08:43:40Z</time>
      </trkpt>
      <trkpt lat="44.76008" lon="5.45241">
        <ele>1308.97</ele>
        <time>2018-11-18T08:44:00Z</time>
      </trkpt>
      <trkpt lat="44.7601" lon="5.45246">
        <ele>1309.45</ele>
        <time>2018-11-18T08:44:30Z</time>
      </trkpt>
      <trkpt lat="44.76013" lon="5.45248">
        <ele>1309.45</ele>
        <time>2018-11-18T08:44:50Z</time>
      </trkpt>
      <trkpt lat="44.76015" lon="5.4525">
        <ele>1308.01</ele>
        <time>2018-11-18T08:45:05Z</time>
      </trkpt>
      <trkpt lat="44.76017" lon="5.45252">
        <ele>1307.53</ele>
        <time>2018-11-18T08:45:23Z</time>
      </trkpt>
      <trkpt lat="44.76019" lon="5.45255">
        <ele>1308.97</ele>
        <time>2018-11-18T08:45:30Z</time>
      </trkpt>
      <trkpt lat="44.76022" lon="5.45265">
        <ele>1311.38</ele>
        <time>2018-11-18T08:45:48Z</time>
      </trkpt>
      <trkpt lat="44.76024" lon="5.45268">
        <ele>1310.9</ele>
        <time>2018-11-18T08:46:01Z</time>
      </trkpt>
      <trkpt lat="44.76022" lon="5.4527">
        <ele>1312.82</ele>
        <time>2018-11-18T08:46:20Z</time>
      </trkpt>
      <trkpt lat="44.76023" lon="5.45273">
        <ele>1313.78</ele>
        <time>2018-11-18T08:46:37Z</time>
      </trkpt>
      <trkpt lat="44.7602" lon="5.45277">
        <ele>1315.22</ele>
        <time>2018-11-18T08:46:53Z</time>
      </trkpt>
      <trkpt lat="44.76018" lon="5.45282">
        <ele>1316.66</ele>
        <time>2018-11-18T08:47:11Z</time>
      </trkpt>
      <trkpt lat="44.7602" lon="5.45287">
        <ele>1319.55</ele>
        <time>2018-11-18T08:47:27Z</time>
      </trkpt>
      <trkpt lat="44.76021" lon="5.45287">
        <ele>1322.91</ele>
        <time>2018-11-18T08:47:41Z</time>
      </trkpt>
      <trkpt lat="44.76025" lon="5.45285">
        <ele>1324.83</ele>
        <time>2018-11-18T08:47:56Z</time>
      </trkpt>
      <trkpt lat="44.76028" lon="5.45285">
        <ele>1328.2</ele>
        <time>2018-11-18T08:48:13Z</time>
      </trkpt>
      <trkpt lat="44.76033" lon="5.45283">
        <ele>1330.6</ele>
        <time>2018-11-18T08:48:27Z</time>
      </trkpt>
      <trkpt lat="44.76039" lon="5.45275">
        <ele>1333.97</ele>
        <time>2018-11-18T08:48:43Z</time>
      </trkpt>
      <trkpt lat="44.76046" lon="5.45274">
        <ele>1336.85</ele>
        <time>2018-11-18T08:49:00Z</time>
      </trkpt>
      <trkpt lat="44.76049" lon="5.45273">
        <ele>1339.25</ele>
        <time>2018-11-18T08:49:19Z</time>
      </trkpt>
      <trkpt lat="44.7605" lon="5.45268">
        <ele>1341.66</ele>
        <time>2018-11-18T08:49:37Z</time>
      </trkpt>
      <trkpt lat="44.76052" lon="5.45272">
        <ele>1343.58</ele>
        <time>2018-11-18T08:50:02Z</time>
      </trkpt>
      <trkpt lat="44.76056" lon="5.4527">
        <ele>1345.5</ele>
        <time>2018-11-18T08:50:19Z</time>
      </trkpt>
      <trkpt lat="44.7606" lon="5.45269">
        <ele>1346.94</ele>
        <time>2018-11-18T08:50:36Z</time>
      </trkpt>
      <trkpt lat="44.76064" lon="5.45274">
        <ele>1348.87</ele>
        <time>2018-11-18T08:50:55Z</time>
      </trkpt>
      <trkpt lat="44.76065" lon="5.45277">
        <ele>1350.79</ele>
        <time>2018-11-18T08:51:11Z</time>
      </trkpt>
      <trkpt lat="44.76065" lon="5.45278">
        <ele>1352.71</ele>
        <time>2018-11-18T08:51:29Z</time>
      </trkpt>
      <trkpt lat="44.76068" lon="5.45281">
        <ele>1354.15</ele>
        <time>2018-11-18T08:51:52Z</time>
      </trkpt>
      <trkpt lat="44.76068" lon="5.45278">
        <ele>1355.6</ele>
        <time>2018-11-18T08:52:09Z</time>
      </trkpt>
      <trkpt lat="44.76068" lon="5.45278">
        <ele>1355.12</ele>
        <time>2018-11-18T08:52:36Z</time>
      </trkpt>
      <trkpt lat="44.76068" lon="5.45281">
        <ele>1355.12</ele>
        <time>2018-11-18T08:53:11Z</time>
      </trkpt>
      <trkpt lat="44.76069" lon="5.45282">
        <ele>1355.12</ele>
        <time>2018-11-18T08:53:36Z</time>
      </trkpt>
      <trkpt lat="44.76068" lon="5.4528">
        <ele>1355.6</ele>
        <time>2018-11-18T08:53:59Z</time>
      </trkpt>
      <trkpt lat="44.76069" lon="5.45282">
        <ele>1355.6</ele>
        <time>2018-11-18T08:54:26Z</time>
      </trkpt>
      <trkpt lat="44.76067" lon="5.45275">
        <ele>1355.6</ele>
        <time>2018-11-18T08:54:55Z</time>
      </trkpt>
      <trkpt lat="44.76066" lon="5.45276">
        <ele>1355.6</ele>
        <time>2018-11-18T08:55:22Z</time>
      </trkpt>
      <trkpt lat="44.76064" lon="5.45278">
        <ele>1354.15</ele>
        <time>2018-11-18T08:55:40Z</time>
      </trkpt>
      <trkpt lat="44.76066" lon="5.45278">
        <ele>1353.67</ele>
        <time>2018-11-18T08:56:08Z</time>
      </trkpt>
      <trkpt lat="44.76064" lon="5.45276">
        <ele>1352.71</ele>
        <time>2018-11-18T08:56:34Z</time>
      </trkpt>
      <trkpt lat="44.76064" lon="5.45273">
        <ele>1351.27</ele>
        <time>2018-11-18T08:56:50Z</time>
      </trkpt>
      <trkpt lat="44.76063" lon="5.45269">
        <ele>1348.87</ele>
        <time>2018-11-18T08:57:06Z</time>
      </trkpt>
      <trkpt lat="44.76061" lon="5.45266">
        <ele>1347.43</ele>
        <time>2018-11-18T08:57:22Z</time>
      </trkpt>
      <trkpt lat="44.76058" lon="5.45263">
        <ele>1345.98</ele>
        <time>2018-11-18T08:57:45Z</time>
      </trkpt>
      <trkpt lat="44.76056" lon="5.45266">
        <ele>1345.02</ele>
        <time>2018-11-18T08:58:05Z</time>
      </trkpt>
      <trkpt lat="44.76052" lon="5.4527">
        <ele>1342.62</ele>
        <time>2018-11-18T08:58:22Z</time>
      </trkpt>
      <trkpt lat="44.76048" lon="5.45275">
        <ele>1339.73</ele>
        <time>2018-11-18T08:58:40Z</time>
      </trkpt>
      <trkpt lat="44.76045" lon="5.45276">
        <ele>1336.85</ele>
        <time>2018-11-18T08:58:49Z</time>
      </trkpt>
      <trkpt lat="44.7604" lon="5.45278">
        <ele>1333.97</ele>
        <time>2018-11-18T08:59:03Z</time>
      </trkpt>
      <trkpt lat="44.76035" lon="5.4527">
        <ele>1331.56</ele>
        <time>2018-11-18T08:59:22Z</time>
      </trkpt>
      <trkpt lat="44.76029" lon="5.45269">
        <ele>1328.2</ele>
        <time>2018-11-18T08:59:39Z</time>
      </trkpt>
      <trkpt lat="44.76025" lon="5.45271">
        <ele>1325.31</ele>
        <time>2018-11-18T08:59:58Z</time>
      </trkpt>
      <trkpt lat="44.76022" lon="5.45273">
        <ele>1323.39</ele>
        <time>2018-11-18T09:00:15Z</time>
      </trkpt>
      <trkpt lat="44.76023" lon="5.45272">
        <ele>1322.43</ele>
        <time>2018-11-18T09:00:42Z</time>
      </trkpt>
      <trkpt lat="44.76012" lon="5.45274">
        <ele>1321.47</ele>
        <time>2018-11-18T09:01:09Z</time>
      </trkpt>
      <trkpt lat="44.76011" lon="5.45274">
        <ele>1320.99</ele>
        <time>2018-11-18T09:01:32Z</time>
      </trkpt>
      <trkpt lat="44.76018" lon="5.45274">
        <ele>1320.51</ele>
        <time>2018-11-18T09:02:02Z</time>
      </trkpt>
      <trkpt lat="44.76018" lon="5.45276">
        <ele>1320.03</ele>
        <time>2018-11-18T09:02:43Z</time>
      </trkpt>
      <trkpt lat="44.76019" lon="5.45272">
        <ele>1319.07</ele>
        <time>2018-11-18T09:03:06Z</time>
      </trkpt>
      <trkpt lat="44.76022" lon="5.45271">
        <ele>1318.59</ele>
        <time>2018-11-18T09:03:26Z</time>
      </trkpt>
      <trkpt lat="44.76026" lon="5.45267">
        <ele>1316.66</ele>
        <time>2018-11-18T09:03:46Z</time>
      </trkpt>
      <trkpt lat="44.76022" lon="5.45269">
        <ele>1316.18</ele>
        <time>2018-11-18T09:04:09Z</time>
      </trkpt>
      <trkpt lat="44.76022" lon="5.45264">
        <ele>1315.22</ele>
        <time>2018-11-18T09:04:27Z</time>
      </trkpt>
      <trkpt lat="44.76022" lon="5.45263">
        <ele>1313.78</ele>
        <time>2018-11-18T09:04:45Z</time>
      </trkpt>
      <trkpt lat="44.76024" lon="5.45267">
        <ele>1313.78</ele>
        <time>2018-11-18T09:05:04Z</time>
      </trkpt>
      <trkpt lat="44.76024" lon="5.45261">
        <ele>1312.82</ele>
        <time>2018-11-18T09:05:24Z</time>
      </trkpt>
      <trkpt lat="44.76026" lon="5.45259">
        <ele>1311.86</ele>
        <time>2018-11-18T09:05:41Z</time>
      </trkpt>
      <trkpt lat="44.76026" lon="5.45252">
        <ele>1311.38</ele>
        <time>2018-11-18T09:06:00Z</time>
      </trkpt>
      <trkpt lat="44.76025" lon="5.45253">
        <ele>1310.9</ele>
        <time>2018-11-18T09:06:17Z</time>
      </trkpt>
      <trkpt lat="44.76027" lon="5.45257">
        <ele>1310.9</ele>
        <time>2018-11-18T09:06:39Z</time>
      </trkpt>
      <trkpt lat="44.7602" lon="5.4525">
        <ele>1308.97</ele>
        <time>2018-11-18T09:06:58Z</time>
      </trkpt>
      <trkpt lat="44.76016" lon="5.45248">
        <ele>1308.49</ele>
        <time>2018-11-18T09:07:16Z</time>
      </trkpt>
      <trkpt lat="44.76013" lon="5.45244">
        <ele>1307.53</ele>
        <time>2018-11-18T09:07:37Z</time>
      </trkpt>
      <trkpt lat="44.76011" lon="5.45243">
        <ele>1308.97</ele>
        <time>2018-11-18T09:07:42Z</time>
      </trkpt>
      <trkpt lat="44.76009" lon="5.45238">
        <ele>1308.97</ele>
        <time>2018-11-18T09:07:58Z</time>
      </trkpt>
      <trkpt lat="44.76008" lon="5.45228">
        <ele>1308.97</ele>
        <time>2018-11-18T09:08:11Z</time>
      </trkpt>
      <trkpt lat="44.76005" lon="5.45229">
        <ele>1307.53</ele>
        <time>2018-11-18T09:08:24Z</time>
      </trkpt>
      <trkpt lat="44.76004" lon="5.45223">
        <ele>1304.65</ele>
        <time>2018-11-18T09:08:41Z</time>
      </trkpt>
      <trkpt lat="44.76001" lon="5.45223">
        <ele>1300.8</ele>
        <time>2018-11-18T09:08:52Z</time>
      </trkpt>
      <trkpt lat="44.75992" lon="5.4522">
        <ele>1297.92</ele>
        <time>2018-11-18T09:09:03Z</time>
      </trkpt>
      <trkpt lat="44.75987" lon="5.45215">
        <ele>1295.51</ele>
        <time>2018-11-18T09:09:20Z</time>
      </trkpt>
      <trkpt lat="44.75992" lon="5.45218">
        <ele>1294.07</ele>
        <time>2018-11-18T09:09:41Z</time>
      </trkpt>
      <trkpt lat="44.75987" lon="5.45216">
        <ele>1293.59</ele>
        <time>2018-11-18T09:10:05Z</time>
      </trkpt>
      <trkpt lat="44.75985" lon="5.45213">
        <ele>1293.11</ele>
        <time>2018-11-18T09:10:12Z</time>
      </trkpt>
      <trkpt lat="44.75984" lon="5.45207">
        <ele>1292.63</ele>
        <time>2018-11-18T09:10:29Z</time>
      </trkpt>
      <trkpt lat="44.75978" lon="5.45195">
        <ele>1291.19</ele>
        <time>2018-11-18T09:10:40Z</time>
      </trkpt>
      <trkpt lat="44.75976" lon="5.45192">
        <ele>1289.27</ele>
        <time>2018-11-18T09:10:44Z</time>
      </trkpt>
      <trkpt lat="44.75973" lon="5.45183">
        <ele>1285.9</ele>
        <time>2018-11-18T09:10:55Z</time>
      </trkpt>
      <trkpt lat="44.7597" lon="5.45173">
        <ele>1283.98</ele>
        <time>2018-11-18T09:11:07Z</time>
      </trkpt>
      <trkpt lat="44.7597" lon="5.45174">
        <ele>1283.98</ele>
        <time>2018-11-18T09:11:32Z</time>
      </trkpt>
      <trkpt lat="44.7597" lon="5.45172">
        <ele>1283.5</ele>
        <time>2018-11-18T09:12:06Z</time>
      </trkpt>
      <trkpt lat="44.75966" lon="5.45158">
        <ele>1281.09</ele>
        <time>2018-11-18T09:12:21Z</time>
      </trkpt>
      <trkpt lat="44.7596" lon="5.45143">
        <ele>1278.69</ele>
        <time>2018-11-18T09:12:36Z</time>
      </trkpt>
      <trkpt lat="44.75953" lon="5.45135">
        <ele>1279.65</ele>
        <time>2018-11-18T09:12:50Z</time>
      </trkpt>
      <trkpt lat="44.75947" lon="5.4513">
        <ele>1278.21</ele>
        <time>2018-11-18T09:13:07Z</time>
      </trkpt>
      <trkpt lat="44.75945" lon="5.45132">
        <ele>1277.25</ele>
        <time>2018-11-18T09:13:30Z</time>
      </trkpt>
      <trkpt lat="44.75943" lon="5.45135">
        <ele>1277.25</ele>
        <time>2018-11-18T09:13:51Z</time>
      </trkpt>
      <trkpt lat="44.75943" lon="5.45132">
        <ele>1277.25</ele>
        <time>2018-11-18T09:14:17Z</time>
      </trkpt>
      <trkpt lat="44.75946" lon="5.45133">
        <ele>1277.25</ele>
        <time>2018-11-18T09:14:50Z</time>
      </trkpt>
      <trkpt lat="44.75944" lon="5.45132">
        <ele>1277.25</ele>
        <time>2018-11-18T09:15:20Z</time>
      </trkpt>
      <trkpt lat="44.75945" lon="5.45138">
        <ele>1276.77</ele>
        <time>2018-11-18T09:15:47Z</time>
      </trkpt>
      <trkpt lat="44.75939" lon="5.45127">
        <ele>1275.81</ele>
        <time>2018-11-18T09:16:05Z</time>
      </trkpt>
      <trkpt lat="44.75933" lon="5.45122">
        <ele>1273.88</ele>
        <time>2018-11-18T09:16:18Z</time>
      </trkpt>
      <trkpt lat="44.75927" lon="5.45114">
        <ele>1270.52</ele>
        <time>2018-11-18T09:16:32Z</time>
      </trkpt>
      <trkpt lat="44.75917" lon="5.45109">
        <ele>1267.64</ele>
        <time>2018-11-18T09:16:49Z</time>
      </trkpt>
      <trkpt lat="44.75916" lon="5.45109">
        <ele>1267.64</ele>
        <time>2018-11-18T09:16:50Z</time>
      </trkpt>
      <trkpt lat="44.75908" lon="5.45099">
        <ele>1264.75</ele>
        <time>2018-11-18T09:17:03Z</time>
      </trkpt>
      <trkpt lat="44.75906" lon="5.45095">
        <ele>1263.31</ele>
        <time>2018-11-18T09:17:07Z</time>
      </trkpt>
      <trkpt lat="44.75904" lon="5.4509">
        <ele>1262.35</ele>
        <time>2018-11-18T09:17:10Z</time>
      </trkpt>
      <trkpt lat="44.75901" lon="5.45083">
        <ele>1258.98</ele>
        <time>2018-11-18T09:17:23Z</time>
      </trkpt>
      <trkpt lat="44.75904" lon="5.45081">
        <ele>1258.5</ele>
        <time>2018-11-18T09:17:45Z</time>
      </trkpt>
      <trkpt lat="44.75904" lon="5.45073">
        <ele>1255.62</ele>
        <time>2018-11-18T09:17:54Z</time>
      </trkpt>
      <trkpt lat="44.75903" lon="5.45068">
        <ele>1252.74</ele>
        <time>2018-11-18T09:18:06Z</time>
      </trkpt>
      <trkpt lat="44.75903" lon="5.45058">
        <ele>1249.37</ele>
        <time>2018-11-18T09:18:21Z</time>
      </trkpt>
      <trkpt lat="44.75904" lon="5.4505">
        <ele>1246.01</ele>
        <time>2018-11-18T09:18:34Z</time>
      </trkpt>
      <trkpt lat="44.75903" lon="5.45038">
        <ele>1242.64</ele>
        <time>2018-11-18T09:18:47Z</time>
      </trkpt>
      <trkpt lat="44.75902" lon="5.4503">
        <ele>1241.68</ele>
        <time>2018-11-18T09:19:05Z</time>
      </trkpt>
      <trkpt lat="44.75905" lon="5.45026">
        <ele>1238.32</ele>
        <time>2018-11-18T09:19:21Z</time>
      </trkpt>
      <trkpt lat="44.75905" lon="5.45026">
        <ele>1238.32</ele>
        <time>2018-11-18T09:19:22Z</time>
      </trkpt>
      <trkpt lat="44.75904" lon="5.45021">
        <ele>1234.95</ele>
        <time>2018-11-18T09:19:28Z</time>
      </trkpt>
      <trkpt lat="44.75904" lon="5.4502">
        <ele>1234.47</ele>
        <time>2018-11-18T09:19:29Z</time>
      </trkpt>
      <trkpt lat="44.75906" lon="5.45016">
        <ele>1231.59</ele>
        <time>2018-11-18T09:19:34Z</time>
      </trkpt>
      <trkpt lat="44.75906" lon="5.45013">
        <ele>1231.59</ele>
        <time>2018-11-18T09:19:38Z</time>
      </trkpt>
      <trkpt lat="44.75907" lon="5.45009">
        <ele>1230.62</ele>
        <time>2018-11-18T09:19:40Z</time>
      </trkpt>
      <trkpt lat="44.75906" lon="5.45005">
        <ele>1229.18</ele>
        <time>2018-11-18T09:19:43Z</time>
      </trkpt>
      <trkpt lat="44.75903" lon="5.44993">
        <ele>1225.82</ele>
        <time>2018-11-18T09:19:51Z</time>
      </trkpt>
      <trkpt lat="44.75903" lon="5.4499">
        <ele>1225.82</ele>
        <time>2018-11-18T09:19:52Z</time>
      </trkpt>
      <trkpt lat="44.75902" lon="5.44988">
        <ele>1224.86</ele>
        <time>2018-11-18T09:19:54Z</time>
      </trkpt>
      <trkpt lat="44.75899" lon="5.44981">
        <ele>1221.97</ele>
        <time>2018-11-18T09:20:01Z</time>
      </trkpt>
      <trkpt lat="44.75899" lon="5.44979">
        <ele>1221.49</ele>
        <time>2018-11-18T09:20:02Z</time>
      </trkpt>
      <trkpt lat="44.75898" lon="5.44974">
        <ele>1219.57</ele>
        <time>2018-11-18T09:20:05Z</time>
      </trkpt>
      <trkpt lat="44.75892" lon="5.44959">
        <ele>1215.72</ele>
        <time>2018-11-18T09:20:16Z</time>
      </trkpt>
      <trkpt lat="44.7589" lon="5.44953">
        <ele>1214.76</ele>
        <time>2018-11-18T09:20:21Z</time>
      </trkpt>
      <trkpt lat="44.75884" lon="5.44937">
        <ele>1210.92</ele>
        <time>2018-11-18T09:20:32Z</time>
      </trkpt>
      <trkpt lat="44.75878" lon="5.44922">
        <ele>1208.03</ele>
        <time>2018-11-18T09:20:44Z</time>
      </trkpt>
      <trkpt lat="44.75876" lon="5.44921">
        <ele>1207.55</ele>
        <time>2018-11-18T09:20:45Z</time>
      </trkpt>
      <trkpt lat="44.75873" lon="5.44918">
        <ele>1207.07</ele>
        <time>2018-11-18T09:20:48Z</time>
      </trkpt>
      <trkpt lat="44.75871" lon="5.44914">
        <ele>1206.59</ele>
        <time>2018-11-18T09:20:51Z</time>
      </trkpt>
      <trkpt lat="44.75862" lon="5.44905">
        <ele>1203.23</ele>
        <time>2018-11-18T09:21:05Z</time>
      </trkpt>
      <trkpt lat="44.75863" lon="5.44899">
        <ele>1201.79</ele>
        <time>2018-11-18T09:21:09Z</time>
      </trkpt>
      <trkpt lat="44.75853" lon="5.44887">
        <ele>1199.38</ele>
        <time>2018-11-18T09:21:23Z</time>
      </trkpt>
      <trkpt lat="44.75846" lon="5.4488">
        <ele>1196.02</ele>
        <time>2018-11-18T09:21:32Z</time>
      </trkpt>
      <trkpt lat="44.75837" lon="5.44865">
        <ele>1193.13</ele>
        <time>2018-11-18T09:21:43Z</time>
      </trkpt>
      <trkpt lat="44.75832" lon="5.44856">
        <ele>1189.29</ele>
        <time>2018-11-18T09:21:53Z</time>
      </trkpt>
      <trkpt lat="44.75827" lon="5.44843">
        <ele>1185.92</ele>
        <time>2018-11-18T09:22:01Z</time>
      </trkpt>
      <trkpt lat="44.75817" lon="5.44829">
        <ele>1182.56</ele>
        <time>2018-11-18T09:22:13Z</time>
      </trkpt>
      <trkpt lat="44.75811" lon="5.44813">
        <ele>1179.19</ele>
        <time>2018-11-18T09:22:23Z</time>
      </trkpt>
      <trkpt lat="44.75809" lon="5.44809">
        <ele>1178.23</ele>
        <time>2018-11-18T09:22:25Z</time>
      </trkpt>
      <trkpt lat="44.75807" lon="5.44807">
        <ele>1177.75</ele>
        <time>2018-11-18T09:22:27Z</time>
      </trkpt>
      <trkpt lat="44.75803" lon="5.44797">
        <ele>1174.39</ele>
        <time>2018-11-18T09:22:33Z</time>
      </trkpt>
      <trkpt lat="44.75797" lon="5.44786">
        <ele>1171.02</ele>
        <time>2018-11-18T09:22:40Z</time>
      </trkpt>
      <trkpt lat="44.75796" lon="5.44783">
        <ele>1170.06</ele>
        <time>2018-11-18T09:22:42Z</time>
      </trkpt>
      <trkpt lat="44.75794" lon="5.4478">
        <ele>1169.58</ele>
        <time>2018-11-18T09:22:44Z</time>
      </trkpt>
      <trkpt lat="44.7579" lon="5.44768">
        <ele>1166.22</ele>
        <time>2018-11-18T09:22:51Z</time>
      </trkpt>
      <trkpt lat="44.75785" lon="5.44758">
        <ele>1162.85</ele>
        <time>2018-11-18T09:23:00Z</time>
      </trkpt>
      <trkpt lat="44.75782" lon="5.44753">
        <ele>1161.89</ele>
        <time>2018-11-18T09:23:03Z</time>
      </trkpt>
      <trkpt lat="44.75789" lon="5.44747">
        <ele>1158.53</ele>
        <time>2018-11-18T09:23:14Z</time>
      </trkpt>
      <trkpt lat="44.75789" lon="5.44743">
        <ele>1157.56</ele>
        <time>2018-11-18T09:23:16Z</time>
      </trkpt>
      <trkpt lat="44.7579" lon="5.44739">
        <ele>1156.12</ele>
        <time>2018-11-18T09:23:19Z</time>
      </trkpt>
      <trkpt lat="44.75794" lon="5.44728">
        <ele>1153.24</ele>
        <time>2018-11-18T09:23:28Z</time>
      </trkpt>
      <trkpt lat="44.75796" lon="5.44725">
        <ele>1151.8</ele>
        <time>2018-11-18T09:23:33Z</time>
      </trkpt>
      <trkpt lat="44.75797" lon="5.44712">
        <ele>1147.95</ele>
        <time>2018-11-18T09:23:42Z</time>
      </trkpt>
      <trkpt lat="44.75796" lon="5.4471">
        <ele>1146.99</ele>
        <time>2018-11-18T09:23:46Z</time>
      </trkpt>
      <trkpt lat="44.75793" lon="5.44705">
        <ele>1146.51</ele>
        <time>2018-11-18T09:23:51Z</time>
      </trkpt>
      <trkpt lat="44.75787" lon="5.44691">
        <ele>1143.14</ele>
        <time>2018-11-18T09:24:05Z</time>
      </trkpt>
      <trkpt lat="44.75789" lon="5.44688">
        <ele>1143.14</ele>
        <time>2018-11-18T09:24:12Z</time>
      </trkpt>
      <trkpt lat="44.7579" lon="5.44674">
        <ele>1140.74</ele>
        <time>2018-11-18T09:24:25Z</time>
      </trkpt>
      <trkpt lat="44.7579" lon="5.44657">
        <ele>1139.78</ele>
        <time>2018-11-18T09:24:34Z</time>
      </trkpt>
      <trkpt lat="44.75791" lon="5.44651">
        <ele>1139.78</ele>
        <time>2018-11-18T09:24:37Z</time>
      </trkpt>
      <trkpt lat="44.75794" lon="5.44645">
        <ele>1139.78</ele>
        <time>2018-11-18T09:24:41Z</time>
      </trkpt>
      <trkpt lat="44.75795" lon="5.44628">
        <ele>1139.78</ele>
        <time>2018-11-18T09:24:59Z</time>
      </trkpt>
      <trkpt lat="44.75797" lon="5.4463">
        <ele>1139.78</ele>
        <time>2018-11-18T09:25:19Z</time>
      </trkpt>
      <trkpt lat="44.75798" lon="5.44629">
        <ele>1139.78</ele>
        <time>2018-11-18T09:25:44Z</time>
      </trkpt>
      <trkpt lat="44.75796" lon="5.44629">
        <ele>1139.78</ele>
        <time>2018-11-18T09:26:10Z</time>
      </trkpt>
      <trkpt lat="44.75796" lon="5.44628">
        <ele>1139.78</ele>
        <time>2018-11-18T09:26:29Z</time>
      </trkpt>
      <trkpt lat="44.75795" lon="5.4463">
        <ele>1139.78</ele>
        <time>2018-11-18T09:26:53Z</time>
      </trkpt>
      <trkpt lat="44.75793" lon="5.44631">
        <ele>1139.78</ele>
        <time>2018-11-18T09:27:30Z</time>
      </trkpt>
      <trkpt lat="44.75797" lon="5.44634">
        <ele>1139.78</ele>
        <time>2018-11-18T09:27:56Z</time>
      </trkpt>
      <trkpt lat="44.75796" lon="5.44635">
        <ele>1139.3</ele>
        <time>2018-11-18T09:28:19Z</time>
      </trkpt>
      <trkpt lat="44.75794" lon="5.44636">
        <ele>1139.3</ele>
        <time>2018-11-18T09:28:44Z</time>
      </trkpt>
      <trkpt lat="44.75796" lon="5.4464">
        <ele>1139.3</ele>
        <time>2018-11-18T09:29:14Z</time>
      </trkpt>
      <trkpt lat="44.75798" lon="5.44637">
        <ele>1138.82</ele>
        <time>2018-11-18T09:29:37Z</time>
      </trkpt>
      <trkpt lat="44.75799" lon="5.44641">
        <ele>1138.34</ele>
        <time>2018-11-18T09:30:16Z</time>
      </trkpt>
      <trkpt lat="44.75798" lon="5.44635">
        <ele>1138.34</ele>
        <time>2018-11-18T09:30:56Z</time>
      </trkpt>
      <trkpt lat="44.758" lon="5.44636">
        <ele>1138.34</ele>
        <time>2018-11-18T09:31:38Z</time>
      </trkpt>
      <trkpt lat="44.75798" lon="5.44642">
        <ele>1137.86</ele>
        <time>2018-11-18T09:32:04Z</time>
      </trkpt>
      <trkpt lat="44.75797" lon="5.44631">
        <ele>1137.86</ele>
        <time>2018-11-18T09:32:37Z</time>
      </trkpt>
      <trkpt lat="44.75796" lon="5.44631">
        <ele>1137.86</ele>
        <time>2018-11-18T09:33:23Z</time>
      </trkpt>
      <trkpt lat="44.75797" lon="5.44629">
        <ele>1137.86</ele>
        <time>2018-11-18T09:34:02Z</time>
      </trkpt>
      <trkpt lat="44.75797" lon="5.44627">
        <ele>1137.86</ele>
        <time>2018-11-18T09:34:39Z</time>
      </trkpt>
      <trkpt lat="44.75796" lon="5.44629">
        <ele>1140.26</ele>
        <time>2018-11-18T09:34:57Z</time>
      </trkpt>
      <trkpt lat="44.75795" lon="5.44629">
        <ele>1137.86</ele>
        <time>2018-11-18T09:35:01Z</time>
      </trkpt>
      <trkpt lat="44.75796" lon="5.44629">
        <ele>1137.38</ele>
        <time>2018-11-18T09:35:32Z</time>
      </trkpt>
      <trkpt lat="44.75796" lon="5.44629">
        <ele>1137.38</ele>
        <time>2018-11-18T09:36:00Z</time>
      </trkpt>
      <trkpt lat="44.75796" lon="5.44632">
        <ele>1137.38</ele>
        <time>2018-11-18T09:36:13Z</time>
      </trkpt>
      <trkpt lat="44.75797" lon="5.4463">
        <ele>1137.38</ele>
        <time>2018-11-18T09:36:35Z</time>
      </trkpt>
      <trkpt lat="44.75796" lon="5.44629">
        <ele>1138.82</ele>
        <time>2018-11-18T09:36:46Z</time>
      </trkpt>
      <trkpt lat="44.75796" lon="5.44633">
        <ele>1138.82</ele>
        <time>2018-11-18T09:37:09Z</time>
      </trkpt>
      <trkpt lat="44.75797" lon="5.44627">
        <ele>1137.86</ele>
        <time>2018-11-18T09:37:28Z</time>
      </trkpt>
      <trkpt lat="44.75799" lon="5.44609">
        <ele>1134.49</ele>
        <time>2018-11-18T09:37:41Z</time>
      </trkpt>
      <trkpt lat="44.75802" lon="5.44596">
        <ele>1131.13</ele>
        <time>2018-11-18T09:37:57Z</time>
      </trkpt>
      <trkpt lat="44.75807" lon="5.44588">
        <ele>1128.24</ele>
        <time>2018-11-18T09:38:11Z</time>
      </trkpt>
      <trkpt lat="44.75814" lon="5.44582">
        <ele>1124.88</ele>
        <time>2018-11-18T09:38:25Z</time>
      </trkpt>
      <trkpt lat="44.75822" lon="5.44577">
        <ele>1123.92</ele>
        <time>2018-11-18T09:38:33Z</time>
      </trkpt>
      <trkpt lat="44.75827" lon="5.44577">
        <ele>1123.92</ele>
        <time>2018-11-18T09:38:37Z</time>
      </trkpt>
      <trkpt lat="44.75837" lon="5.44579">
        <ele>1122.48</ele>
        <time>2018-11-18T09:38:47Z</time>
      </trkpt>
      <trkpt lat="44.7584" lon="5.44587">
        <ele>1120.07</ele>
        <time>2018-11-18T09:38:52Z</time>
      </trkpt>
      <trkpt lat="44.75844" lon="5.44596">
        <ele>1117.67</ele>
        <time>2018-11-18T09:39:05Z</time>
      </trkpt>
      <trkpt lat="44.75844" lon="5.44597">
        <ele>1117.19</ele>
        <time>2018-11-18T09:39:06Z</time>
      </trkpt>
      <trkpt lat="44.75846" lon="5.44599">
        <ele>1116.23</ele>
        <time>2018-11-18T09:39:08Z</time>
      </trkpt>
      <trkpt lat="44.75851" lon="5.44598">
        <ele>1113.34</ele>
        <time>2018-11-18T09:39:16Z</time>
      </trkpt>
      <trkpt lat="44.75855" lon="5.44605">
        <ele>1109.98</ele>
        <time>2018-11-18T09:39:24Z</time>
      </trkpt>
      <trkpt lat="44.75863" lon="5.44607">
        <ele>1106.61</ele>
        <time>2018-11-18T09:39:33Z</time>
      </trkpt>
      <trkpt lat="44.75862" lon="5.44608">
        <ele>1105.17</ele>
        <time>2018-11-18T09:39:37Z</time>
      </trkpt>
      <trkpt lat="44.75868" lon="5.44609">
        <ele>1101.81</ele>
        <time>2018-11-18T09:39:44Z</time>
      </trkpt>
      <trkpt lat="44.75878" lon="5.44615">
        <ele>1098.44</ele>
        <time>2018-11-18T09:39:56Z</time>
      </trkpt>
      <trkpt lat="44.75887" lon="5.44621">
        <ele>1096.52</ele>
        <time>2018-11-18T09:40:04Z</time>
      </trkpt>
      <trkpt lat="44.75895" lon="5.44625">
        <ele>1093.64</ele>
        <time>2018-11-18T09:40:13Z</time>
      </trkpt>
      <trkpt lat="44.75912" lon="5.44625">
        <ele>1090.75</ele>
        <time>2018-11-18T09:40:23Z</time>
      </trkpt>
      <trkpt lat="44.75926" lon="5.44631">
        <ele>1087.39</ele>
        <time>2018-11-18T09:40:36Z</time>
      </trkpt>
      <trkpt lat="44.75934" lon="5.44635">
        <ele>1084.5</ele>
        <time>2018-11-18T09:40:45Z</time>
      </trkpt>
      <trkpt lat="44.75935" lon="5.44636">
        <ele>1084.02</ele>
        <time>2018-11-18T09:40:46Z</time>
      </trkpt>
      <trkpt lat="44.75938" lon="5.44637">
        <ele>1083.06</ele>
        <time>2018-11-18T09:40:49Z</time>
      </trkpt>
      <trkpt lat="44.75947" lon="5.44644">
        <ele>1079.7</ele>
        <time>2018-11-18T09:41:00Z</time>
      </trkpt>
      <trkpt lat="44.75957" lon="5.44647">
        <ele>1076.33</ele>
        <time>2018-11-18T09:41:11Z</time>
      </trkpt>
      <trkpt lat="44.75961" lon="5.44649">
        <ele>1073.45</ele>
        <time>2018-11-18T09:41:25Z</time>
      </trkpt>
      <trkpt lat="44.75964" lon="5.4465">
        <ele>1072.97</ele>
        <time>2018-11-18T09:41:28Z</time>
      </trkpt>
      <trkpt lat="44.75968" lon="5.44651">
        <ele>1071.53</ele>
        <time>2018-11-18T09:41:33Z</time>
      </trkpt>
      <trkpt lat="44.75984" lon="5.44657">
        <ele>1067.68</ele>
        <time>2018-11-18T09:41:44Z</time>
      </trkpt>
      <trkpt lat="44.76004" lon="5.44666">
        <ele>1064.32</ele>
        <time>2018-11-18T09:41:58Z</time>
      </trkpt>
      <trkpt lat="44.76026" lon="5.44676">
        <ele>1062.87</ele>
        <time>2018-11-18T09:42:13Z</time>
      </trkpt>
      <trkpt lat="44.76033" lon="5.44691">
        <ele>1059.51</ele>
        <time>2018-11-18T09:42:25Z</time>
      </trkpt>
      <trkpt lat="44.7604" lon="5.44697">
        <ele>1059.03</ele>
        <time>2018-11-18T09:42:39Z</time>
      </trkpt>
      <trkpt lat="44.76057" lon="5.44705">
        <ele>1056.15</ele>
        <time>2018-11-18T09:42:54Z</time>
      </trkpt>
      <trkpt lat="44.76079" lon="5.44702">
        <ele>1055.67</ele>
        <time>2018-11-18T09:43:06Z</time>
      </trkpt>
      <trkpt lat="44.7609" lon="5.44699">
        <ele>1055.67</ele>
        <time>2018-11-18T09:43:15Z</time>
      </trkpt>
      <trkpt lat="44.76096" lon="5.44704">
        <ele>1055.18</ele>
        <time>2018-11-18T09:43:20Z</time>
      </trkpt>
      <trkpt lat="44.76118" lon="5.44703">
        <ele>1054.7</ele>
        <time>2018-11-18T09:43:37Z</time>
      </trkpt>
      <trkpt lat="44.76134" lon="5.44688">
        <ele>1054.7</ele>
        <time>2018-11-18T09:43:53Z</time>
      </trkpt>
      <trkpt lat="44.76138" lon="5.44682">
        <ele>1056.15</ele>
        <time>2018-11-18T09:43:58Z</time>
      </trkpt>
      <trkpt lat="44.76145" lon="5.44662">
        <ele>1058.55</ele>
        <time>2018-11-18T09:44:14Z</time>
      </trkpt>
      <trkpt lat="44.76149" lon="5.44647">
        <ele>1061.43</ele>
        <time>2018-11-18T09:44:28Z</time>
      </trkpt>
      <trkpt lat="44.76154" lon="5.44632">
        <ele>1063.36</ele>
        <time>2018-11-18T09:44:41Z</time>
      </trkpt>
      <trkpt lat="44.76155" lon="5.44627">
        <ele>1063.84</ele>
        <time>2018-11-18T09:44:44Z</time>
      </trkpt>
      <trkpt lat="44.76162" lon="5.44609">
        <ele>1065.76</ele>
        <time>2018-11-18T09:44:58Z</time>
      </trkpt>
      <trkpt lat="44.76164" lon="5.44605">
        <ele>1065.76</ele>
        <time>2018-11-18T09:45:02Z</time>
      </trkpt>
      <trkpt lat="44.76169" lon="5.44602">
        <ele>1065.76</ele>
        <time>2018-11-18T09:45:06Z</time>
      </trkpt>
      <trkpt lat="44.76171" lon="5.446">
        <ele>1065.76</ele>
        <time>2018-11-18T09:45:09Z</time>
      </trkpt>
      <trkpt lat="44.7619" lon="5.44599">
        <ele>1066.24</ele>
        <time>2018-11-18T09:45:25Z</time>
      </trkpt>
      <trkpt lat="44.762" lon="5.44596">
        <ele>1066.24</ele>
        <time>2018-11-18T09:45:34Z</time>
      </trkpt>
      <trkpt lat="44.76223" lon="5.44589">
        <ele>1066.72</ele>
        <time>2018-11-18T09:45:51Z</time>
      </trkpt>
      <trkpt lat="44.76233" lon="5.44576">
        <ele>1066.72</ele>
        <time>2018-11-18T09:46:02Z</time>
      </trkpt>
      <trkpt lat="44.76245" lon="5.44567">
        <ele>1066.72</ele>
        <time>2018-11-18T09:46:13Z</time>
      </trkpt>
      <trkpt lat="44.76248" lon="5.44564">
        <ele>1067.68</ele>
        <time>2018-11-18T09:46:16Z</time>
      </trkpt>
      <trkpt lat="44.76264" lon="5.44542">
        <ele>1067.68</ele>
        <time>2018-11-18T09:46:33Z</time>
      </trkpt>
      <trkpt lat="44.76265" lon="5.44541">
        <ele>1068.16</ele>
        <time>2018-11-18T09:46:34Z</time>
      </trkpt>
      <trkpt lat="44.76278" lon="5.44531">
        <ele>1069.12</ele>
        <time>2018-11-18T09:46:47Z</time>
      </trkpt>
      <trkpt lat="44.76293" lon="5.44523">
        <ele>1069.12</ele>
        <time>2018-11-18T09:47:00Z</time>
      </trkpt>
      <trkpt lat="44.76307" lon="5.44533">
        <ele>1067.68</ele>
        <time>2018-11-18T09:47:16Z</time>
      </trkpt>
      <trkpt lat="44.76314" lon="5.44541">
        <ele>1064.32</ele>
        <time>2018-11-18T09:47:27Z</time>
      </trkpt>
      <trkpt lat="44.76322" lon="5.44551">
        <ele>1060.95</ele>
        <time>2018-11-18T09:47:38Z</time>
      </trkpt>
      <trkpt lat="44.7633" lon="5.44557">
        <ele>1056.63</ele>
        <time>2018-11-18T09:47:45Z</time>
      </trkpt>
      <trkpt lat="44.76332" lon="5.44558">
        <ele>1059.51</ele>
        <time>2018-11-18T09:47:47Z</time>
      </trkpt>
      <trkpt lat="44.76343" lon="5.44566">
        <ele>1054.7</ele>
        <time>2018-11-18T09:47:58Z</time>
      </trkpt>
      <trkpt lat="44.76353" lon="5.44573">
        <ele>1051.82</ele>
        <time>2018-11-18T09:48:09Z</time>
      </trkpt>
      <trkpt lat="44.76363" lon="5.44579">
        <ele>1048.45</ele>
        <time>2018-11-18T09:48:21Z</time>
      </trkpt>
      <trkpt lat="44.76376" lon="5.44588">
        <ele>1045.09</ele>
        <time>2018-11-18T09:48:37Z</time>
      </trkpt>
      <trkpt lat="44.76386" lon="5.44592">
        <ele>1042.69</ele>
        <time>2018-11-18T09:48:47Z</time>
      </trkpt>
      <trkpt lat="44.76412" lon="5.44599">
        <ele>1041.25</ele>
        <time>2018-11-18T09:49:07Z</time>
      </trkpt>
      <trkpt lat="44.76411" lon="5.44606">
        <ele>1039.32</ele>
        <time>2018-11-18T09:49:17Z</time>
      </trkpt>
      <trkpt lat="44.76407" lon="5.44611">
        <ele>1036.92</ele>
        <time>2018-11-18T09:49:22Z</time>
      </trkpt>
      <trkpt lat="44.76406" lon="5.44612">
        <ele>1036.92</ele>
        <time>2018-11-18T09:49:23Z</time>
      </trkpt>
      <trkpt lat="44.76405" lon="5.44619">
        <ele>1035.96</ele>
        <time>2018-11-18T09:49:27Z</time>
      </trkpt>
      <trkpt lat="44.76402" lon="5.44625">
        <ele>1035.48</ele>
        <time>2018-11-18T09:49:31Z</time>
      </trkpt>
      <trkpt lat="44.76402" lon="5.44643">
        <ele>1035.48</ele>
        <time>2018-11-18T09:49:42Z</time>
      </trkpt>
      <trkpt lat="44.76407" lon="5.4466">
        <ele>1035.48</ele>
        <time>2018-11-18T09:49:54Z</time>
      </trkpt>
      <trkpt lat="44.7641" lon="5.44676">
        <ele>1034.04</ele>
        <time>2018-11-18T09:50:10Z</time>
      </trkpt>
      <trkpt lat="44.76408" lon="5.44669">
        <ele>1035</ele>
        <time>2018-11-18T09:50:16Z</time>
      </trkpt>
      <trkpt lat="44.76408" lon="5.44671">
        <ele>1035</ele>
        <time>2018-11-18T09:50:41Z</time>
      </trkpt>
      <trkpt lat="44.76419" lon="5.44673">
        <ele>1035.48</ele>
        <time>2018-11-18T09:50:56Z</time>
      </trkpt>
      <trkpt lat="44.76425" lon="5.44669">
        <ele>1035.96</ele>
        <time>2018-11-18T09:51:00Z</time>
      </trkpt>
      <trkpt lat="44.76428" lon="5.44658">
        <ele>1035.96</ele>
        <time>2018-11-18T09:51:07Z</time>
      </trkpt>
      <trkpt lat="44.76434" lon="5.44654">
        <ele>1035.48</ele>
        <time>2018-11-18T09:51:13Z</time>
      </trkpt>
      <trkpt lat="44.7644" lon="5.44642">
        <ele>1037.4</ele>
        <time>2018-11-18T09:51:27Z</time>
      </trkpt>
      <trkpt lat="44.76442" lon="5.44639">
        <ele>1038.36</ele>
        <time>2018-11-18T09:51:29Z</time>
      </trkpt>
      <trkpt lat="44.76452" lon="5.44636">
        <ele>1038.36</ele>
        <time>2018-11-18T09:51:39Z</time>
      </trkpt>
      <trkpt lat="44.76455" lon="5.44633">
        <ele>1038.36</ele>
        <time>2018-11-18T09:51:41Z</time>
      </trkpt>
      <trkpt lat="44.76468" lon="5.4461">
        <ele>1040.28</ele>
        <time>2018-11-18T09:52:00Z</time>
      </trkpt>
      <trkpt lat="44.76472" lon="5.44595">
        <ele>1040.76</ele>
        <time>2018-11-18T09:52:14Z</time>
      </trkpt>
      <trkpt lat="44.7647" lon="5.44592">
        <ele>1041.25</ele>
        <time>2018-11-18T09:52:19Z</time>
      </trkpt>
      <trkpt lat="44.76469" lon="5.4459">
        <ele>1041.25</ele>
        <time>2018-11-18T09:52:21Z</time>
      </trkpt>
      <trkpt lat="44.76462" lon="5.4458">
        <ele>1041.73</ele>
        <time>2018-11-18T09:52:37Z</time>
      </trkpt>
      <trkpt lat="44.76463" lon="5.4458">
        <ele>1041.73</ele>
        <time>2018-11-18T09:53:04Z</time>
      </trkpt>
      <trkpt lat="44.76469" lon="5.44572">
        <ele>1041.73</ele>
        <time>2018-11-18T09:53:13Z</time>
      </trkpt>
      <trkpt lat="44.76478" lon="5.4456">
        <ele>1042.21</ele>
        <time>2018-11-18T09:53:23Z</time>
      </trkpt>
      <trkpt lat="44.7648" lon="5.44553">
        <ele>1042.69</ele>
        <time>2018-11-18T09:53:28Z</time>
      </trkpt>
      <trkpt lat="44.76474" lon="5.4454">
        <ele>1042.69</ele>
        <time>2018-11-18T09:53:38Z</time>
      </trkpt>
      <trkpt lat="44.76466" lon="5.44533">
        <ele>1042.69</ele>
        <time>2018-11-18T09:53:45Z</time>
      </trkpt>
      <trkpt lat="44.76467" lon="5.44524">
        <ele>1042.69</ele>
        <time>2018-11-18T09:53:50Z</time>
      </trkpt>
      <trkpt lat="44.76473" lon="5.44492">
        <ele>1043.65</ele>
        <time>2018-11-18T09:54:09Z</time>
      </trkpt>
      <trkpt lat="44.76481" lon="5.44465">
        <ele>1044.61</ele>
        <time>2018-11-18T09:54:26Z</time>
      </trkpt>
      <trkpt lat="44.76488" lon="5.44449">
        <ele>1046.05</ele>
        <time>2018-11-18T09:54:38Z</time>
      </trkpt>
      <trkpt lat="44.76496" lon="5.44433">
        <ele>1046.05</ele>
        <time>2018-11-18T09:54:50Z</time>
      </trkpt>
      <trkpt lat="44.76512" lon="5.44408">
        <ele>1047.49</ele>
        <time>2018-11-18T09:55:09Z</time>
      </trkpt>
      <trkpt lat="44.76519" lon="5.44384">
        <ele>1048.45</ele>
        <time>2018-11-18T09:55:25Z</time>
      </trkpt>
      <trkpt lat="44.76532" lon="5.44375">
        <ele>1049.42</ele>
        <time>2018-11-18T09:55:39Z</time>
      </trkpt>
      <trkpt lat="44.76555" lon="5.44375">
        <ele>1051.34</ele>
        <time>2018-11-18T09:56:00Z</time>
      </trkpt>
      <trkpt lat="44.76556" lon="5.44376">
        <ele>1051.34</ele>
        <time>2018-11-18T09:56:01Z</time>
      </trkpt>
      <trkpt lat="44.76571" lon="5.44383">
        <ele>1052.3</ele>
        <time>2018-11-18T09:56:17Z</time>
      </trkpt>
      <trkpt lat="44.76575" lon="5.44386">
        <ele>1052.3</ele>
        <time>2018-11-18T09:56:21Z</time>
      </trkpt>
      <trkpt lat="44.76584" lon="5.44389">
        <ele>1053.26</ele>
        <time>2018-11-18T09:56:28Z</time>
      </trkpt>
      <trkpt lat="44.7661" lon="5.44396">
        <ele>1053.74</ele>
        <time>2018-11-18T09:56:47Z</time>
      </trkpt>
      <trkpt lat="44.76637" lon="5.44409">
        <ele>1055.67</ele>
        <time>2018-11-18T09:57:09Z</time>
      </trkpt>
      <trkpt lat="44.76653" lon="5.44416">
        <ele>1056.63</ele>
        <time>2018-11-18T09:57:25Z</time>
      </trkpt>
      <trkpt lat="44.76677" lon="5.44427">
        <ele>1057.59</ele>
        <time>2018-11-18T09:57:43Z</time>
      </trkpt>
      <trkpt lat="44.76692" lon="5.44442">
        <ele>1059.03</ele>
        <time>2018-11-18T09:58:01Z</time>
      </trkpt>
      <trkpt lat="44.76705" lon="5.44461">
        <ele>1059.51</ele>
        <time>2018-11-18T09:58:17Z</time>
      </trkpt>
      <trkpt lat="44.7671" lon="5.44474">
        <ele>1059.99</ele>
        <time>2018-11-18T09:58:26Z</time>
      </trkpt>
      <trkpt lat="44.76721" lon="5.44485">
        <ele>1061.43</ele>
        <time>2018-11-18T09:58:42Z</time>
      </trkpt>
      <trkpt lat="44.76745" lon="5.44479">
        <ele>1062.39</ele>
        <time>2018-11-18T09:59:01Z</time>
      </trkpt>
      <trkpt lat="44.76762" lon="5.44467">
        <ele>1063.84</ele>
        <time>2018-11-18T09:59:17Z</time>
      </trkpt>
      <trkpt lat="44.76772" lon="5.44464">
        <ele>1064.32</ele>
        <time>2018-11-18T09:59:25Z</time>
      </trkpt>
      <trkpt lat="44.76793" lon="5.44462">
        <ele>1065.28</ele>
        <time>2018-11-18T09:59:43Z</time>
      </trkpt>
      <trkpt lat="44.7681" lon="5.44463">
        <ele>1066.24</ele>
        <time>2018-11-18T09:59:59Z</time>
      </trkpt>
      <trkpt lat="44.76823" lon="5.44461">
        <ele>1066.72</ele>
        <time>2018-11-18T10:00:15Z</time>
      </trkpt>
      <trkpt lat="44.76842" lon="5.44468">
        <ele>1067.68</ele>
        <time>2018-11-18T10:00:34Z</time>
      </trkpt>
      <trkpt lat="44.76861" lon="5.44477">
        <ele>1068.64</ele>
        <time>2018-11-18T10:00:50Z</time>
      </trkpt>
      <trkpt lat="44.76863" lon="5.44478">
        <ele>1068.64</ele>
        <time>2018-11-18T10:00:53Z</time>
      </trkpt>
      <trkpt lat="44.76877" lon="5.44491">
        <ele>1070.08</ele>
        <time>2018-11-18T10:01:10Z</time>
      </trkpt>
      <trkpt lat="44.76894" lon="5.44511">
        <ele>1071.05</ele>
        <time>2018-11-18T10:01:29Z</time>
      </trkpt>
      <trkpt lat="44.76916" lon="5.4452">
        <ele>1072.49</ele>
        <time>2018-11-18T10:01:47Z</time>
      </trkpt>
      <trkpt lat="44.76917" lon="5.44521">
        <ele>1072.49</ele>
        <time>2018-11-18T10:01:48Z</time>
      </trkpt>
      <trkpt lat="44.76931" lon="5.4454">
        <ele>1072.97</ele>
        <time>2018-11-18T10:02:06Z</time>
      </trkpt>
      <trkpt lat="44.76941" lon="5.44556">
        <ele>1073.93</ele>
        <time>2018-11-18T10:02:21Z</time>
      </trkpt>
      <trkpt lat="44.76943" lon="5.44559">
        <ele>1074.41</ele>
        <time>2018-11-18T10:02:23Z</time>
      </trkpt>
      <trkpt lat="44.76953" lon="5.44581">
        <ele>1074.89</ele>
        <time>2018-11-18T10:02:40Z</time>
      </trkpt>
      <trkpt lat="44.7695" lon="5.44567">
        <ele>1075.85</ele>
        <time>2018-11-18T10:02:50Z</time>
      </trkpt>
      <trkpt lat="44.76946" lon="5.44562">
        <ele>1076.33</ele>
        <time>2018-11-18T10:02:58Z</time>
      </trkpt>
      <trkpt lat="44.7693" lon="5.44548">
        <ele>1077.78</ele>
        <time>2018-11-18T10:03:13Z</time>
      </trkpt>
      <trkpt lat="44.76913" lon="5.44545">
        <ele>1078.74</ele>
        <time>2018-11-18T10:03:27Z</time>
      </trkpt>
      <trkpt lat="44.76905" lon="5.44542">
        <ele>1079.22</ele>
        <time>2018-11-18T10:03:34Z</time>
      </trkpt>
      <trkpt lat="44.76885" lon="5.44525">
        <ele>1080.18</ele>
        <time>2018-11-18T10:03:51Z</time>
      </trkpt>
      <trkpt lat="44.76869" lon="5.44513">
        <ele>1081.14</ele>
        <time>2018-11-18T10:04:09Z</time>
      </trkpt>
      <trkpt lat="44.76847" lon="5.44501">
        <ele>1082.58</ele>
        <time>2018-11-18T10:04:26Z</time>
      </trkpt>
      <trkpt lat="44.76829" lon="5.44496">
        <ele>1083.54</ele>
        <time>2018-11-18T10:04:42Z</time>
      </trkpt>
      <trkpt lat="44.76813" lon="5.44495">
        <ele>1084.5</ele>
        <time>2018-11-18T10:04:57Z</time>
      </trkpt>
      <trkpt lat="44.76813" lon="5.44499">
        <ele>1085.47</ele>
        <time>2018-11-18T10:05:10Z</time>
      </trkpt>
      <trkpt lat="44.76831" lon="5.44501">
        <ele>1086.43</ele>
        <time>2018-11-18T10:05:26Z</time>
      </trkpt>
      <trkpt lat="44.76855" lon="5.44512">
        <ele>1087.87</ele>
        <time>2018-11-18T10:05:44Z</time>
      </trkpt>
      <trkpt lat="44.7687" lon="5.44529">
        <ele>1088.83</ele>
        <time>2018-11-18T10:06:00Z</time>
      </trkpt>
      <trkpt lat="44.76888" lon="5.44548">
        <ele>1090.75</ele>
        <time>2018-11-18T10:06:17Z</time>
      </trkpt>
      <trkpt lat="44.76893" lon="5.44556">
        <ele>1090.75</ele>
        <time>2018-11-18T10:06:23Z</time>
      </trkpt>
      <trkpt lat="44.76904" lon="5.44562">
        <ele>1091.71</ele>
        <time>2018-11-18T10:06:32Z</time>
      </trkpt>
      <trkpt lat="44.76906" lon="5.44562">
        <ele>1091.71</ele>
        <time>2018-11-18T10:06:33Z</time>
      </trkpt>
      <trkpt lat="44.76926" lon="5.44578">
        <ele>1092.68</ele>
        <time>2018-11-18T10:06:49Z</time>
      </trkpt>
      <trkpt lat="44.76929" lon="5.44583">
        <ele>1093.16</ele>
        <time>2018-11-18T10:06:53Z</time>
      </trkpt>
      <trkpt lat="44.76931" lon="5.44586">
        <ele>1093.16</ele>
        <time>2018-11-18T10:06:55Z</time>
      </trkpt>
      <trkpt lat="44.7694" lon="5.44615">
        <ele>1094.6</ele>
        <time>2018-11-18T10:07:10Z</time>
      </trkpt>
      <trkpt lat="44.76946" lon="5.44625">
        <ele>1094.6</ele>
        <time>2018-11-18T10:07:17Z</time>
      </trkpt>
      <trkpt lat="44.7696" lon="5.44638">
        <ele>1095.56</ele>
        <time>2018-11-18T10:07:35Z</time>
      </trkpt>
      <trkpt lat="44.76974" lon="5.44623">
        <ele>1097.48</ele>
        <time>2018-11-18T10:07:51Z</time>
      </trkpt>
      <trkpt lat="44.76993" lon="5.44621">
        <ele>1098.44</ele>
        <time>2018-11-18T10:08:07Z</time>
      </trkpt>
      <trkpt lat="44.77003" lon="5.44617">
        <ele>1098.92</ele>
        <time>2018-11-18T10:08:14Z</time>
      </trkpt>
      <trkpt lat="44.77011" lon="5.44602">
        <ele>1099.4</ele>
        <time>2018-11-18T10:08:24Z</time>
      </trkpt>
      <trkpt lat="44.77012" lon="5.44599">
        <ele>1099.89</ele>
        <time>2018-11-18T10:08:26Z</time>
      </trkpt>
      <trkpt lat="44.77022" lon="5.44576">
        <ele>1100.85</ele>
        <time>2018-11-18T10:08:41Z</time>
      </trkpt>
      <trkpt lat="44.77031" lon="5.4455">
        <ele>1102.29</ele>
        <time>2018-11-18T10:08:57Z</time>
      </trkpt>
      <trkpt lat="44.77046" lon="5.4453">
        <ele>1103.73</ele>
        <time>2018-11-18T10:09:15Z</time>
      </trkpt>
      <trkpt lat="44.77049" lon="5.44526">
        <ele>1103.73</ele>
        <time>2018-11-18T10:09:32Z</time>
      </trkpt>
      <trkpt lat="44.77059" lon="5.44517">
        <ele>1104.69</ele>
        <time>2018-11-18T10:09:48Z</time>
      </trkpt>
      <trkpt lat="44.77065" lon="5.44503">
        <ele>1105.17</ele>
        <time>2018-11-18T10:09:56Z</time>
      </trkpt>
      <trkpt lat="44.77067" lon="5.44495">
        <ele>1105.65</ele>
        <time>2018-11-18T10:10:00Z</time>
      </trkpt>
      <trkpt lat="44.77076" lon="5.44474">
        <ele>1106.61</ele>
        <time>2018-11-18T10:10:16Z</time>
      </trkpt>
      <trkpt lat="44.7709" lon="5.44469">
        <ele>1108.06</ele>
        <time>2018-11-18T10:10:30Z</time>
      </trkpt>
      <trkpt lat="44.77108" lon="5.44472">
        <ele>1108.54</ele>
        <time>2018-11-18T10:10:49Z</time>
      </trkpt>
      <trkpt lat="44.7711" lon="5.44472">
        <ele>1109.02</ele>
        <time>2018-11-18T10:11:14Z</time>
      </trkpt>
      <trkpt lat="44.7711" lon="5.44474">
        <ele>1109.02</ele>
        <time>2018-11-18T10:11:38Z</time>
      </trkpt>
      <trkpt lat="44.7711" lon="5.44473">
        <ele>1109.02</ele>
        <time>2018-11-18T10:12:12Z</time>
      </trkpt>
      <trkpt lat="44.7711" lon="5.44471">
        <ele>1109.02</ele>
        <time>2018-11-18T10:12:47Z</time>
      </trkpt>
      <trkpt lat="44.77112" lon="5.44466">
        <ele>1109.5</ele>
        <time>2018-11-18T10:13:14Z</time>
      </trkpt>
      <trkpt lat="44.77111" lon="5.4447">
        <ele>1109.98</ele>
        <time>2018-11-18T10:13:31Z</time>
      </trkpt>
      <trkpt lat="44.77113" lon="5.44469">
        <ele>1109.98</ele>
        <time>2018-11-18T10:13:54Z</time>
      </trkpt>
      <trkpt lat="44.77115" lon="5.44471">
        <ele>1109.98</ele>
        <time>2018-11-18T10:14:05Z</time>
      </trkpt>
      <trkpt lat="44.7713" lon="5.44488">
        <ele>1111.42</ele>
        <time>2018-11-18T10:14:21Z</time>
      </trkpt>
      <trkpt lat="44.77131" lon="5.4449">
        <ele>1111.9</ele>
        <time>2018-11-18T10:14:22Z</time>
      </trkpt>
      <trkpt lat="44.77134" lon="5.44496">
        <ele>1111.9</ele>
        <time>2018-11-18T10:14:26Z</time>
      </trkpt>
      <trkpt lat="44.77151" lon="5.44522">
        <ele>1113.34</ele>
        <time>2018-11-18T10:14:44Z</time>
      </trkpt>
      <trkpt lat="44.77162" lon="5.44532">
        <ele>1114.31</ele>
        <time>2018-11-18T10:14:56Z</time>
      </trkpt>
      <trkpt lat="44.77176" lon="5.44557">
        <ele>1115.27</ele>
        <time>2018-11-18T10:15:11Z</time>
      </trkpt>
      <trkpt lat="44.77186" lon="5.44582">
        <ele>1116.71</ele>
        <time>2018-11-18T10:15:29Z</time>
      </trkpt>
      <trkpt lat="44.772" lon="5.44587">
        <ele>1118.15</ele>
        <time>2018-11-18T10:15:42Z</time>
      </trkpt>
      <trkpt lat="44.77213" lon="5.44601">
        <ele>1119.11</ele>
        <time>2018-11-18T10:15:55Z</time>
      </trkpt>
      <trkpt lat="44.77214" lon="5.44604">
        <ele>1119.11</ele>
        <time>2018-11-18T10:15:57Z</time>
      </trkpt>
      <trkpt lat="44.77231" lon="5.44616">
        <ele>1120.55</ele>
        <time>2018-11-18T10:16:11Z</time>
      </trkpt>
      <trkpt lat="44.77234" lon="5.44618">
        <ele>1120.55</ele>
        <time>2018-11-18T10:16:13Z</time>
      </trkpt>
      <trkpt lat="44.77252" lon="5.44626">
        <ele>1122</ele>
        <time>2018-11-18T10:16:28Z</time>
      </trkpt>
      <trkpt lat="44.77255" lon="5.44628">
        <ele>1122</ele>
        <time>2018-11-18T10:16:31Z</time>
      </trkpt>
      <trkpt lat="44.77257" lon="5.44639">
        <ele>1122.48</ele>
        <time>2018-11-18T10:16:38Z</time>
      </trkpt>
      <trkpt lat="44.7725" lon="5.44657">
        <ele>1123.92</ele>
        <time>2018-11-18T10:16:49Z</time>
      </trkpt>
      <trkpt lat="44.77248" lon="5.44682">
        <ele>1124.88</ele>
        <time>2018-11-18T10:17:05Z</time>
      </trkpt>
      <trkpt lat="44.7726" lon="5.44698">
        <ele>1126.32</ele>
        <time>2018-11-18T10:17:21Z</time>
      </trkpt>
      <trkpt lat="44.77266" lon="5.44715">
        <ele>1126.8</ele>
        <time>2018-11-18T10:17:31Z</time>
      </trkpt>
      <trkpt lat="44.77276" lon="5.44741">
        <ele>1128.73</ele>
        <time>2018-11-18T10:17:50Z</time>
      </trkpt>
      <trkpt lat="44.7728" lon="5.4475">
        <ele>1129.69</ele>
        <time>2018-11-18T10:17:55Z</time>
      </trkpt>
      <trkpt lat="44.77289" lon="5.4477">
        <ele>1130.65</ele>
        <time>2018-11-18T10:18:10Z</time>
      </trkpt>
      <trkpt lat="44.77291" lon="5.44777">
        <ele>1130.65</ele>
        <time>2018-11-18T10:18:15Z</time>
      </trkpt>
      <trkpt lat="44.77293" lon="5.44805">
        <ele>1132.09</ele>
        <time>2018-11-18T10:18:30Z</time>
      </trkpt>
      <trkpt lat="44.7729" lon="5.44816">
        <ele>1132.57</ele>
        <time>2018-11-18T10:18:36Z</time>
      </trkpt>
      <trkpt lat="44.77286" lon="5.44824">
        <ele>1133.53</ele>
        <time>2018-11-18T10:18:41Z</time>
      </trkpt>
      <trkpt lat="44.77285" lon="5.44847">
        <ele>1134.49</ele>
        <time>2018-11-18T10:18:55Z</time>
      </trkpt>
      <trkpt lat="44.77285" lon="5.44861">
        <ele>1134.97</ele>
        <time>2018-11-18T10:19:02Z</time>
      </trkpt>
      <trkpt lat="44.77291" lon="5.44889">
        <ele>1135.94</ele>
        <time>2018-11-18T10:19:19Z</time>
      </trkpt>
      <trkpt lat="44.77292" lon="5.4489">
        <ele>1135.94</ele>
        <time>2018-11-18T10:19:20Z</time>
      </trkpt>
      <trkpt lat="44.77295" lon="5.44896">
        <ele>1136.42</ele>
        <time>2018-11-18T10:19:24Z</time>
      </trkpt>
      <trkpt lat="44.77296" lon="5.44901">
        <ele>1136.42</ele>
        <time>2018-11-18T10:19:27Z</time>
      </trkpt>
      <trkpt lat="44.77302" lon="5.44909">
        <ele>1136.9</ele>
        <time>2018-11-18T10:19:33Z</time>
      </trkpt>
      <trkpt lat="44.77303" lon="5.44914">
        <ele>1137.38</ele>
        <time>2018-11-18T10:19:36Z</time>
      </trkpt>
      <trkpt lat="44.77317" lon="5.44935">
        <ele>1138.82</ele>
        <time>2018-11-18T10:19:54Z</time>
      </trkpt>
      <trkpt lat="44.77331" lon="5.44947">
        <ele>1139.78</ele>
        <time>2018-11-18T10:20:13Z</time>
      </trkpt>
      <trkpt lat="44.77333" lon="5.4495">
        <ele>1139.78</ele>
        <time>2018-11-18T10:20:16Z</time>
      </trkpt>
      <trkpt lat="44.77349" lon="5.4496">
        <ele>1141.7</ele>
        <time>2018-11-18T10:20:31Z</time>
      </trkpt>
      <trkpt lat="44.77352" lon="5.44961">
        <ele>1141.7</ele>
        <time>2018-11-18T10:20:34Z</time>
      </trkpt>
      <trkpt lat="44.77356" lon="5.44963">
        <ele>1142.18</ele>
        <time>2018-11-18T10:20:37Z</time>
      </trkpt>
      <trkpt lat="44.77362" lon="5.44968">
        <ele>1143.14</ele>
        <time>2018-11-18T10:20:43Z</time>
      </trkpt>
      <trkpt lat="44.77364" lon="5.44976">
        <ele>1143.14</ele>
        <time>2018-11-18T10:20:47Z</time>
      </trkpt>
      <trkpt lat="44.77368" lon="5.45001">
        <ele>1145.55</ele>
        <time>2018-11-18T10:21:01Z</time>
      </trkpt>
      <trkpt lat="44.77363" lon="5.45013">
        <ele>1145.55</ele>
        <time>2018-11-18T10:21:19Z</time>
      </trkpt>
      <trkpt lat="44.77361" lon="5.45021">
        <ele>1146.99</ele>
        <time>2018-11-18T10:21:35Z</time>
      </trkpt>
      <trkpt lat="44.7736" lon="5.45022">
        <ele>1146.99</ele>
        <time>2018-11-18T10:21:36Z</time>
      </trkpt>
      <trkpt lat="44.7736" lon="5.45043">
        <ele>1146.99</ele>
        <time>2018-11-18T10:21:53Z</time>
      </trkpt>
      <trkpt lat="44.7736" lon="5.45049">
        <ele>1146.99</ele>
        <time>2018-11-18T10:22:07Z</time>
      </trkpt>
      <trkpt lat="44.77363" lon="5.45052">
        <ele>1146.99</ele>
        <time>2018-11-18T10:22:13Z</time>
      </trkpt>
      <trkpt lat="44.77366" lon="5.45052">
        <ele>1147.47</ele>
        <time>2018-11-18T10:22:32Z</time>
      </trkpt>
      <trkpt lat="44.77368" lon="5.4505">
        <ele>1147.47</ele>
        <time>2018-11-18T10:22:58Z</time>
      </trkpt>
      <trkpt lat="44.77376" lon="5.4505">
        <ele>1148.43</ele>
        <time>2018-11-18T10:23:16Z</time>
      </trkpt>
      <trkpt lat="44.77381" lon="5.45051">
        <ele>1149.87</ele>
        <time>2018-11-18T10:23:23Z</time>
      </trkpt>
      <trkpt lat="44.77382" lon="5.45049">
        <ele>1149.87</ele>
        <time>2018-11-18T10:23:25Z</time>
      </trkpt>
      <trkpt lat="44.77394" lon="5.45045">
        <ele>1149.87</ele>
        <time>2018-11-18T10:23:35Z</time>
      </trkpt>
      <trkpt lat="44.77406" lon="5.45031">
        <ele>1150.35</ele>
        <time>2018-11-18T10:23:47Z</time>
      </trkpt>
      <trkpt lat="44.77408" lon="5.4503">
        <ele>1150.35</ele>
        <time>2018-11-18T10:23:49Z</time>
      </trkpt>
      <trkpt lat="44.77424" lon="5.45037">
        <ele>1151.8</ele>
        <time>2018-11-18T10:24:05Z</time>
      </trkpt>
      <trkpt lat="44.77448" lon="5.45044">
        <ele>1153.72</ele>
        <time>2018-11-18T10:24:24Z</time>
      </trkpt>
      <trkpt lat="44.77449" lon="5.45045">
        <ele>1153.72</ele>
        <time>2018-11-18T10:24:25Z</time>
      </trkpt>
      <trkpt lat="44.77455" lon="5.45068">
        <ele>1155.64</ele>
        <time>2018-11-18T10:24:41Z</time>
      </trkpt>
      <trkpt lat="44.77456" lon="5.45082">
        <ele>1156.6</ele>
        <time>2018-11-18T10:24:58Z</time>
      </trkpt>
      <trkpt lat="44.77458" lon="5.45084">
        <ele>1156.6</ele>
        <time>2018-11-18T10:25:01Z</time>
      </trkpt>
      <trkpt lat="44.77464" lon="5.45084">
        <ele>1157.56</ele>
        <time>2018-11-18T10:25:16Z</time>
      </trkpt>
      <trkpt lat="44.77461" lon="5.45084">
        <ele>1157.56</ele>
        <time>2018-11-18T10:25:47Z</time>
      </trkpt>
      <trkpt lat="44.77462" lon="5.45083">
        <ele>1157.56</ele>
        <time>2018-11-18T10:25:51Z</time>
      </trkpt>
      <trkpt lat="44.77473" lon="5.45075">
        <ele>1156.12</ele>
        <time>2018-11-18T10:26:05Z</time>
      </trkpt>
      <trkpt lat="44.77486" lon="5.45095">
        <ele>1158.05</ele>
        <time>2018-11-18T10:26:22Z</time>
      </trkpt>
      <trkpt lat="44.77496" lon="5.4511">
        <ele>1159.01</ele>
        <time>2018-11-18T10:26:37Z</time>
      </trkpt>
      <trkpt lat="44.77499" lon="5.45109">
        <ele>1159.01</ele>
        <time>2018-11-18T10:26:40Z</time>
      </trkpt>
      <trkpt lat="44.7751" lon="5.45102">
        <ele>1159.49</ele>
        <time>2018-11-18T10:26:49Z</time>
      </trkpt>
      <trkpt lat="44.77527" lon="5.45073">
        <ele>1160.45</ele>
        <time>2018-11-18T10:27:10Z</time>
      </trkpt>
      <trkpt lat="44.7753" lon="5.45067">
        <ele>1160.93</ele>
        <time>2018-11-18T10:27:14Z</time>
      </trkpt>
      <trkpt lat="44.77536" lon="5.45062">
        <ele>1161.41</ele>
        <time>2018-11-18T10:27:19Z</time>
      </trkpt>
      <trkpt lat="44.77549" lon="5.4504">
        <ele>1162.85</ele>
        <time>2018-11-18T10:27:36Z</time>
      </trkpt>
      <trkpt lat="44.7756" lon="5.45033">
        <ele>1163.81</ele>
        <time>2018-11-18T10:27:52Z</time>
      </trkpt>
      <trkpt lat="44.77575" lon="5.45043">
        <ele>1164.77</ele>
        <time>2018-11-18T10:28:07Z</time>
      </trkpt>
      <trkpt lat="44.7759" lon="5.45062">
        <ele>1166.22</ele>
        <time>2018-11-18T10:28:22Z</time>
      </trkpt>
      <trkpt lat="44.77607" lon="5.45074">
        <ele>1166.7</ele>
        <time>2018-11-18T10:28:37Z</time>
      </trkpt>
      <trkpt lat="44.77618" lon="5.45089">
        <ele>1167.66</ele>
        <time>2018-11-18T10:28:53Z</time>
      </trkpt>
      <trkpt lat="44.77634" lon="5.45095">
        <ele>1168.14</ele>
        <time>2018-11-18T10:29:01Z</time>
      </trkpt>
      <trkpt lat="44.77641" lon="5.45093">
        <ele>1168.14</ele>
        <time>2018-11-18T10:29:06Z</time>
      </trkpt>
      <trkpt lat="44.77646" lon="5.45097">
        <ele>1169.58</ele>
        <time>2018-11-18T10:29:22Z</time>
      </trkpt>
      <trkpt lat="44.77644" lon="5.45095">
        <ele>1169.58</ele>
        <time>2018-11-18T10:29:45Z</time>
      </trkpt>
      <trkpt lat="44.77642" lon="5.45092">
        <ele>1169.58</ele>
        <time>2018-11-18T10:30:18Z</time>
      </trkpt>
      <trkpt lat="44.7765" lon="5.45083">
        <ele>1169.58</ele>
        <time>2018-11-18T10:30:35Z</time>
      </trkpt>
      <trkpt lat="44.77653" lon="5.45077">
        <ele>1168.14</ele>
        <time>2018-11-18T10:30:39Z</time>
      </trkpt>
      <trkpt lat="44.77655" lon="5.45074">
        <ele>1169.58</ele>
        <time>2018-11-18T10:30:44Z</time>
      </trkpt>
      <trkpt lat="44.77657" lon="5.45071">
        <ele>1170.54</ele>
        <time>2018-11-18T10:30:47Z</time>
      </trkpt>
      <trkpt lat="44.77657" lon="5.45065">
        <ele>1170.54</ele>
        <time>2018-11-18T10:30:51Z</time>
      </trkpt>
      <trkpt lat="44.77667" lon="5.45044">
        <ele>1172.95</ele>
        <time>2018-11-18T10:31:08Z</time>
      </trkpt>
      <trkpt lat="44.77668" lon="5.45035">
        <ele>1173.43</ele>
        <time>2018-11-18T10:31:13Z</time>
      </trkpt>
      <trkpt lat="44.77669" lon="5.45032">
        <ele>1173.43</ele>
        <time>2018-11-18T10:31:15Z</time>
      </trkpt>
      <trkpt lat="44.77671" lon="5.4503">
        <ele>1173.43</ele>
        <time>2018-11-18T10:31:17Z</time>
      </trkpt>
      <trkpt lat="44.77688" lon="5.45026">
        <ele>1175.83</ele>
        <time>2018-11-18T10:31:34Z</time>
      </trkpt>
      <trkpt lat="44.77702" lon="5.45025">
        <ele>1176.79</ele>
        <time>2018-11-18T10:31:50Z</time>
      </trkpt>
      <trkpt lat="44.77721" lon="5.45024">
        <ele>1178.23</ele>
        <time>2018-11-18T10:32:06Z</time>
      </trkpt>
      <trkpt lat="44.77731" lon="5.45023">
        <ele>1179.19</ele>
        <time>2018-11-18T10:32:15Z</time>
      </trkpt>
      <trkpt lat="44.77755" lon="5.45025">
        <ele>1181.12</ele>
        <time>2018-11-18T10:32:34Z</time>
      </trkpt>
      <trkpt lat="44.7776" lon="5.45025">
        <ele>1181.6</ele>
        <time>2018-11-18T10:32:39Z</time>
      </trkpt>
      <trkpt lat="44.77763" lon="5.45026">
        <ele>1181.6</ele>
        <time>2018-11-18T10:32:41Z</time>
      </trkpt>
      <trkpt lat="44.77786" lon="5.45029">
        <ele>1184</ele>
        <time>2018-11-18T10:32:58Z</time>
      </trkpt>
      <trkpt lat="44.77796" lon="5.45029">
        <ele>1184.48</ele>
        <time>2018-11-18T10:33:07Z</time>
      </trkpt>
      <trkpt lat="44.77821" lon="5.4503">
        <ele>1186.88</ele>
        <time>2018-11-18T10:33:26Z</time>
      </trkpt>
      <trkpt lat="44.77845" lon="5.45029">
        <ele>1189.29</ele>
        <time>2018-11-18T10:33:45Z</time>
      </trkpt>
      <trkpt lat="44.77872" lon="5.45023">
        <ele>1191.21</ele>
        <time>2018-11-18T10:34:05Z</time>
      </trkpt>
      <trkpt lat="44.77889" lon="5.4502">
        <ele>1192.65</ele>
        <time>2018-11-18T10:34:21Z</time>
      </trkpt>
      <trkpt lat="44.7789" lon="5.45019">
        <ele>1192.65</ele>
        <time>2018-11-18T10:34:22Z</time>
      </trkpt>
      <trkpt lat="44.7791" lon="5.45009">
        <ele>1194.58</ele>
        <time>2018-11-18T10:34:39Z</time>
      </trkpt>
      <trkpt lat="44.77916" lon="5.45009">
        <ele>1195.54</ele>
        <time>2018-11-18T10:34:44Z</time>
      </trkpt>
      <trkpt lat="44.77932" lon="5.45012">
        <ele>1196.98</ele>
        <time>2018-11-18T10:34:59Z</time>
      </trkpt>
      <trkpt lat="44.77947" lon="5.45021">
        <ele>1197.94</ele>
        <time>2018-11-18T10:35:12Z</time>
      </trkpt>
      <trkpt lat="44.77957" lon="5.45046">
        <ele>1199.38</ele>
        <time>2018-11-18T10:35:28Z</time>
      </trkpt>
      <trkpt lat="44.77969" lon="5.45071">
        <ele>1201.79</ele>
        <time>2018-11-18T10:35:45Z</time>
      </trkpt>
      <trkpt lat="44.77971" lon="5.45076">
        <ele>1202.27</ele>
        <time>2018-11-18T10:35:48Z</time>
      </trkpt>
      <trkpt lat="44.77976" lon="5.45085">
        <ele>1203.23</ele>
        <time>2018-11-18T10:35:55Z</time>
      </trkpt>
      <trkpt lat="44.77978" lon="5.4509">
        <ele>1203.23</ele>
        <time>2018-11-18T10:35:58Z</time>
      </trkpt>
      <trkpt lat="44.7799" lon="5.45111">
        <ele>1206.11</ele>
        <time>2018-11-18T10:36:15Z</time>
      </trkpt>
      <trkpt lat="44.78005" lon="5.45127">
        <ele>1208.03</ele>
        <time>2018-11-18T10:36:30Z</time>
      </trkpt>
      <trkpt lat="44.78022" lon="5.45136">
        <ele>1209</ele>
        <time>2018-11-18T10:36:46Z</time>
      </trkpt>
      <trkpt lat="44.78039" lon="5.45137">
        <ele>1210.44</ele>
        <time>2018-11-18T10:37:02Z</time>
      </trkpt>
      <trkpt lat="44.78043" lon="5.45137">
        <ele>1210.92</ele>
        <time>2018-11-18T10:37:05Z</time>
      </trkpt>
      <trkpt lat="44.78061" lon="5.45149">
        <ele>1212.84</ele>
        <time>2018-11-18T10:37:23Z</time>
      </trkpt>
      <trkpt lat="44.78068" lon="5.45164">
        <ele>1213.8</ele>
        <time>2018-11-18T10:37:33Z</time>
      </trkpt>
      <trkpt lat="44.7807" lon="5.45168">
        <ele>1213.8</ele>
        <time>2018-11-18T10:37:36Z</time>
      </trkpt>
      <trkpt lat="44.78071" lon="5.45177">
        <ele>1215.24</ele>
        <time>2018-11-18T10:37:42Z</time>
      </trkpt>
      <trkpt lat="44.78076" lon="5.45199">
        <ele>1216.69</ele>
        <time>2018-11-18T10:37:56Z</time>
      </trkpt>
      <trkpt lat="44.78077" lon="5.45203">
        <ele>1216.69</ele>
        <time>2018-11-18T10:37:59Z</time>
      </trkpt>
      <trkpt lat="44.78084" lon="5.4522">
        <ele>1217.65</ele>
        <time>2018-11-18T10:38:11Z</time>
      </trkpt>
      <trkpt lat="44.78096" lon="5.4524">
        <ele>1219.09</ele>
        <time>2018-11-18T10:38:28Z</time>
      </trkpt>
      <trkpt lat="44.781" lon="5.4525">
        <ele>1220.05</ele>
        <time>2018-11-18T10:38:37Z</time>
      </trkpt>
      <trkpt lat="44.781" lon="5.45253">
        <ele>1220.05</ele>
        <time>2018-11-18T10:38:39Z</time>
      </trkpt>
      <trkpt lat="44.7811" lon="5.45274">
        <ele>1221.49</ele>
        <time>2018-11-18T10:38:55Z</time>
      </trkpt>
      <trkpt lat="44.78122" lon="5.45289">
        <ele>1223.42</ele>
        <time>2018-11-18T10:39:10Z</time>
      </trkpt>
      <trkpt lat="44.7813" lon="5.45292">
        <ele>1223.9</ele>
        <time>2018-11-18T10:39:16Z</time>
      </trkpt>
      <trkpt lat="44.78142" lon="5.45302">
        <ele>1225.34</ele>
        <time>2018-11-18T10:39:32Z</time>
      </trkpt>
      <trkpt lat="44.78148" lon="5.45306">
        <ele>1225.34</ele>
        <time>2018-11-18T10:39:37Z</time>
      </trkpt>
      <trkpt lat="44.78161" lon="5.45316">
        <ele>1226.78</ele>
        <time>2018-11-18T10:39:50Z</time>
      </trkpt>
      <trkpt lat="44.78181" lon="5.4533">
        <ele>1229.18</ele>
        <time>2018-11-18T10:40:08Z</time>
      </trkpt>
      <trkpt lat="44.78198" lon="5.45331">
        <ele>1231.11</ele>
        <time>2018-11-18T10:40:23Z</time>
      </trkpt>
      <trkpt lat="44.78206" lon="5.45327">
        <ele>1231.59</ele>
        <time>2018-11-18T10:40:29Z</time>
      </trkpt>
      <trkpt lat="44.78213" lon="5.45327">
        <ele>1231.59</ele>
        <time>2018-11-18T10:40:35Z</time>
      </trkpt>
      <trkpt lat="44.78223" lon="5.45341">
        <ele>1233.51</ele>
        <time>2018-11-18T10:40:51Z</time>
      </trkpt>
      <trkpt lat="44.78226" lon="5.45348">
        <ele>1233.99</ele>
        <time>2018-11-18T10:41:09Z</time>
      </trkpt>
      <trkpt lat="44.78227" lon="5.45348">
        <ele>1235.91</ele>
        <time>2018-11-18T10:41:27Z</time>
      </trkpt>
      <trkpt lat="44.78229" lon="5.45345">
        <ele>1235.91</ele>
        <time>2018-11-18T10:41:48Z</time>
      </trkpt>
      <trkpt lat="44.78228" lon="5.45342">
        <ele>1234.47</ele>
        <time>2018-11-18T10:42:06Z</time>
      </trkpt>
      <trkpt lat="44.78231" lon="5.45335">
        <ele>1233.51</ele>
        <time>2018-11-18T10:42:22Z</time>
      </trkpt>
      <trkpt lat="44.78234" lon="5.4533">
        <ele>1233.03</ele>
        <time>2018-11-18T10:42:27Z</time>
      </trkpt>
      <trkpt lat="44.78245" lon="5.45319">
        <ele>1232.55</ele>
        <time>2018-11-18T10:42:43Z</time>
      </trkpt>
      <trkpt lat="44.78264" lon="5.45308">
        <ele>1232.55</ele>
        <time>2018-11-18T10:43:00Z</time>
      </trkpt>
      <trkpt lat="44.78268" lon="5.45304">
        <ele>1233.51</ele>
        <time>2018-11-18T10:43:05Z</time>
      </trkpt>
      <trkpt lat="44.7828" lon="5.45289">
        <ele>1233.99</ele>
        <time>2018-11-18T10:43:19Z</time>
      </trkpt>
      <trkpt lat="44.78296" lon="5.45272">
        <ele>1234.95</ele>
        <time>2018-11-18T10:43:36Z</time>
      </trkpt>
      <trkpt lat="44.78298" lon="5.45266">
        <ele>1235.43</ele>
        <time>2018-11-18T10:43:40Z</time>
      </trkpt>
      <trkpt lat="44.78302" lon="5.45257">
        <ele>1235.91</ele>
        <time>2018-11-18T10:43:46Z</time>
      </trkpt>
      <trkpt lat="44.78308" lon="5.45247">
        <ele>1236.39</ele>
        <time>2018-11-18T10:43:54Z</time>
      </trkpt>
      <trkpt lat="44.78325" lon="5.45238">
        <ele>1237.83</ele>
        <time>2018-11-18T10:44:10Z</time>
      </trkpt>
      <trkpt lat="44.78342" lon="5.45237">
        <ele>1239.28</ele>
        <time>2018-11-18T10:44:26Z</time>
      </trkpt>
      <trkpt lat="44.78361" lon="5.4523">
        <ele>1240.24</ele>
        <time>2018-11-18T10:44:44Z</time>
      </trkpt>
      <trkpt lat="44.78367" lon="5.45228">
        <ele>1240.24</ele>
        <time>2018-11-18T10:44:49Z</time>
      </trkpt>
      <trkpt lat="44.78381" lon="5.45212">
        <ele>1241.68</ele>
        <time>2018-11-18T10:45:04Z</time>
      </trkpt>
      <trkpt lat="44.78396" lon="5.45212">
        <ele>1242.64</ele>
        <time>2018-11-18T10:45:19Z</time>
      </trkpt>
      <trkpt lat="44.78399" lon="5.4521">
        <ele>1242.64</ele>
        <time>2018-11-18T10:45:22Z</time>
      </trkpt>
      <trkpt lat="44.78407" lon="5.45203">
        <ele>1243.6</ele>
        <time>2018-11-18T10:45:30Z</time>
      </trkpt>
      <trkpt lat="44.78416" lon="5.45182">
        <ele>1244.08</ele>
        <time>2018-11-18T10:45:46Z</time>
      </trkpt>
      <trkpt lat="44.78416" lon="5.45157">
        <ele>1244.08</ele>
        <time>2018-11-18T10:46:02Z</time>
      </trkpt>
      <trkpt lat="44.78415" lon="5.45142">
        <ele>1245.04</ele>
        <time>2018-11-18T10:46:11Z</time>
      </trkpt>
      <trkpt lat="44.78428" lon="5.45131">
        <ele>1245.53</ele>
        <time>2018-11-18T10:46:29Z</time>
      </trkpt>
      <trkpt lat="44.78439" lon="5.4512">
        <ele>1245.04</ele>
        <time>2018-11-18T10:46:44Z</time>
      </trkpt>
      <trkpt lat="44.78449" lon="5.45097">
        <ele>1245.04</ele>
        <time>2018-11-18T10:47:00Z</time>
      </trkpt>
      <trkpt lat="44.78453" lon="5.4509">
        <ele>1245.04</ele>
        <time>2018-11-18T10:47:05Z</time>
      </trkpt>
      <trkpt lat="44.78457" lon="5.45078">
        <ele>1245.04</ele>
        <time>2018-11-18T10:47:13Z</time>
      </trkpt>
      <trkpt lat="44.78467" lon="5.45051">
        <ele>1245.04</ele>
        <time>2018-11-18T10:47:31Z</time>
      </trkpt>
      <trkpt lat="44.78474" lon="5.45034">
        <ele>1246.01</ele>
        <time>2018-11-18T10:47:43Z</time>
      </trkpt>
      <trkpt lat="44.78486" lon="5.45013">
        <ele>1246.01</ele>
        <time>2018-11-18T10:48:00Z</time>
      </trkpt>
      <trkpt lat="44.7849" lon="5.45011">
        <ele>1246.49</ele>
        <time>2018-11-18T10:48:04Z</time>
      </trkpt>
      <trkpt lat="44.78495" lon="5.45014">
        <ele>1246.49</ele>
        <time>2018-11-18T10:48:09Z</time>
      </trkpt>
      <trkpt lat="44.78509" lon="5.45029">
        <ele>1246.97</ele>
        <time>2018-11-18T10:48:26Z</time>
      </trkpt>
      <trkpt lat="44.7851" lon="5.45032">
        <ele>1246.97</ele>
        <time>2018-11-18T10:48:28Z</time>
      </trkpt>
      <trkpt lat="44.78529" lon="5.45045">
        <ele>1247.93</ele>
        <time>2018-11-18T10:48:45Z</time>
      </trkpt>
      <trkpt lat="44.78541" lon="5.45059">
        <ele>1248.41</ele>
        <time>2018-11-18T10:49:00Z</time>
      </trkpt>
      <trkpt lat="44.78557" lon="5.45071">
        <ele>1249.37</ele>
        <time>2018-11-18T10:49:17Z</time>
      </trkpt>
      <trkpt lat="44.7856" lon="5.45076">
        <ele>1249.37</ele>
        <time>2018-11-18T10:49:22Z</time>
      </trkpt>
      <trkpt lat="44.78565" lon="5.45102">
        <ele>1249.85</ele>
        <time>2018-11-18T10:49:39Z</time>
      </trkpt>
      <trkpt lat="44.78565" lon="5.45106">
        <ele>1250.33</ele>
        <time>2018-11-18T10:49:42Z</time>
      </trkpt>
      <trkpt lat="44.78568" lon="5.45114">
        <ele>1250.33</ele>
        <time>2018-11-18T10:49:47Z</time>
      </trkpt>
      <trkpt lat="44.7857" lon="5.45136">
        <ele>1250.81</ele>
        <time>2018-11-18T10:50:00Z</time>
      </trkpt>
      <trkpt lat="44.78569" lon="5.45138">
        <ele>1250.81</ele>
        <time>2018-11-18T10:50:02Z</time>
      </trkpt>
      <trkpt lat="44.78571" lon="5.4515">
        <ele>1251.29</ele>
        <time>2018-11-18T10:50:09Z</time>
      </trkpt>
      <trkpt lat="44.78571" lon="5.45155">
        <ele>1251.29</ele>
        <time>2018-11-18T10:50:12Z</time>
      </trkpt>
      <trkpt lat="44.78573" lon="5.45167">
        <ele>1251.77</ele>
        <time>2018-11-18T10:50:20Z</time>
      </trkpt>
      <trkpt lat="44.78576" lon="5.45171">
        <ele>1251.77</ele>
        <time>2018-11-18T10:50:23Z</time>
      </trkpt>
      <trkpt lat="44.78581" lon="5.45184">
        <ele>1252.25</ele>
        <time>2018-11-18T10:50:30Z</time>
      </trkpt>
      <trkpt lat="44.7858" lon="5.45199">
        <ele>1252.25</ele>
        <time>2018-11-18T10:50:40Z</time>
      </trkpt>
      <trkpt lat="44.78583" lon="5.45208">
        <ele>1252.25</ele>
        <time>2018-11-18T10:50:45Z</time>
      </trkpt>
      <trkpt lat="44.78587" lon="5.4522">
        <ele>1252.74</ele>
        <time>2018-11-18T10:50:52Z</time>
      </trkpt>
      <trkpt lat="44.78587" lon="5.45224">
        <ele>1252.74</ele>
        <time>2018-11-18T10:50:54Z</time>
      </trkpt>
      <trkpt lat="44.78589" lon="5.45227">
        <ele>1252.74</ele>
        <time>2018-11-18T10:50:56Z</time>
      </trkpt>
      <trkpt lat="44.78591" lon="5.45243">
        <ele>1253.22</ele>
        <time>2018-11-18T10:51:07Z</time>
      </trkpt>
      <trkpt lat="44.7859" lon="5.45251">
        <ele>1253.7</ele>
        <time>2018-11-18T10:51:13Z</time>
      </trkpt>
      <trkpt lat="44.78597" lon="5.45271">
        <ele>1254.18</ele>
        <time>2018-11-18T10:51:27Z</time>
      </trkpt>
      <trkpt lat="44.78605" lon="5.45297">
        <ele>1255.14</ele>
        <time>2018-11-18T10:51:43Z</time>
      </trkpt>
      <trkpt lat="44.7861" lon="5.45315">
        <ele>1255.62</ele>
        <time>2018-11-18T10:51:56Z</time>
      </trkpt>
      <trkpt lat="44.78619" lon="5.45339">
        <ele>1255.14</ele>
        <time>2018-11-18T10:52:14Z</time>
      </trkpt>
      <trkpt lat="44.78624" lon="5.45346">
        <ele>1256.1</ele>
        <time>2018-11-18T10:52:18Z</time>
      </trkpt>
      <trkpt lat="44.78637" lon="5.45354">
        <ele>1256.1</ele>
        <time>2018-11-18T10:52:29Z</time>
      </trkpt>
      <trkpt lat="44.78653" lon="5.4537">
        <ele>1257.06</ele>
        <time>2018-11-18T10:52:46Z</time>
      </trkpt>
      <trkpt lat="44.78666" lon="5.45384">
        <ele>1257.54</ele>
        <time>2018-11-18T10:53:00Z</time>
      </trkpt>
      <trkpt lat="44.78681" lon="5.454">
        <ele>1258.02</ele>
        <time>2018-11-18T10:53:16Z</time>
      </trkpt>
      <trkpt lat="44.7869" lon="5.45402">
        <ele>1258.5</ele>
        <time>2018-11-18T10:53:25Z</time>
      </trkpt>
      <trkpt lat="44.78706" lon="5.45402">
        <ele>1259.46</ele>
        <time>2018-11-18T10:53:41Z</time>
      </trkpt>
      <trkpt lat="44.7872" lon="5.45404">
        <ele>1259.94</ele>
        <time>2018-11-18T10:53:57Z</time>
      </trkpt>
      <trkpt lat="44.78727" lon="5.45401">
        <ele>1260.91</ele>
        <time>2018-11-18T10:54:04Z</time>
      </trkpt>
      <trkpt lat="44.78745" lon="5.45406">
        <ele>1260.91</ele>
        <time>2018-11-18T10:54:20Z</time>
      </trkpt>
      <trkpt lat="44.78759" lon="5.45407">
        <ele>1261.87</ele>
        <time>2018-11-18T10:54:31Z</time>
      </trkpt>
      <trkpt lat="44.78768" lon="5.45407">
        <ele>1261.87</ele>
        <time>2018-11-18T10:54:39Z</time>
      </trkpt>
      <trkpt lat="44.78785" lon="5.45415">
        <ele>1262.35</ele>
        <time>2018-11-18T10:54:54Z</time>
      </trkpt>
      <trkpt lat="44.78801" lon="5.45429">
        <ele>1263.31</ele>
        <time>2018-11-18T10:55:08Z</time>
      </trkpt>
      <trkpt lat="44.78805" lon="5.45433">
        <ele>1263.31</ele>
        <time>2018-11-18T10:55:12Z</time>
      </trkpt>
      <trkpt lat="44.78821" lon="5.45455">
        <ele>1264.27</ele>
        <time>2018-11-18T10:55:29Z</time>
      </trkpt>
      <trkpt lat="44.78822" lon="5.45459">
        <ele>1264.27</ele>
        <time>2018-11-18T10:55:32Z</time>
      </trkpt>
      <trkpt lat="44.78831" lon="5.45466">
        <ele>1264.75</ele>
        <time>2018-11-18T10:55:42Z</time>
      </trkpt>
      <trkpt lat="44.78847" lon="5.45478">
        <ele>1265.71</ele>
        <time>2018-11-18T10:55:59Z</time>
      </trkpt>
      <trkpt lat="44.78847" lon="5.45481">
        <ele>1266.19</ele>
        <time>2018-11-18T10:56:01Z</time>
      </trkpt>
      <trkpt lat="44.78855" lon="5.4549">
        <ele>1267.16</ele>
        <time>2018-11-18T10:56:10Z</time>
      </trkpt>
      <trkpt lat="44.78857" lon="5.4549">
        <ele>1267.16</ele>
        <time>2018-11-18T10:56:12Z</time>
      </trkpt>
      <trkpt lat="44.78868" lon="5.4551">
        <ele>1267.64</ele>
        <time>2018-11-18T10:56:30Z</time>
      </trkpt>
      <trkpt lat="44.7888" lon="5.45525">
        <ele>1269.08</ele>
        <time>2018-11-18T10:56:45Z</time>
      </trkpt>
      <trkpt lat="44.7889" lon="5.45537">
        <ele>1269.08</ele>
        <time>2018-11-18T10:56:55Z</time>
      </trkpt>
      <trkpt lat="44.78895" lon="5.45546">
        <ele>1269.08</ele>
        <time>2018-11-18T10:57:02Z</time>
      </trkpt>
      <trkpt lat="44.78905" lon="5.45564">
        <ele>1269.56</ele>
        <time>2018-11-18T10:57:15Z</time>
      </trkpt>
      <trkpt lat="44.78908" lon="5.45571">
        <ele>1270.04</ele>
        <time>2018-11-18T10:57:20Z</time>
      </trkpt>
      <trkpt lat="44.78911" lon="5.45583">
        <ele>1270.52</ele>
        <time>2018-11-18T10:57:28Z</time>
      </trkpt>
      <trkpt lat="44.78915" lon="5.45591">
        <ele>1270.52</ele>
        <time>2018-11-18T10:57:33Z</time>
      </trkpt>
      <trkpt lat="44.78917" lon="5.45598">
        <ele>1270.52</ele>
        <time>2018-11-18T10:57:37Z</time>
      </trkpt>
      <trkpt lat="44.78932" lon="5.45614">
        <ele>1271.96</ele>
        <time>2018-11-18T10:57:55Z</time>
      </trkpt>
      <trkpt lat="44.78948" lon="5.45623">
        <ele>1271.96</ele>
        <time>2018-11-18T10:58:11Z</time>
      </trkpt>
      <trkpt lat="44.78963" lon="5.4564">
        <ele>1272.44</ele>
        <time>2018-11-18T10:58:27Z</time>
      </trkpt>
      <trkpt lat="44.78979" lon="5.45659">
        <ele>1273.4</ele>
        <time>2018-11-18T10:58:45Z</time>
      </trkpt>
      <trkpt lat="44.78994" lon="5.45679">
        <ele>1274.36</ele>
        <time>2018-11-18T10:59:02Z</time>
      </trkpt>
      <trkpt lat="44.79004" lon="5.45695">
        <ele>1274.85</ele>
        <time>2018-11-18T10:59:17Z</time>
      </trkpt>
      <trkpt lat="44.79017" lon="5.45713">
        <ele>1275.81</ele>
        <time>2018-11-18T10:59:31Z</time>
      </trkpt>
      <trkpt lat="44.79017" lon="5.45714">
        <ele>1275.81</ele>
        <time>2018-11-18T10:59:32Z</time>
      </trkpt>
      <trkpt lat="44.79023" lon="5.45722">
        <ele>1275.81</ele>
        <time>2018-11-18T10:59:39Z</time>
      </trkpt>
      <trkpt lat="44.7903" lon="5.45738">
        <ele>1276.29</ele>
        <time>2018-11-18T10:59:50Z</time>
      </trkpt>
      <trkpt lat="44.79036" lon="5.45745">
        <ele>1276.29</ele>
        <time>2018-11-18T10:59:56Z</time>
      </trkpt>
      <trkpt lat="44.7904" lon="5.45755">
        <ele>1276.29</ele>
        <time>2018-11-18T11:00:03Z</time>
      </trkpt>
      <trkpt lat="44.7905" lon="5.45776">
        <ele>1277.25</ele>
        <time>2018-11-18T11:00:18Z</time>
      </trkpt>
      <trkpt lat="44.79057" lon="5.45787">
        <ele>1277.73</ele>
        <time>2018-11-18T11:00:25Z</time>
      </trkpt>
      <trkpt lat="44.79068" lon="5.45806">
        <ele>1278.21</ele>
        <time>2018-11-18T11:00:41Z</time>
      </trkpt>
      <trkpt lat="44.79083" lon="5.45826">
        <ele>1278.69</ele>
        <time>2018-11-18T11:00:57Z</time>
      </trkpt>
      <trkpt lat="44.7909" lon="5.45835">
        <ele>1278.69</ele>
        <time>2018-11-18T11:01:10Z</time>
      </trkpt>
      <trkpt lat="44.79096" lon="5.45841">
        <ele>1279.17</ele>
        <time>2018-11-18T11:01:16Z</time>
      </trkpt>
      <trkpt lat="44.79109" lon="5.45852">
        <ele>1280.13</ele>
        <time>2018-11-18T11:01:32Z</time>
      </trkpt>
      <trkpt lat="44.79111" lon="5.45858">
        <ele>1280.13</ele>
        <time>2018-11-18T11:01:37Z</time>
      </trkpt>
      <trkpt lat="44.79127" lon="5.45863">
        <ele>1281.09</ele>
        <time>2018-11-18T11:01:51Z</time>
      </trkpt>
      <trkpt lat="44.79136" lon="5.45864">
        <ele>1281.57</ele>
        <time>2018-11-18T11:02:09Z</time>
      </trkpt>
      <trkpt lat="44.79136" lon="5.45863">
        <ele>1281.57</ele>
        <time>2018-11-18T11:02:37Z</time>
      </trkpt>
      <trkpt lat="44.79145" lon="5.4586">
        <ele>1282.06</ele>
        <time>2018-11-18T11:03:12Z</time>
      </trkpt>
      <trkpt lat="44.79136" lon="5.45855">
        <ele>1282.54</ele>
        <time>2018-11-18T11:03:43Z</time>
      </trkpt>
      <trkpt lat="44.79139" lon="5.45859">
        <ele>1283.02</ele>
        <time>2018-11-18T11:04:08Z</time>
      </trkpt>
      <trkpt lat="44.79136" lon="5.45856">
        <ele>1283.02</ele>
        <time>2018-11-18T11:04:30Z</time>
      </trkpt>
      <trkpt lat="44.79137" lon="5.45857">
        <ele>1283.02</ele>
        <time>2018-11-18T11:04:53Z</time>
      </trkpt>
      <trkpt lat="44.79139" lon="5.45859">
        <ele>1283.5</ele>
        <time>2018-11-18T11:05:15Z</time>
      </trkpt>
      <trkpt lat="44.79132" lon="5.45855">
        <ele>1283.5</ele>
        <time>2018-11-18T11:05:44Z</time>
      </trkpt>
      <trkpt lat="44.79128" lon="5.4586">
        <ele>1283.5</ele>
        <time>2018-11-18T11:06:11Z</time>
      </trkpt>
      <trkpt lat="44.7913" lon="5.45866">
        <ele>1283.5</ele>
        <time>2018-11-18T11:06:36Z</time>
      </trkpt>
      <trkpt lat="44.79146" lon="5.45859">
        <ele>1283.5</ele>
        <time>2018-11-18T11:06:55Z</time>
      </trkpt>
      <trkpt lat="44.79166" lon="5.45848">
        <ele>1283.98</ele>
        <time>2018-11-18T11:07:10Z</time>
      </trkpt>
      <trkpt lat="44.79182" lon="5.45835">
        <ele>1285.42</ele>
        <time>2018-11-18T11:07:28Z</time>
      </trkpt>
      <trkpt lat="44.79198" lon="5.45822">
        <ele>1285.9</ele>
        <time>2018-11-18T11:07:43Z</time>
      </trkpt>
      <trkpt lat="44.79219" lon="5.45807">
        <ele>1286.38</ele>
        <time>2018-11-18T11:08:01Z</time>
      </trkpt>
      <trkpt lat="44.79229" lon="5.45796">
        <ele>1286.38</ele>
        <time>2018-11-18T11:08:16Z</time>
      </trkpt>
      <trkpt lat="44.79239" lon="5.45796">
        <ele>1286.38</ele>
        <time>2018-11-18T11:08:31Z</time>
      </trkpt>
      <trkpt lat="44.79239" lon="5.45793">
        <ele>1286.86</ele>
        <time>2018-11-18T11:08:51Z</time>
      </trkpt>
      <trkpt lat="44.79242" lon="5.45796">
        <ele>1286.86</ele>
        <time>2018-11-18T11:09:12Z</time>
      </trkpt>
      <trkpt lat="44.79243" lon="5.45797">
        <ele>1287.34</ele>
        <time>2018-11-18T11:09:35Z</time>
      </trkpt>
      <trkpt lat="44.79248" lon="5.45803">
        <ele>1290.71</ele>
        <time>2018-11-18T11:09:50Z</time>
      </trkpt>
      <trkpt lat="44.79256" lon="5.45804">
        <ele>1294.07</ele>
        <time>2018-11-18T11:10:07Z</time>
      </trkpt>
      <trkpt lat="44.79264" lon="5.45808">
        <ele>1296.96</ele>
        <time>2018-11-18T11:10:24Z</time>
      </trkpt>
      <trkpt lat="44.79273" lon="5.45812">
        <ele>1300.32</ele>
        <time>2018-11-18T11:10:41Z</time>
      </trkpt>
      <trkpt lat="44.79281" lon="5.45818">
        <ele>1303.69</ele>
        <time>2018-11-18T11:10:59Z</time>
      </trkpt>
      <trkpt lat="44.79287" lon="5.45818">
        <ele>1306.57</ele>
        <time>2018-11-18T11:11:16Z</time>
      </trkpt>
      <trkpt lat="44.79292" lon="5.45828">
        <ele>1309.93</ele>
        <time>2018-11-18T11:11:32Z</time>
      </trkpt>
      <trkpt lat="44.79292" lon="5.45836">
        <ele>1311.86</ele>
        <time>2018-11-18T11:11:45Z</time>
      </trkpt>
      <trkpt lat="44.79293" lon="5.45844">
        <ele>1314.74</ele>
        <time>2018-11-18T11:12:02Z</time>
      </trkpt>
      <trkpt lat="44.7929" lon="5.45851">
        <ele>1317.62</ele>
        <time>2018-11-18T11:12:18Z</time>
      </trkpt>
      <trkpt lat="44.79284" lon="5.45862">
        <ele>1320.99</ele>
        <time>2018-11-18T11:12:35Z</time>
      </trkpt>
      <trkpt lat="44.79276" lon="5.4587">
        <ele>1324.35</ele>
        <time>2018-11-18T11:12:53Z</time>
      </trkpt>
      <trkpt lat="44.7927" lon="5.45877">
        <ele>1327.24</ele>
        <time>2018-11-18T11:13:10Z</time>
      </trkpt>
      <trkpt lat="44.79263" lon="5.45886">
        <ele>1330.6</ele>
        <time>2018-11-18T11:13:27Z</time>
      </trkpt>
      <trkpt lat="44.79256" lon="5.45894">
        <ele>1333.01</ele>
        <time>2018-11-18T11:13:43Z</time>
      </trkpt>
      <trkpt lat="44.79255" lon="5.45902">
        <ele>1335.89</ele>
        <time>2018-11-18T11:13:57Z</time>
      </trkpt>
      <trkpt lat="44.79253" lon="5.45912">
        <ele>1338.77</ele>
        <time>2018-11-18T11:14:14Z</time>
      </trkpt>
      <trkpt lat="44.79249" lon="5.45922">
        <ele>1342.14</ele>
        <time>2018-11-18T11:14:31Z</time>
      </trkpt>
      <trkpt lat="44.79246" lon="5.45937">
        <ele>1345.02</ele>
        <time>2018-11-18T11:14:48Z</time>
      </trkpt>
      <trkpt lat="44.79251" lon="5.45943">
        <ele>1347.91</ele>
        <time>2018-11-18T11:15:06Z</time>
      </trkpt>
      <trkpt lat="44.79255" lon="5.45952">
        <ele>1350.79</ele>
        <time>2018-11-18T11:15:21Z</time>
      </trkpt>
      <trkpt lat="44.7926" lon="5.45958">
        <ele>1353.67</ele>
        <time>2018-11-18T11:15:36Z</time>
      </trkpt>
      <trkpt lat="44.79258" lon="5.45965">
        <ele>1357.04</ele>
        <time>2018-11-18T11:15:50Z</time>
      </trkpt>
      <trkpt lat="44.79253" lon="5.45973">
        <ele>1359.44</ele>
        <time>2018-11-18T11:16:05Z</time>
      </trkpt>
      <trkpt lat="44.79246" lon="5.45981">
        <ele>1361.36</ele>
        <time>2018-11-18T11:16:19Z</time>
      </trkpt>
      <trkpt lat="44.7924" lon="5.45989">
        <ele>1362.81</ele>
        <time>2018-11-18T11:16:30Z</time>
      </trkpt>
      <trkpt lat="44.79233" lon="5.46001">
        <ele>1365.21</ele>
        <time>2018-11-18T11:16:44Z</time>
      </trkpt>
      <trkpt lat="44.79227" lon="5.46016">
        <ele>1367.61</ele>
        <time>2018-11-18T11:16:58Z</time>
      </trkpt>
      <trkpt lat="44.79221" lon="5.46029">
        <ele>1369.54</ele>
        <time>2018-11-18T11:17:11Z</time>
      </trkpt>
      <trkpt lat="44.79216" lon="5.46043">
        <ele>1370.98</ele>
        <time>2018-11-18T11:17:25Z</time>
      </trkpt>
      <trkpt lat="44.79206" lon="5.46056">
        <ele>1371.94</ele>
        <time>2018-11-18T11:17:40Z</time>
      </trkpt>
      <trkpt lat="44.79198" lon="5.46068">
        <ele>1373.38</ele>
        <time>2018-11-18T11:17:53Z</time>
      </trkpt>
      <trkpt lat="44.79191" lon="5.46079">
        <ele>1376.26</ele>
        <time>2018-11-18T11:18:09Z</time>
      </trkpt>
      <trkpt lat="44.79179" lon="5.46088">
        <ele>1379.15</ele>
        <time>2018-11-18T11:18:23Z</time>
      </trkpt>
      <trkpt lat="44.79174" lon="5.46098">
        <ele>1382.03</ele>
        <time>2018-11-18T11:18:39Z</time>
      </trkpt>
      <trkpt lat="44.79168" lon="5.46105">
        <ele>1384.92</ele>
        <time>2018-11-18T11:18:53Z</time>
      </trkpt>
      <trkpt lat="44.79162" lon="5.46111">
        <ele>1387.32</ele>
        <time>2018-11-18T11:19:07Z</time>
      </trkpt>
      <trkpt lat="44.79152" lon="5.46119">
        <ele>1389.72</ele>
        <time>2018-11-18T11:19:22Z</time>
      </trkpt>
      <trkpt lat="44.7914" lon="5.46128">
        <ele>1392.13</ele>
        <time>2018-11-18T11:19:37Z</time>
      </trkpt>
      <trkpt lat="44.79136" lon="5.46129">
        <ele>1395.49</ele>
        <time>2018-11-18T11:19:52Z</time>
      </trkpt>
      <trkpt lat="44.79128" lon="5.46132">
        <ele>1396.93</ele>
        <time>2018-11-18T11:20:08Z</time>
      </trkpt>
      <trkpt lat="44.7912" lon="5.46135">
        <ele>1399.34</ele>
        <time>2018-11-18T11:20:21Z</time>
      </trkpt>
      <trkpt lat="44.79111" lon="5.4614">
        <ele>1402.22</ele>
        <time>2018-11-18T11:20:37Z</time>
      </trkpt>
      <trkpt lat="44.79105" lon="5.46147">
        <ele>1404.62</ele>
        <time>2018-11-18T11:20:51Z</time>
      </trkpt>
      <trkpt lat="44.79093" lon="5.4616">
        <ele>1407.03</ele>
        <time>2018-11-18T11:21:09Z</time>
      </trkpt>
      <trkpt lat="44.79088" lon="5.46165">
        <ele>1409.91</ele>
        <time>2018-11-18T11:21:25Z</time>
      </trkpt>
      <trkpt lat="44.79084" lon="5.4617">
        <ele>1412.31</ele>
        <time>2018-11-18T11:21:38Z</time>
      </trkpt>
      <trkpt lat="44.7908" lon="5.46179">
        <ele>1415.2</ele>
        <time>2018-11-18T11:21:55Z</time>
      </trkpt>
      <trkpt lat="44.79079" lon="5.46191">
        <ele>1417.6</ele>
        <time>2018-11-18T11:22:11Z</time>
      </trkpt>
      <trkpt lat="44.79075" lon="5.46196">
        <ele>1420.49</ele>
        <time>2018-11-18T11:22:27Z</time>
      </trkpt>
      <trkpt lat="44.79069" lon="5.46198">
        <ele>1422.89</ele>
        <time>2018-11-18T11:22:43Z</time>
      </trkpt>
      <trkpt lat="44.79063" lon="5.46201">
        <ele>1425.29</ele>
        <time>2018-11-18T11:22:57Z</time>
      </trkpt>
      <trkpt lat="44.79056" lon="5.46202">
        <ele>1427.21</ele>
        <time>2018-11-18T11:23:10Z</time>
      </trkpt>
      <trkpt lat="44.7905" lon="5.46205">
        <ele>1429.62</ele>
        <time>2018-11-18T11:23:21Z</time>
      </trkpt>
      <trkpt lat="44.79041" lon="5.46206">
        <ele>1431.54</ele>
        <time>2018-11-18T11:23:36Z</time>
      </trkpt>
      <trkpt lat="44.79032" lon="5.46212">
        <ele>1433.94</ele>
        <time>2018-11-18T11:23:52Z</time>
      </trkpt>
      <trkpt lat="44.79025" lon="5.46213">
        <ele>1436.83</ele>
        <time>2018-11-18T11:24:09Z</time>
      </trkpt>
      <trkpt lat="44.79022" lon="5.46221">
        <ele>1439.71</ele>
        <time>2018-11-18T11:24:24Z</time>
      </trkpt>
      <trkpt lat="44.79015" lon="5.46222">
        <ele>1442.11</ele>
        <time>2018-11-18T11:24:39Z</time>
      </trkpt>
      <trkpt lat="44.79006" lon="5.46228">
        <ele>1444.52</ele>
        <time>2018-11-18T11:24:56Z</time>
      </trkpt>
      <trkpt lat="44.79" lon="5.46232">
        <ele>1447.4</ele>
        <time>2018-11-18T11:25:12Z</time>
      </trkpt>
      <trkpt lat="44.78995" lon="5.46234">
        <ele>1448.84</ele>
        <time>2018-11-18T11:25:26Z</time>
      </trkpt>
      <trkpt lat="44.78992" lon="5.46235">
        <ele>1449.81</ele>
        <time>2018-11-18T11:25:41Z</time>
      </trkpt>
      <trkpt lat="44.78996" lon="5.46232">
        <ele>1449.81</ele>
        <time>2018-11-18T11:25:53Z</time>
      </trkpt>
      <trkpt lat="44.78999" lon="5.4623">
        <ele>1449.81</ele>
        <time>2018-11-18T11:26:27Z</time>
      </trkpt>
      <trkpt lat="44.78998" lon="5.46227">
        <ele>1449.32</ele>
        <time>2018-11-18T11:27:03Z</time>
      </trkpt>
      <trkpt lat="44.78998" lon="5.46228">
        <ele>1449.32</ele>
        <time>2018-11-18T11:27:17Z</time>
      </trkpt>
      <trkpt lat="44.78998" lon="5.46229">
        <ele>1449.32</ele>
        <time>2018-11-18T11:27:28Z</time>
      </trkpt>
      <trkpt lat="44.78996" lon="5.4623">
        <ele>1449.81</ele>
        <time>2018-11-18T11:27:44Z</time>
      </trkpt>
      <trkpt lat="44.7899" lon="5.46234">
        <ele>1452.69</ele>
        <time>2018-11-18T11:27:58Z</time>
      </trkpt>
      <trkpt lat="44.78987" lon="5.46236">
        <ele>1455.09</ele>
        <time>2018-11-18T11:28:09Z</time>
      </trkpt>
      <trkpt lat="44.78983" lon="5.46237">
        <ele>1457.5</ele>
        <time>2018-11-18T11:28:21Z</time>
      </trkpt>
      <trkpt lat="44.78981" lon="5.46239">
        <ele>1459.9</ele>
        <time>2018-11-18T11:28:35Z</time>
      </trkpt>
      <trkpt lat="44.78978" lon="5.46241">
        <ele>1461.82</ele>
        <time>2018-11-18T11:28:47Z</time>
      </trkpt>
      <trkpt lat="44.78974" lon="5.46243">
        <ele>1463.74</ele>
        <time>2018-11-18T11:29:03Z</time>
      </trkpt>
      <trkpt lat="44.78971" lon="5.46246">
        <ele>1466.15</ele>
        <time>2018-11-18T11:29:16Z</time>
      </trkpt>
      <trkpt lat="44.78969" lon="5.4625">
        <ele>1468.07</ele>
        <time>2018-11-18T11:29:28Z</time>
      </trkpt>
      <trkpt lat="44.78967" lon="5.46253">
        <ele>1469.51</ele>
        <time>2018-11-18T11:29:46Z</time>
      </trkpt>
      <trkpt lat="44.78965" lon="5.46253">
        <ele>1470.95</ele>
        <time>2018-11-18T11:29:58Z</time>
      </trkpt>
      <trkpt lat="44.78963" lon="5.46254">
        <ele>1471.92</ele>
        <time>2018-11-18T11:30:09Z</time>
      </trkpt>
      <trkpt lat="44.78961" lon="5.46252">
        <ele>1472.4</ele>
        <time>2018-11-18T11:30:21Z</time>
      </trkpt>
      <trkpt lat="44.78959" lon="5.46254">
        <ele>1474.32</ele>
        <time>2018-11-18T11:30:32Z</time>
      </trkpt>
      <trkpt lat="44.78955" lon="5.46256">
        <ele>1477.68</ele>
        <time>2018-11-18T11:30:46Z</time>
      </trkpt>
      <trkpt lat="44.78951" lon="5.4626">
        <ele>1480.09</ele>
        <time>2018-11-18T11:31:00Z</time>
      </trkpt>
      <trkpt lat="44.78949" lon="5.46261">
        <ele>1481.05</ele>
        <time>2018-11-18T11:31:17Z</time>
      </trkpt>
      <trkpt lat="44.78948" lon="5.46263">
        <ele>1483.45</ele>
        <time>2018-11-18T11:31:28Z</time>
      </trkpt>
      <trkpt lat="44.78943" lon="5.46264">
        <ele>1485.85</ele>
        <time>2018-11-18T11:31:40Z</time>
      </trkpt>
      <trkpt lat="44.7894" lon="5.46266">
        <ele>1487.3</ele>
        <time>2018-11-18T11:31:55Z</time>
      </trkpt>
      <trkpt lat="44.7894" lon="5.46269">
        <ele>1487.78</ele>
        <time>2018-11-18T11:32:01Z</time>
      </trkpt>
      <trkpt lat="44.78939" lon="5.4627">
        <ele>1489.7</ele>
        <time>2018-11-18T11:32:12Z</time>
      </trkpt>
      <trkpt lat="44.78937" lon="5.46275">
        <ele>1492.1</ele>
        <time>2018-11-18T11:32:25Z</time>
      </trkpt>
      <trkpt lat="44.78934" lon="5.46279">
        <ele>1492.58</ele>
        <time>2018-11-18T11:32:40Z</time>
      </trkpt>
      <trkpt lat="44.78936" lon="5.46284">
        <ele>1495.47</ele>
        <time>2018-11-18T11:32:53Z</time>
      </trkpt>
      <trkpt lat="44.78931" lon="5.4628">
        <ele>1497.39</ele>
        <time>2018-11-18T11:33:09Z</time>
      </trkpt>
      <trkpt lat="44.78926" lon="5.46279">
        <ele>1499.31</ele>
        <time>2018-11-18T11:33:23Z</time>
      </trkpt>
      <trkpt lat="44.78921" lon="5.46283">
        <ele>1501.72</ele>
        <time>2018-11-18T11:33:36Z</time>
      </trkpt>
      <trkpt lat="44.78918" lon="5.46286">
        <ele>1503.64</ele>
        <time>2018-11-18T11:33:49Z</time>
      </trkpt>
      <trkpt lat="44.78914" lon="5.46287">
        <ele>1505.56</ele>
        <time>2018-11-18T11:34:02Z</time>
      </trkpt>
      <trkpt lat="44.7891" lon="5.46287">
        <ele>1507</ele>
        <time>2018-11-18T11:34:14Z</time>
      </trkpt>
      <trkpt lat="44.78907" lon="5.46288">
        <ele>1508.93</ele>
        <time>2018-11-18T11:34:28Z</time>
      </trkpt>
      <trkpt lat="44.78901" lon="5.46292">
        <ele>1511.33</ele>
        <time>2018-11-18T11:34:44Z</time>
      </trkpt>
      <trkpt lat="44.78901" lon="5.46289">
        <ele>1512.77</ele>
        <time>2018-11-18T11:34:55Z</time>
      </trkpt>
      <trkpt lat="44.78896" lon="5.46284">
        <ele>1514.21</ele>
        <time>2018-11-18T11:35:07Z</time>
      </trkpt>
      <trkpt lat="44.7889" lon="5.46284">
        <ele>1515.66</ele>
        <time>2018-11-18T11:35:20Z</time>
      </trkpt>
      <trkpt lat="44.78888" lon="5.46282">
        <ele>1517.58</ele>
        <time>2018-11-18T11:35:32Z</time>
      </trkpt>
      <trkpt lat="44.78882" lon="5.46278">
        <ele>1519.5</ele>
        <time>2018-11-18T11:35:45Z</time>
      </trkpt>
      <trkpt lat="44.78878" lon="5.46278">
        <ele>1520.94</ele>
        <time>2018-11-18T11:35:57Z</time>
      </trkpt>
      <trkpt lat="44.78875" lon="5.46276">
        <ele>1522.87</ele>
        <time>2018-11-18T11:36:11Z</time>
      </trkpt>
      <trkpt lat="44.78872" lon="5.46273">
        <ele>1524.79</ele>
        <time>2018-11-18T11:36:22Z</time>
      </trkpt>
      <trkpt lat="44.78869" lon="5.46269">
        <ele>1526.71</ele>
        <time>2018-11-18T11:36:35Z</time>
      </trkpt>
      <trkpt lat="44.78866" lon="5.46263">
        <ele>1528.15</ele>
        <time>2018-11-18T11:36:48Z</time>
      </trkpt>
      <trkpt lat="44.78861" lon="5.46259">
        <ele>1529.59</ele>
        <time>2018-11-18T11:37:01Z</time>
      </trkpt>
      <trkpt lat="44.78857" lon="5.46252">
        <ele>1532.48</ele>
        <time>2018-11-18T11:37:15Z</time>
      </trkpt>
      <trkpt lat="44.78856" lon="5.4625">
        <ele>1532.96</ele>
        <time>2018-11-18T11:37:30Z</time>
      </trkpt>
      <trkpt lat="44.78853" lon="5.46248">
        <ele>1534.4</ele>
        <time>2018-11-18T11:37:44Z</time>
      </trkpt>
      <trkpt lat="44.7885" lon="5.46243">
        <ele>1535.36</ele>
        <time>2018-11-18T11:37:56Z</time>
      </trkpt>
      <trkpt lat="44.78847" lon="5.46243">
        <ele>1536.8</ele>
        <time>2018-11-18T11:38:10Z</time>
      </trkpt>
      <trkpt lat="44.78844" lon="5.46245">
        <ele>1538.25</ele>
        <time>2018-11-18T11:38:25Z</time>
      </trkpt>
      <trkpt lat="44.78842" lon="5.46245">
        <ele>1540.65</ele>
        <time>2018-11-18T11:38:39Z</time>
      </trkpt>
      <trkpt lat="44.78839" lon="5.46245">
        <ele>1541.61</ele>
        <time>2018-11-18T11:38:54Z</time>
      </trkpt>
      <trkpt lat="44.78837" lon="5.46246">
        <ele>1544.01</ele>
        <time>2018-11-18T11:39:06Z</time>
      </trkpt>
      <trkpt lat="44.78835" lon="5.46247">
        <ele>1545.46</ele>
        <time>2018-11-18T11:39:23Z</time>
      </trkpt>
      <trkpt lat="44.78834" lon="5.46253">
        <ele>1547.38</ele>
        <time>2018-11-18T11:39:35Z</time>
      </trkpt>
      <trkpt lat="44.78832" lon="5.4626">
        <ele>1548.82</ele>
        <time>2018-11-18T11:39:47Z</time>
      </trkpt>
      <trkpt lat="44.78832" lon="5.46264">
        <ele>1550.26</ele>
        <time>2018-11-18T11:40:02Z</time>
      </trkpt>
      <trkpt lat="44.78833" lon="5.46273">
        <ele>1553.15</ele>
        <time>2018-11-18T11:40:16Z</time>
      </trkpt>
      <trkpt lat="44.78834" lon="5.46275">
        <ele>1553.63</ele>
        <time>2018-11-18T11:40:36Z</time>
      </trkpt>
      <trkpt lat="44.78838" lon="5.46274">
        <ele>1555.55</ele>
        <time>2018-11-18T11:40:48Z</time>
      </trkpt>
      <trkpt lat="44.78837" lon="5.46279">
        <ele>1557.47</ele>
        <time>2018-11-18T11:40:59Z</time>
      </trkpt>
      <trkpt lat="44.78837" lon="5.46282">
        <ele>1558.92</ele>
        <time>2018-11-18T11:41:12Z</time>
      </trkpt>
      <trkpt lat="44.78837" lon="5.46282">
        <ele>1560.36</ele>
        <time>2018-11-18T11:41:22Z</time>
      </trkpt>
      <trkpt lat="44.78835" lon="5.46284">
        <ele>1561.32</ele>
        <time>2018-11-18T11:41:33Z</time>
      </trkpt>
      <trkpt lat="44.78831" lon="5.46291">
        <ele>1563.24</ele>
        <time>2018-11-18T11:41:46Z</time>
      </trkpt>
      <trkpt lat="44.78835" lon="5.46295">
        <ele>1565.64</ele>
        <time>2018-11-18T11:41:58Z</time>
      </trkpt>
      <trkpt lat="44.78835" lon="5.46299">
        <ele>1567.57</ele>
        <time>2018-11-18T11:42:10Z</time>
      </trkpt>
      <trkpt lat="44.78844" lon="5.46292">
        <ele>1568.53</ele>
        <time>2018-11-18T11:42:24Z</time>
      </trkpt>
      <trkpt lat="44.78842" lon="5.46299">
        <ele>1569.49</ele>
        <time>2018-11-18T11:42:38Z</time>
      </trkpt>
      <trkpt lat="44.78843" lon="5.46303">
        <ele>1569.97</ele>
        <time>2018-11-18T11:42:49Z</time>
      </trkpt>
      <trkpt lat="44.78852" lon="5.46303">
        <ele>1572.37</ele>
        <time>2018-11-18T11:43:02Z</time>
      </trkpt>
      <trkpt lat="44.78858" lon="5.46307">
        <ele>1574.3</ele>
        <time>2018-11-18T11:43:16Z</time>
      </trkpt>
      <trkpt lat="44.78859" lon="5.46308">
        <ele>1574.78</ele>
        <time>2018-11-18T11:43:18Z</time>
      </trkpt>
      <trkpt lat="44.78863" lon="5.46314">
        <ele>1576.22</ele>
        <time>2018-11-18T11:43:28Z</time>
      </trkpt>
      <trkpt lat="44.78871" lon="5.46314">
        <ele>1577.66</ele>
        <time>2018-11-18T11:43:41Z</time>
      </trkpt>
      <trkpt lat="44.78869" lon="5.4632">
        <ele>1579.58</ele>
        <time>2018-11-18T11:43:52Z</time>
      </trkpt>
      <trkpt lat="44.78869" lon="5.46328">
        <ele>1581.51</ele>
        <time>2018-11-18T11:44:05Z</time>
      </trkpt>
      <trkpt lat="44.78869" lon="5.46335">
        <ele>1583.43</ele>
        <time>2018-11-18T11:44:17Z</time>
      </trkpt>
      <trkpt lat="44.78866" lon="5.46333">
        <ele>1585.35</ele>
        <time>2018-11-18T11:44:31Z</time>
      </trkpt>
      <trkpt lat="44.78862" lon="5.46334">
        <ele>1587.27</ele>
        <time>2018-11-18T11:44:46Z</time>
      </trkpt>
      <trkpt lat="44.78859" lon="5.46342">
        <ele>1588.24</ele>
        <time>2018-11-18T11:45:00Z</time>
      </trkpt>
      <trkpt lat="44.78859" lon="5.4634">
        <ele>1588.24</ele>
        <time>2018-11-18T11:45:16Z</time>
      </trkpt>
      <trkpt lat="44.78857" lon="5.46342">
        <ele>1588.72</ele>
        <time>2018-11-18T11:45:50Z</time>
      </trkpt>
      <trkpt lat="44.78852" lon="5.46344">
        <ele>1588.24</ele>
        <time>2018-11-18T11:46:13Z</time>
      </trkpt>
      <trkpt lat="44.78854" lon="5.46345">
        <ele>1588.24</ele>
        <time>2018-11-18T11:46:37Z</time>
      </trkpt>
      <trkpt lat="44.78855" lon="5.46343">
        <ele>1588.24</ele>
        <time>2018-11-18T11:46:57Z</time>
      </trkpt>
      <trkpt lat="44.78853" lon="5.46343">
        <ele>1588.24</ele>
        <time>2018-11-18T11:47:25Z</time>
      </trkpt>
      <trkpt lat="44.78857" lon="5.46349">
        <ele>1590.16</ele>
        <time>2018-11-18T11:47:39Z</time>
      </trkpt>
      <trkpt lat="44.78858" lon="5.46353">
        <ele>1591.12</ele>
        <time>2018-11-18T11:47:44Z</time>
      </trkpt>
      <trkpt lat="44.78858" lon="5.46363">
        <ele>1593.04</ele>
        <time>2018-11-18T11:47:56Z</time>
      </trkpt>
      <trkpt lat="44.78858" lon="5.4637">
        <ele>1595.45</ele>
        <time>2018-11-18T11:48:06Z</time>
      </trkpt>
      <trkpt lat="44.78859" lon="5.46375">
        <ele>1596.89</ele>
        <time>2018-11-18T11:48:17Z</time>
      </trkpt>
      <trkpt lat="44.78859" lon="5.46376">
        <ele>1597.85</ele>
        <time>2018-11-18T11:48:21Z</time>
      </trkpt>
      <trkpt lat="44.78859" lon="5.46384">
        <ele>1599.29</ele>
        <time>2018-11-18T11:48:31Z</time>
      </trkpt>
      <trkpt lat="44.7886" lon="5.46392">
        <ele>1601.21</ele>
        <time>2018-11-18T11:48:42Z</time>
      </trkpt>
      <trkpt lat="44.78862" lon="5.46401">
        <ele>1602.17</ele>
        <time>2018-11-18T11:48:54Z</time>
      </trkpt>
      <trkpt lat="44.78863" lon="5.46405">
        <ele>1601.69</ele>
        <time>2018-11-18T11:48:57Z</time>
      </trkpt>
      <trkpt lat="44.78867" lon="5.4641">
        <ele>1600.25</ele>
        <time>2018-11-18T11:49:03Z</time>
      </trkpt>
      <trkpt lat="44.78871" lon="5.46411">
        <ele>1599.29</ele>
        <time>2018-11-18T11:49:07Z</time>
      </trkpt>
      <trkpt lat="44.78872" lon="5.46415">
        <ele>1598.81</ele>
        <time>2018-11-18T11:49:11Z</time>
      </trkpt>
      <trkpt lat="44.7888" lon="5.4642">
        <ele>1600.25</ele>
        <time>2018-11-18T11:49:21Z</time>
      </trkpt>
      <trkpt lat="44.78889" lon="5.46424">
        <ele>1601.21</ele>
        <time>2018-11-18T11:49:29Z</time>
      </trkpt>
      <trkpt lat="44.789" lon="5.46428">
        <ele>1602.66</ele>
        <time>2018-11-18T11:49:41Z</time>
      </trkpt>
      <trkpt lat="44.78906" lon="5.46431">
        <ele>1604.1</ele>
        <time>2018-11-18T11:49:50Z</time>
      </trkpt>
      <trkpt lat="44.7891" lon="5.46434">
        <ele>1605.54</ele>
        <time>2018-11-18T11:49:56Z</time>
      </trkpt>
      <trkpt lat="44.78911" lon="5.46437">
        <ele>1605.54</ele>
        <time>2018-11-18T11:49:59Z</time>
      </trkpt>
      <trkpt lat="44.7892" lon="5.46448">
        <ele>1608.42</ele>
        <time>2018-11-18T11:50:14Z</time>
      </trkpt>
      <trkpt lat="44.78922" lon="5.46449">
        <ele>1608.9</ele>
        <time>2018-11-18T11:50:16Z</time>
      </trkpt>
      <trkpt lat="44.78929" lon="5.46457">
        <ele>1610.35</ele>
        <time>2018-11-18T11:50:27Z</time>
      </trkpt>
      <trkpt lat="44.7893" lon="5.46459">
        <ele>1610.83</ele>
        <time>2018-11-18T11:50:30Z</time>
      </trkpt>
      <trkpt lat="44.78936" lon="5.46468">
        <ele>1612.75</ele>
        <time>2018-11-18T11:50:41Z</time>
      </trkpt>
      <trkpt lat="44.78938" lon="5.46469">
        <ele>1613.23</ele>
        <time>2018-11-18T11:50:44Z</time>
      </trkpt>
      <trkpt lat="44.78941" lon="5.46472">
        <ele>1613.71</ele>
        <time>2018-11-18T11:50:49Z</time>
      </trkpt>
      <trkpt lat="44.78945" lon="5.46476">
        <ele>1614.19</ele>
        <time>2018-11-18T11:50:55Z</time>
      </trkpt>
      <trkpt lat="44.78947" lon="5.46478">
        <ele>1613.71</ele>
        <time>2018-11-18T11:51:00Z</time>
      </trkpt>
      <trkpt lat="44.7896" lon="5.4648">
        <ele>1615.63</ele>
        <time>2018-11-18T11:51:15Z</time>
      </trkpt>
      <trkpt lat="44.78967" lon="5.46483">
        <ele>1617.07</ele>
        <time>2018-11-18T11:51:27Z</time>
      </trkpt>
      <trkpt lat="44.78975" lon="5.46484">
        <ele>1619</ele>
        <time>2018-11-18T11:51:40Z</time>
      </trkpt>
      <trkpt lat="44.78986" lon="5.46485">
        <ele>1620.44</ele>
        <time>2018-11-18T11:51:54Z</time>
      </trkpt>
      <trkpt lat="44.78991" lon="5.46484">
        <ele>1621.4</ele>
        <time>2018-11-18T11:52:01Z</time>
      </trkpt>
      <trkpt lat="44.78994" lon="5.46479">
        <ele>1621.88</ele>
        <time>2018-11-18T11:52:04Z</time>
      </trkpt>
      <trkpt lat="44.79005" lon="5.46474">
        <ele>1622.84</ele>
        <time>2018-11-18T11:52:15Z</time>
      </trkpt>
      <trkpt lat="44.79007" lon="5.46475">
        <ele>1623.32</ele>
        <time>2018-11-18T11:52:17Z</time>
      </trkpt>
      <trkpt lat="44.79012" lon="5.46476">
        <ele>1623.32</ele>
        <time>2018-11-18T11:52:21Z</time>
      </trkpt>
      <trkpt lat="44.79015" lon="5.46475">
        <ele>1623.8</ele>
        <time>2018-11-18T11:52:24Z</time>
      </trkpt>
      <trkpt lat="44.79016" lon="5.46478">
        <ele>1624.28</ele>
        <time>2018-11-18T11:52:29Z</time>
      </trkpt>
      <trkpt lat="44.79027" lon="5.46481">
        <ele>1625.73</ele>
        <time>2018-11-18T11:52:41Z</time>
      </trkpt>
      <trkpt lat="44.79032" lon="5.46486">
        <ele>1627.17</ele>
        <time>2018-11-18T11:52:52Z</time>
      </trkpt>
      <trkpt lat="44.79034" lon="5.46488">
        <ele>1628.13</ele>
        <time>2018-11-18T11:52:57Z</time>
      </trkpt>
      <trkpt lat="44.7904" lon="5.46489">
        <ele>1630.05</ele>
        <time>2018-11-18T11:53:10Z</time>
      </trkpt>
      <trkpt lat="44.79043" lon="5.4649">
        <ele>1631.49</ele>
        <time>2018-11-18T11:53:16Z</time>
      </trkpt>
      <trkpt lat="44.79046" lon="5.46491">
        <ele>1631.98</ele>
        <time>2018-11-18T11:53:19Z</time>
      </trkpt>
      <trkpt lat="44.79049" lon="5.4649">
        <ele>1632.46</ele>
        <time>2018-11-18T11:53:22Z</time>
      </trkpt>
      <trkpt lat="44.7905" lon="5.46492">
        <ele>1632.46</ele>
        <time>2018-11-18T11:53:26Z</time>
      </trkpt>
      <trkpt lat="44.79053" lon="5.46493">
        <ele>1633.42</ele>
        <time>2018-11-18T11:53:31Z</time>
      </trkpt>
      <trkpt lat="44.7906" lon="5.46496">
        <ele>1634.86</ele>
        <time>2018-11-18T11:53:40Z</time>
      </trkpt>
      <trkpt lat="44.79064" lon="5.46494">
        <ele>1634.38</ele>
        <time>2018-11-18T11:53:42Z</time>
      </trkpt>
      <trkpt lat="44.79069" lon="5.46491">
        <ele>1634.38</ele>
        <time>2018-11-18T11:53:45Z</time>
      </trkpt>
      <trkpt lat="44.79074" lon="5.46491">
        <ele>1635.34</ele>
        <time>2018-11-18T11:53:51Z</time>
      </trkpt>
      <trkpt lat="44.79076" lon="5.4649">
        <ele>1635.34</ele>
        <time>2018-11-18T11:53:53Z</time>
      </trkpt>
      <trkpt lat="44.79088" lon="5.46482">
        <ele>1636.3</ele>
        <time>2018-11-18T11:54:07Z</time>
      </trkpt>
      <trkpt lat="44.79097" lon="5.46481">
        <ele>1638.22</ele>
        <time>2018-11-18T11:54:21Z</time>
      </trkpt>
      <trkpt lat="44.79105" lon="5.46479">
        <ele>1640.15</ele>
        <time>2018-11-18T11:54:34Z</time>
      </trkpt>
      <trkpt lat="44.79113" lon="5.46477">
        <ele>1641.59</ele>
        <time>2018-11-18T11:54:47Z</time>
      </trkpt>
      <trkpt lat="44.79116" lon="5.46475">
        <ele>1642.55</ele>
        <time>2018-11-18T11:54:52Z</time>
      </trkpt>
      <trkpt lat="44.79123" lon="5.46477">
        <ele>1644.47</ele>
        <time>2018-11-18T11:55:06Z</time>
      </trkpt>
      <trkpt lat="44.79128" lon="5.46477">
        <ele>1644.95</ele>
        <time>2018-11-18T11:55:14Z</time>
      </trkpt>
      <trkpt lat="44.79138" lon="5.46475">
        <ele>1647.36</ele>
        <time>2018-11-18T11:55:27Z</time>
      </trkpt>
      <trkpt lat="44.79148" lon="5.4647">
        <ele>1647.84</ele>
        <time>2018-11-18T11:55:39Z</time>
      </trkpt>
      <trkpt lat="44.79156" lon="5.46466">
        <ele>1648.32</ele>
        <time>2018-11-18T11:55:48Z</time>
      </trkpt>
      <trkpt lat="44.79165" lon="5.46464">
        <ele>1648.8</ele>
        <time>2018-11-18T11:56:05Z</time>
      </trkpt>
      <trkpt lat="44.79166" lon="5.46464">
        <ele>1648.8</ele>
        <time>2018-11-18T11:56:29Z</time>
      </trkpt>
      <trkpt lat="44.79167" lon="5.46466">
        <ele>1648.8</ele>
        <time>2018-11-18T11:56:48Z</time>
      </trkpt>
      <trkpt lat="44.79167" lon="5.46464">
        <ele>1648.8</ele>
        <time>2018-11-18T11:56:57Z</time>
      </trkpt>
      <trkpt lat="44.79171" lon="5.46463">
        <ele>1649.28</ele>
        <time>2018-11-18T11:57:03Z</time>
      </trkpt>
      <trkpt lat="44.79174" lon="5.46463">
        <ele>1649.76</ele>
        <time>2018-11-18T11:57:06Z</time>
      </trkpt>
      <trkpt lat="44.79175" lon="5.46463">
        <ele>1649.76</ele>
        <time>2018-11-18T11:57:07Z</time>
      </trkpt>
      <trkpt lat="44.79178" lon="5.46462">
        <ele>1649.76</ele>
        <time>2018-11-18T11:57:10Z</time>
      </trkpt>
      <trkpt lat="44.79182" lon="5.46458">
        <ele>1649.28</ele>
        <time>2018-11-18T11:57:23Z</time>
      </trkpt>
      <trkpt lat="44.79184" lon="5.46461">
        <ele>1649.28</ele>
        <time>2018-11-18T11:57:44Z</time>
      </trkpt>
      <trkpt lat="44.79191" lon="5.46459">
        <ele>1649.28</ele>
        <time>2018-11-18T11:57:52Z</time>
      </trkpt>
      <trkpt lat="44.79192" lon="5.46459">
        <ele>1649.28</ele>
        <time>2018-11-18T11:57:53Z</time>
      </trkpt>
      <trkpt lat="44.79195" lon="5.46456">
        <ele>1649.28</ele>
        <time>2018-11-18T11:58:03Z</time>
      </trkpt>
      <trkpt lat="44.79196" lon="5.46456">
        <ele>1648.32</ele>
        <time>2018-11-18T11:58:04Z</time>
      </trkpt>
      <trkpt lat="44.79199" lon="5.46455">
        <ele>1648.32</ele>
        <time>2018-11-18T11:58:07Z</time>
      </trkpt>
      <trkpt lat="44.792" lon="5.46454">
        <ele>1648.32</ele>
        <time>2018-11-18T11:58:08Z</time>
      </trkpt>
      <trkpt lat="44.79201" lon="5.46453">
        <ele>1648.32</ele>
        <time>2018-11-18T11:58:09Z</time>
      </trkpt>
      <trkpt lat="44.79203" lon="5.46453">
        <ele>1648.32</ele>
        <time>2018-11-18T11:58:11Z</time>
      </trkpt>
      <trkpt lat="44.79204" lon="5.46454">
        <ele>1647.84</ele>
        <time>2018-11-18T11:58:12Z</time>
      </trkpt>
      <trkpt lat="44.79205" lon="5.46453">
        <ele>1647.84</ele>
        <time>2018-11-18T11:58:13Z</time>
      </trkpt>
      <trkpt lat="44.79208" lon="5.46451">
        <ele>1647.84</ele>
        <time>2018-11-18T11:58:18Z</time>
      </trkpt>
      <trkpt lat="44.7921" lon="5.4645">
        <ele>1647.84</ele>
        <time>2018-11-18T11:58:19Z</time>
      </trkpt>
      <trkpt lat="44.79212" lon="5.4645">
        <ele>1647.84</ele>
        <time>2018-11-18T11:58:21Z</time>
      </trkpt>
      <trkpt lat="44.79213" lon="5.46451">
        <ele>1647.84</ele>
        <time>2018-11-18T11:58:22Z</time>
      </trkpt>
      <trkpt lat="44.79215" lon="5.4645">
        <ele>1647.84</ele>
        <time>2018-11-18T11:58:25Z</time>
      </trkpt>
      <trkpt lat="44.79217" lon="5.4645">
        <ele>1647.84</ele>
        <time>2018-11-18T11:58:26Z</time>
      </trkpt>
      <trkpt lat="44.79218" lon="5.4645">
        <ele>1647.84</ele>
        <time>2018-11-18T11:58:27Z</time>
      </trkpt>
      <trkpt lat="44.79221" lon="5.46449">
        <ele>1647.84</ele>
        <time>2018-11-18T11:58:31Z</time>
      </trkpt>
      <trkpt lat="44.79223" lon="5.46448">
        <ele>1647.84</ele>
        <time>2018-11-18T11:58:33Z</time>
      </trkpt>
      <trkpt lat="44.79224" lon="5.46448">
        <ele>1647.84</ele>
        <time>2018-11-18T11:58:34Z</time>
      </trkpt>
      <trkpt lat="44.79231" lon="5.46447">
        <ele>1647.36</ele>
        <time>2018-11-18T11:58:40Z</time>
      </trkpt>
      <trkpt lat="44.79233" lon="5.46446">
        <ele>1646.4</ele>
        <time>2018-11-18T11:58:43Z</time>
      </trkpt>
      <trkpt lat="44.79234" lon="5.46445">
        <ele>1646.4</ele>
        <time>2018-11-18T11:58:44Z</time>
      </trkpt>
      <trkpt lat="44.79238" lon="5.46444">
        <ele>1646.4</ele>
        <time>2018-11-18T11:58:49Z</time>
      </trkpt>
      <trkpt lat="44.7924" lon="5.46443">
        <ele>1646.4</ele>
        <time>2018-11-18T11:58:50Z</time>
      </trkpt>
      <trkpt lat="44.79241" lon="5.46443">
        <ele>1646.4</ele>
        <time>2018-11-18T11:58:51Z</time>
      </trkpt>
      <trkpt lat="44.79242" lon="5.46443">
        <ele>1646.4</ele>
        <time>2018-11-18T11:58:52Z</time>
      </trkpt>
      <trkpt lat="44.79243" lon="5.46443">
        <ele>1646.4</ele>
        <time>2018-11-18T11:58:53Z</time>
      </trkpt>
      <trkpt lat="44.79245" lon="5.46442">
        <ele>1646.4</ele>
        <time>2018-11-18T11:58:55Z</time>
      </trkpt>
      <trkpt lat="44.79249" lon="5.46442">
        <ele>1646.4</ele>
        <time>2018-11-18T11:58:59Z</time>
      </trkpt>
      <trkpt lat="44.79251" lon="5.46441">
        <ele>1646.4</ele>
        <time>2018-11-18T11:59:02Z</time>
      </trkpt>
      <trkpt lat="44.79252" lon="5.46441">
        <ele>1646.4</ele>
        <time>2018-11-18T11:59:03Z</time>
      </trkpt>
      <trkpt lat="44.79255" lon="5.4644">
        <ele>1646.4</ele>
        <time>2018-11-18T11:59:06Z</time>
      </trkpt>
      <trkpt lat="44.79259" lon="5.46439">
        <ele>1647.36</ele>
        <time>2018-11-18T11:59:10Z</time>
      </trkpt>
      <trkpt lat="44.7926" lon="5.46439">
        <ele>1647.36</ele>
        <time>2018-11-18T11:59:11Z</time>
      </trkpt>
      <trkpt lat="44.79263" lon="5.46439">
        <ele>1647.84</ele>
        <time>2018-11-18T11:59:15Z</time>
      </trkpt>
      <trkpt lat="44.79265" lon="5.4644">
        <ele>1647.84</ele>
        <time>2018-11-18T11:59:17Z</time>
      </trkpt>
      <trkpt lat="44.79271" lon="5.46442">
        <ele>1648.8</ele>
        <time>2018-11-18T11:59:24Z</time>
      </trkpt>
      <trkpt lat="44.79277" lon="5.46445">
        <ele>1649.28</ele>
        <time>2018-11-18T11:59:31Z</time>
      </trkpt>
      <trkpt lat="44.79278" lon="5.46446">
        <ele>1650.24</ele>
        <time>2018-11-18T11:59:32Z</time>
      </trkpt>
      <trkpt lat="44.7928" lon="5.46446">
        <ele>1650.24</ele>
        <time>2018-11-18T11:59:34Z</time>
      </trkpt>
      <trkpt lat="44.79281" lon="5.46446">
        <ele>1650.24</ele>
        <time>2018-11-18T11:59:35Z</time>
      </trkpt>
      <trkpt lat="44.7929" lon="5.46449">
        <ele>1651.68</ele>
        <time>2018-11-18T11:59:48Z</time>
      </trkpt>
      <trkpt lat="44.79298" lon="5.46452">
        <ele>1652.64</ele>
        <time>2018-11-18T11:59:57Z</time>
      </trkpt>
      <trkpt lat="44.79301" lon="5.46456">
        <ele>1653.12</ele>
        <time>2018-11-18T12:00:01Z</time>
      </trkpt>
      <trkpt lat="44.7931" lon="5.4646">
        <ele>1654.57</ele>
        <time>2018-11-18T12:00:15Z</time>
      </trkpt>
      <trkpt lat="44.79311" lon="5.4646">
        <ele>1655.53</ele>
        <time>2018-11-18T12:00:16Z</time>
      </trkpt>
      <trkpt lat="44.79312" lon="5.4646">
        <ele>1655.05</ele>
        <time>2018-11-18T12:00:17Z</time>
      </trkpt>
      <trkpt lat="44.79321" lon="5.46465">
        <ele>1656.97</ele>
        <time>2018-11-18T12:00:30Z</time>
      </trkpt>
      <trkpt lat="44.79328" lon="5.46469">
        <ele>1658.41</ele>
        <time>2018-11-18T12:00:39Z</time>
      </trkpt>
      <trkpt lat="44.79334" lon="5.46475">
        <ele>1659.37</ele>
        <time>2018-11-18T12:00:49Z</time>
      </trkpt>
      <trkpt lat="44.79334" lon="5.46476">
        <ele>1659.37</ele>
        <time>2018-11-18T12:00:50Z</time>
      </trkpt>
      <trkpt lat="44.79337" lon="5.46478">
        <ele>1659.85</ele>
        <time>2018-11-18T12:00:53Z</time>
      </trkpt>
      <trkpt lat="44.79337" lon="5.4648">
        <ele>1660.33</ele>
        <time>2018-11-18T12:00:54Z</time>
      </trkpt>
      <trkpt lat="44.79339" lon="5.46482">
        <ele>1660.81</ele>
        <time>2018-11-18T12:00:57Z</time>
      </trkpt>
      <trkpt lat="44.7934" lon="5.46483">
        <ele>1660.81</ele>
        <time>2018-11-18T12:00:58Z</time>
      </trkpt>
      <trkpt lat="44.79341" lon="5.46485">
        <ele>1660.81</ele>
        <time>2018-11-18T12:01:01Z</time>
      </trkpt>
      <trkpt lat="44.79341" lon="5.46486">
        <ele>1660.81</ele>
        <time>2018-11-18T12:01:02Z</time>
      </trkpt>
      <trkpt lat="44.79342" lon="5.46489">
        <ele>1661.3</ele>
        <time>2018-11-18T12:01:05Z</time>
      </trkpt>
      <trkpt lat="44.79347" lon="5.46495">
        <ele>1661.78</ele>
        <time>2018-11-18T12:01:12Z</time>
      </trkpt>
      <trkpt lat="44.79349" lon="5.46497">
        <ele>1661.78</ele>
        <time>2018-11-18T12:01:15Z</time>
      </trkpt>
      <trkpt lat="44.7935" lon="5.46498">
        <ele>1661.78</ele>
        <time>2018-11-18T12:01:16Z</time>
      </trkpt>
      <trkpt lat="44.7935" lon="5.46498">
        <ele>1661.78</ele>
        <time>2018-11-18T12:01:17Z</time>
      </trkpt>
      <trkpt lat="44.79352" lon="5.46501">
        <ele>1661.78</ele>
        <time>2018-11-18T12:01:21Z</time>
      </trkpt>
      <trkpt lat="44.79355" lon="5.46503">
        <ele>1662.26</ele>
        <time>2018-11-18T12:01:25Z</time>
      </trkpt>
      <trkpt lat="44.79357" lon="5.46504">
        <ele>1662.26</ele>
        <time>2018-11-18T12:01:27Z</time>
      </trkpt>
      <trkpt lat="44.79362" lon="5.46508">
        <ele>1662.26</ele>
        <time>2018-11-18T12:01:33Z</time>
      </trkpt>
      <trkpt lat="44.79364" lon="5.4651">
        <ele>1660.81</ele>
        <time>2018-11-18T12:01:36Z</time>
      </trkpt>
      <trkpt lat="44.79366" lon="5.46511">
        <ele>1660.81</ele>
        <time>2018-11-18T12:01:38Z</time>
      </trkpt>
      <trkpt lat="44.79367" lon="5.46512">
        <ele>1660.81</ele>
        <time>2018-11-18T12:01:39Z</time>
      </trkpt>
      <trkpt lat="44.79367" lon="5.46513">
        <ele>1660.81</ele>
        <time>2018-11-18T12:01:40Z</time>
      </trkpt>
      <trkpt lat="44.79368" lon="5.46514">
        <ele>1660.81</ele>
        <time>2018-11-18T12:01:41Z</time>
      </trkpt>
      <trkpt lat="44.79369" lon="5.46514">
        <ele>1660.81</ele>
        <time>2018-11-18T12:01:42Z</time>
      </trkpt>
      <trkpt lat="44.79378" lon="5.46514">
        <ele>1660.81</ele>
        <time>2018-11-18T12:01:50Z</time>
      </trkpt>
      <trkpt lat="44.79379" lon="5.46515">
        <ele>1660.81</ele>
        <time>2018-11-18T12:01:51Z</time>
      </trkpt>
      <trkpt lat="44.79386" lon="5.46519">
        <ele>1660.33</ele>
        <time>2018-11-18T12:01:58Z</time>
      </trkpt>
      <trkpt lat="44.7939" lon="5.4652">
        <ele>1660.33</ele>
        <time>2018-11-18T12:02:02Z</time>
      </trkpt>
      <trkpt lat="44.79399" lon="5.46516">
        <ele>1660.33</ele>
        <time>2018-11-18T12:02:13Z</time>
      </trkpt>
      <trkpt lat="44.79401" lon="5.46515">
        <ele>1661.78</ele>
        <time>2018-11-18T12:02:16Z</time>
      </trkpt>
      <trkpt lat="44.79401" lon="5.46506">
        <ele>1663.7</ele>
        <time>2018-11-18T12:02:27Z</time>
      </trkpt>
      <trkpt lat="44.79402" lon="5.46504">
        <ele>1664.18</ele>
        <time>2018-11-18T12:02:29Z</time>
      </trkpt>
      <trkpt lat="44.79401" lon="5.46496">
        <ele>1666.1</ele>
        <time>2018-11-18T12:02:39Z</time>
      </trkpt>
      <trkpt lat="44.79401" lon="5.46487">
        <ele>1668.02</ele>
        <time>2018-11-18T12:02:53Z</time>
      </trkpt>
      <trkpt lat="44.79398" lon="5.46481">
        <ele>1669.95</ele>
        <time>2018-11-18T12:03:04Z</time>
      </trkpt>
      <trkpt lat="44.79397" lon="5.46472">
        <ele>1671.39</ele>
        <time>2018-11-18T12:03:17Z</time>
      </trkpt>
      <trkpt lat="44.79394" lon="5.46466">
        <ele>1671.87</ele>
        <time>2018-11-18T12:03:29Z</time>
      </trkpt>
      <trkpt lat="44.79392" lon="5.46465">
        <ele>1671.87</ele>
        <time>2018-11-18T12:03:47Z</time>
      </trkpt>
      <trkpt lat="44.79393" lon="5.46461">
        <ele>1671.87</ele>
        <time>2018-11-18T12:03:55Z</time>
      </trkpt>
      <trkpt lat="44.79393" lon="5.46457">
        <ele>1671.87</ele>
        <time>2018-11-18T12:03:57Z</time>
      </trkpt>
      <trkpt lat="44.79392" lon="5.46451">
        <ele>1671.87</ele>
        <time>2018-11-18T12:04:02Z</time>
      </trkpt>
      <trkpt lat="44.79391" lon="5.46447">
        <ele>1671.87</ele>
        <time>2018-11-18T12:04:05Z</time>
      </trkpt>
      <trkpt lat="44.79389" lon="5.46437">
        <ele>1672.35</ele>
        <time>2018-11-18T12:04:15Z</time>
      </trkpt>
      <trkpt lat="44.7939" lon="5.46429">
        <ele>1672.35</ele>
        <time>2018-11-18T12:04:22Z</time>
      </trkpt>
      <trkpt lat="44.79391" lon="5.46416">
        <ele>1673.79</ele>
        <time>2018-11-18T12:04:36Z</time>
      </trkpt>
      <trkpt lat="44.79393" lon="5.46409">
        <ele>1675.23</ele>
        <time>2018-11-18T12:04:47Z</time>
      </trkpt>
      <trkpt lat="44.79394" lon="5.46402">
        <ele>1676.2</ele>
        <time>2018-11-18T12:05:00Z</time>
      </trkpt>
      <trkpt lat="44.79394" lon="5.46392">
        <ele>1678.6</ele>
        <time>2018-11-18T12:05:13Z</time>
      </trkpt>
      <trkpt lat="44.79394" lon="5.46382">
        <ele>1681.48</ele>
        <time>2018-11-18T12:05:27Z</time>
      </trkpt>
      <trkpt lat="44.79396" lon="5.46372">
        <ele>1683.41</ele>
        <time>2018-11-18T12:05:44Z</time>
      </trkpt>
      <trkpt lat="44.79396" lon="5.46366">
        <ele>1686.29</ele>
        <time>2018-11-18T12:05:59Z</time>
      </trkpt>
      <trkpt lat="44.79397" lon="5.46356">
        <ele>1688.69</ele>
        <time>2018-11-18T12:06:16Z</time>
      </trkpt>
      <trkpt lat="44.79396" lon="5.4635">
        <ele>1691.1</ele>
        <time>2018-11-18T12:06:28Z</time>
      </trkpt>
      <trkpt lat="44.79396" lon="5.46344">
        <ele>1693.5</ele>
        <time>2018-11-18T12:06:39Z</time>
      </trkpt>
      <trkpt lat="44.79398" lon="5.46337">
        <ele>1694.94</ele>
        <time>2018-11-18T12:06:53Z</time>
      </trkpt>
      <trkpt lat="44.79402" lon="5.46335">
        <ele>1696.86</ele>
        <time>2018-11-18T12:07:07Z</time>
      </trkpt>
      <trkpt lat="44.79406" lon="5.46333">
        <ele>1699.27</ele>
        <time>2018-11-18T12:07:19Z</time>
      </trkpt>
      <trkpt lat="44.79411" lon="5.46332">
        <ele>1702.63</ele>
        <time>2018-11-18T12:07:35Z</time>
      </trkpt>
      <trkpt lat="44.79415" lon="5.46326">
        <ele>1705.04</ele>
        <time>2018-11-18T12:07:51Z</time>
      </trkpt>
      <trkpt lat="44.79417" lon="5.46321">
        <ele>1706.96</ele>
        <time>2018-11-18T12:08:00Z</time>
      </trkpt>
      <trkpt lat="44.79419" lon="5.46313">
        <ele>1708.4</ele>
        <time>2018-11-18T12:08:13Z</time>
      </trkpt>
      <trkpt lat="44.79423" lon="5.46311">
        <ele>1711.28</ele>
        <time>2018-11-18T12:08:28Z</time>
      </trkpt>
      <trkpt lat="44.79428" lon="5.46308">
        <ele>1713.69</ele>
        <time>2018-11-18T12:08:43Z</time>
      </trkpt>
      <trkpt lat="44.79433" lon="5.46304">
        <ele>1717.05</ele>
        <time>2018-11-18T12:08:58Z</time>
      </trkpt>
      <trkpt lat="44.79436" lon="5.46303">
        <ele>1718.97</ele>
        <time>2018-11-18T12:09:12Z</time>
      </trkpt>
      <trkpt lat="44.79438" lon="5.46296">
        <ele>1721.38</ele>
        <time>2018-11-18T12:09:24Z</time>
      </trkpt>
      <trkpt lat="44.79438" lon="5.46288">
        <ele>1722.82</ele>
        <time>2018-11-18T12:09:35Z</time>
      </trkpt>
      <trkpt lat="44.79438" lon="5.46285">
        <ele>1723.78</ele>
        <time>2018-11-18T12:09:38Z</time>
      </trkpt>
      <trkpt lat="44.79435" lon="5.46277">
        <ele>1724.26</ele>
        <time>2018-11-18T12:09:51Z</time>
      </trkpt>
      <trkpt lat="44.79434" lon="5.46276">
        <ele>1724.26</ele>
        <time>2018-11-18T12:09:53Z</time>
      </trkpt>
      <trkpt lat="44.79433" lon="5.46275">
        <ele>1724.26</ele>
        <time>2018-11-18T12:10:05Z</time>
      </trkpt>
      <trkpt lat="44.79433" lon="5.46274">
        <ele>1724.26</ele>
        <time>2018-11-18T12:10:20Z</time>
      </trkpt>
      <trkpt lat="44.79433" lon="5.46274">
        <ele>1724.26</ele>
        <time>2018-11-18T12:10:38Z</time>
      </trkpt>
      <trkpt lat="44.79433" lon="5.46273">
        <ele>1724.26</ele>
        <time>2018-11-18T12:10:53Z</time>
      </trkpt>
      <trkpt lat="44.79433" lon="5.46273">
        <ele>1724.26</ele>
        <time>2018-11-18T12:11:13Z</time>
      </trkpt>
      <trkpt lat="44.79433" lon="5.46272">
        <ele>1724.26</ele>
        <time>2018-11-18T12:11:34Z</time>
      </trkpt>
      <trkpt lat="44.79433" lon="5.46272">
        <ele>1724.26</ele>
        <time>2018-11-18T12:11:52Z</time>
      </trkpt>
      <trkpt lat="44.79433" lon="5.46272">
        <ele>1724.26</ele>
        <time>2018-11-18T12:12:09Z</time>
      </trkpt>
      <trkpt lat="44.79434" lon="5.46273">
        <ele>1724.26</ele>
        <time>2018-11-18T12:12:23Z</time>
      </trkpt>
      <trkpt lat="44.79435" lon="5.46272">
        <ele>1724.26</ele>
        <time>2018-11-18T12:12:37Z</time>
      </trkpt>
      <trkpt lat="44.79435" lon="5.46273">
        <ele>1724.26</ele>
        <time>2018-11-18T12:12:52Z</time>
      </trkpt>
      <trkpt lat="44.79435" lon="5.46274">
        <ele>1724.26</ele>
        <time>2018-11-18T12:13:08Z</time>
      </trkpt>
      <trkpt lat="44.79435" lon="5.46275">
        <ele>1724.26</ele>
        <time>2018-11-18T12:13:20Z</time>
      </trkpt>
      <trkpt lat="44.79434" lon="5.46275">
        <ele>1724.26</ele>
        <time>2018-11-18T12:13:33Z</time>
      </trkpt>
      <trkpt lat="44.79435" lon="5.46275">
        <ele>1722.82</ele>
        <time>2018-11-18T12:14:09Z</time>
      </trkpt>
      <trkpt lat="44.79437" lon="5.46275">
        <ele>1722.82</ele>
        <time>2018-11-18T12:14:38Z</time>
      </trkpt>
      <trkpt lat="44.79437" lon="5.46274">
        <ele>1722.82</ele>
        <time>2018-11-18T12:15:21Z</time>
      </trkpt>
      <trkpt lat="44.79435" lon="5.46274">
        <ele>1722.82</ele>
        <time>2018-11-18T12:15:54Z</time>
      </trkpt>
      <trkpt lat="44.79434" lon="5.46274">
        <ele>1722.82</ele>
        <time>2018-11-18T12:16:18Z</time>
      </trkpt>
      <trkpt lat="44.79434" lon="5.46274">
        <ele>1722.82</ele>
        <time>2018-11-18T12:16:44Z</time>
      </trkpt>
      <trkpt lat="44.79435" lon="5.46273">
        <ele>1722.82</ele>
        <time>2018-11-18T12:17:14Z</time>
      </trkpt>
      <trkpt lat="44.79435" lon="5.46274">
        <ele>1722.82</ele>
        <time>2018-11-18T12:17:49Z</time>
      </trkpt>
      <trkpt lat="44.79435" lon="5.46273">
        <ele>1722.82</ele>
        <time>2018-11-18T12:18:22Z</time>
      </trkpt>
      <trkpt lat="44.79433" lon="5.46273">
        <ele>1722.82</ele>
        <time>2018-11-18T12:18:57Z</time>
      </trkpt>
      <trkpt lat="44.79435" lon="5.46275">
        <ele>1722.82</ele>
        <time>2018-11-18T12:19:26Z</time>
      </trkpt>
      <trkpt lat="44.79436" lon="5.46275">
        <ele>1722.82</ele>
        <time>2018-11-18T12:20:02Z</time>
      </trkpt>
      <trkpt lat="44.79436" lon="5.46275">
        <ele>1722.82</ele>
        <time>2018-11-18T12:20:33Z</time>
      </trkpt>
      <trkpt lat="44.79436" lon="5.46274">
        <ele>1722.82</ele>
        <time>2018-11-18T12:21:09Z</time>
      </trkpt>
      <trkpt lat="44.79436" lon="5.46274">
        <ele>1722.82</ele>
        <time>2018-11-18T12:21:33Z</time>
      </trkpt>
      <trkpt lat="44.79435" lon="5.46274">
        <ele>1722.34</ele>
        <time>2018-11-18T12:22:05Z</time>
      </trkpt>
      <trkpt lat="44.79435" lon="5.46274">
        <ele>1722.34</ele>
        <time>2018-11-18T12:22:36Z</time>
      </trkpt>
      <trkpt lat="44.79435" lon="5.46274">
        <ele>1722.34</ele>
        <time>2018-11-18T12:23:06Z</time>
      </trkpt>
      <trkpt lat="44.79435" lon="5.46274">
        <ele>1722.34</ele>
        <time>2018-11-18T12:23:42Z</time>
      </trkpt>
      <trkpt lat="44.79435" lon="5.46274">
        <ele>1722.34</ele>
        <time>2018-11-18T12:24:14Z</time>
      </trkpt>
      <trkpt lat="44.79434" lon="5.46274">
        <ele>1722.34</ele>
        <time>2018-11-18T12:24:44Z</time>
      </trkpt>
      <trkpt lat="44.79434" lon="5.46273">
        <ele>1722.34</ele>
        <time>2018-11-18T12:25:07Z</time>
      </trkpt>
      <trkpt lat="44.79433" lon="5.46273">
        <ele>1722.34</ele>
        <time>2018-11-18T12:25:37Z</time>
      </trkpt>
      <trkpt lat="44.79434" lon="5.46274">
        <ele>1722.34</ele>
        <time>2018-11-18T12:26:07Z</time>
      </trkpt>
      <trkpt lat="44.79434" lon="5.46274">
        <ele>1722.34</ele>
        <time>2018-11-18T12:26:41Z</time>
      </trkpt>
      <trkpt lat="44.79433" lon="5.46273">
        <ele>1722.34</ele>
        <time>2018-11-18T12:27:10Z</time>
      </trkpt>
      <trkpt lat="44.79433" lon="5.46273">
        <ele>1721.86</ele>
        <time>2018-11-18T12:27:41Z</time>
      </trkpt>
      <trkpt lat="44.79434" lon="5.46273">
        <ele>1721.86</ele>
        <time>2018-11-18T12:28:12Z</time>
      </trkpt>
      <trkpt lat="44.79437" lon="5.46274">
        <ele>1721.86</ele>
        <time>2018-11-18T12:29:01Z</time>
      </trkpt>
      <trkpt lat="44.79437" lon="5.46275">
        <ele>1721.86</ele>
        <time>2018-11-18T12:29:44Z</time>
      </trkpt>
      <trkpt lat="44.79436" lon="5.46275">
        <ele>1721.86</ele>
        <time>2018-11-18T12:30:20Z</time>
      </trkpt>
      <trkpt lat="44.79436" lon="5.46276">
        <ele>1721.38</ele>
        <time>2018-11-18T12:31:02Z</time>
      </trkpt>
      <trkpt lat="44.79435" lon="5.46276">
        <ele>1721.38</ele>
        <time>2018-11-18T12:31:38Z</time>
      </trkpt>
      <trkpt lat="44.79436" lon="5.46274">
        <ele>1721.38</ele>
        <time>2018-11-18T12:32:20Z</time>
      </trkpt>
      <trkpt lat="44.79436" lon="5.46275">
        <ele>1721.38</ele>
        <time>2018-11-18T12:33:01Z</time>
      </trkpt>
      <trkpt lat="44.79436" lon="5.46275">
        <ele>1721.38</ele>
        <time>2018-11-18T12:33:41Z</time>
      </trkpt>
      <trkpt lat="44.79436" lon="5.46274">
        <ele>1721.38</ele>
        <time>2018-11-18T12:34:10Z</time>
      </trkpt>
      <trkpt lat="44.79435" lon="5.46275">
        <ele>1721.38</ele>
        <time>2018-11-18T12:34:56Z</time>
      </trkpt>
      <trkpt lat="44.79434" lon="5.46274">
        <ele>1721.38</ele>
        <time>2018-11-18T12:35:35Z</time>
      </trkpt>
      <trkpt lat="44.79433" lon="5.46273">
        <ele>1721.38</ele>
        <time>2018-11-18T12:36:10Z</time>
      </trkpt>
      <trkpt lat="44.79434" lon="5.46274">
        <ele>1721.38</ele>
        <time>2018-11-18T12:36:48Z</time>
      </trkpt>
      <trkpt lat="44.79434" lon="5.46274">
        <ele>1721.38</ele>
        <time>2018-11-18T12:37:29Z</time>
      </trkpt>
      <trkpt lat="44.79432" lon="5.46274">
        <ele>1721.38</ele>
        <time>2018-11-18T12:38:05Z</time>
      </trkpt>
      <trkpt lat="44.79434" lon="5.46274">
        <ele>1721.38</ele>
        <time>2018-11-18T12:38:48Z</time>
      </trkpt>
      <trkpt lat="44.79434" lon="5.46275">
        <ele>1720.9</ele>
        <time>2018-11-18T12:39:29Z</time>
      </trkpt>
      <trkpt lat="44.79435" lon="5.46276">
        <ele>1720.9</ele>
        <time>2018-11-18T12:40:10Z</time>
      </trkpt>
      <trkpt lat="44.79436" lon="5.46276">
        <ele>1720.9</ele>
        <time>2018-11-18T12:40:46Z</time>
      </trkpt>
      <trkpt lat="44.79437" lon="5.46275">
        <ele>1723.3</ele>
        <time>2018-11-18T12:41:10Z</time>
      </trkpt>
      <trkpt lat="44.79436" lon="5.46275">
        <ele>1721.86</ele>
        <time>2018-11-18T12:41:12Z</time>
      </trkpt>
      <trkpt lat="44.79436" lon="5.46275">
        <ele>1721.86</ele>
        <time>2018-11-18T12:41:51Z</time>
      </trkpt>
      <trkpt lat="44.79435" lon="5.46274">
        <ele>1721.86</ele>
        <time>2018-11-18T12:42:13Z</time>
      </trkpt>
      <trkpt lat="44.79435" lon="5.46274">
        <ele>1721.86</ele>
        <time>2018-11-18T12:42:38Z</time>
      </trkpt>
      <trkpt lat="44.79435" lon="5.46274">
        <ele>1721.86</ele>
        <time>2018-11-18T12:43:02Z</time>
      </trkpt>
      <trkpt lat="44.79436" lon="5.46274">
        <ele>1721.38</ele>
        <time>2018-11-18T12:43:40Z</time>
      </trkpt>
      <trkpt lat="44.79435" lon="5.46274">
        <ele>1721.38</ele>
        <time>2018-11-18T12:44:13Z</time>
      </trkpt>
      <trkpt lat="44.79436" lon="5.46274">
        <ele>1721.38</ele>
        <time>2018-11-18T12:44:50Z</time>
      </trkpt>
      <trkpt lat="44.79436" lon="5.46274">
        <ele>1721.38</ele>
        <time>2018-11-18T12:45:29Z</time>
      </trkpt>
      <trkpt lat="44.79436" lon="5.46273">
        <ele>1721.38</ele>
        <time>2018-11-18T12:46:13Z</time>
      </trkpt>
      <trkpt lat="44.79436" lon="5.46274">
        <ele>1721.38</ele>
        <time>2018-11-18T12:46:50Z</time>
      </trkpt>
      <trkpt lat="44.79436" lon="5.46274">
        <ele>1721.38</ele>
        <time>2018-11-18T12:47:27Z</time>
      </trkpt>
      <trkpt lat="44.79435" lon="5.46275">
        <ele>1721.38</ele>
        <time>2018-11-18T12:48:03Z</time>
      </trkpt>
      <trkpt lat="44.79434" lon="5.46275">
        <ele>1721.38</ele>
        <time>2018-11-18T12:48:44Z</time>
      </trkpt>
      <trkpt lat="44.79436" lon="5.46275">
        <ele>1721.38</ele>
        <time>2018-11-18T12:49:38Z</time>
      </trkpt>
      <trkpt lat="44.79436" lon="5.46276">
        <ele>1720.9</ele>
        <time>2018-11-18T12:50:25Z</time>
      </trkpt>
      <trkpt lat="44.79436" lon="5.46275">
        <ele>1720.9</ele>
        <time>2018-11-18T12:50:55Z</time>
      </trkpt>
      <trkpt lat="44.79436" lon="5.46274">
        <ele>1721.86</ele>
        <time>2018-11-18T12:51:39Z</time>
      </trkpt>
      <trkpt lat="44.79436" lon="5.46275">
        <ele>1721.86</ele>
        <time>2018-11-18T12:52:20Z</time>
      </trkpt>
      <trkpt lat="44.79435" lon="5.46274">
        <ele>1722.34</ele>
        <time>2018-11-18T12:52:48Z</time>
      </trkpt>
      <trkpt lat="44.79434" lon="5.46274">
        <ele>1722.34</ele>
        <time>2018-11-18T12:53:34Z</time>
      </trkpt>
      <trkpt lat="44.79435" lon="5.46273">
        <ele>1722.34</ele>
        <time>2018-11-18T12:54:05Z</time>
      </trkpt>
      <trkpt lat="44.79434" lon="5.46275">
        <ele>1721.86</ele>
        <time>2018-11-18T12:54:30Z</time>
      </trkpt>
      <trkpt lat="44.79434" lon="5.46275">
        <ele>1721.86</ele>
        <time>2018-11-18T12:54:59Z</time>
      </trkpt>
      <trkpt lat="44.79435" lon="5.46275">
        <ele>1721.86</ele>
        <time>2018-11-18T12:55:36Z</time>
      </trkpt>
      <trkpt lat="44.79436" lon="5.46274">
        <ele>1721.86</ele>
        <time>2018-11-18T12:56:04Z</time>
      </trkpt>
      <trkpt lat="44.79436" lon="5.46273">
        <ele>1721.86</ele>
        <time>2018-11-18T12:56:42Z</time>
      </trkpt>
      <trkpt lat="44.79436" lon="5.46273">
        <ele>1721.86</ele>
        <time>2018-11-18T12:57:14Z</time>
      </trkpt>
      <trkpt lat="44.79436" lon="5.46274">
        <ele>1721.86</ele>
        <time>2018-11-18T12:57:58Z</time>
      </trkpt>
      <trkpt lat="44.79436" lon="5.46274">
        <ele>1721.86</ele>
        <time>2018-11-18T12:58:38Z</time>
      </trkpt>
      <trkpt lat="44.79435" lon="5.46274">
        <ele>1721.86</ele>
        <time>2018-11-18T12:59:26Z</time>
      </trkpt>
      <trkpt lat="44.79435" lon="5.46275">
        <ele>1721.86</ele>
        <time>2018-11-18T13:00:10Z</time>
      </trkpt>
      <trkpt lat="44.79434" lon="5.46276">
        <ele>1721.86</ele>
        <time>2018-11-18T13:00:50Z</time>
      </trkpt>
      <trkpt lat="44.79435" lon="5.46276">
        <ele>1721.86</ele>
        <time>2018-11-18T13:01:23Z</time>
      </trkpt>
      <trkpt lat="44.79435" lon="5.46275">
        <ele>1721.86</ele>
        <time>2018-11-18T13:01:55Z</time>
      </trkpt>
      <trkpt lat="44.79435" lon="5.46274">
        <ele>1721.86</ele>
        <time>2018-11-18T13:02:27Z</time>
      </trkpt>
      <trkpt lat="44.79435" lon="5.46275">
        <ele>1722.34</ele>
        <time>2018-11-18T13:02:59Z</time>
      </trkpt>
      <trkpt lat="44.79435" lon="5.46274">
        <ele>1722.34</ele>
        <time>2018-11-18T13:03:34Z</time>
      </trkpt>
      <trkpt lat="44.79435" lon="5.46275">
        <ele>1722.34</ele>
        <time>2018-11-18T13:04:14Z</time>
      </trkpt>
      <trkpt lat="44.79435" lon="5.46275">
        <ele>1722.34</ele>
        <time>2018-11-18T13:04:34Z</time>
      </trkpt>
      <trkpt lat="44.79434" lon="5.46276">
        <ele>1722.34</ele>
        <time>2018-11-18T13:04:45Z</time>
      </trkpt>
      <trkpt lat="44.79433" lon="5.46277">
        <ele>1722.34</ele>
        <time>2018-11-18T13:05:00Z</time>
      </trkpt>
      <trkpt lat="44.79427" lon="5.46274">
        <ele>1720.9</ele>
        <time>2018-11-18T13:05:22Z</time>
      </trkpt>
      <trkpt lat="44.79424" lon="5.46273">
        <ele>1719.94</ele>
        <time>2018-11-18T13:05:41Z</time>
      </trkpt>
      <trkpt lat="44.79424" lon="5.46275">
        <ele>1718.97</ele>
        <time>2018-11-18T13:06:26Z</time>
      </trkpt>
      <trkpt lat="44.7943" lon="5.46277">
        <ele>1720.42</ele>
        <time>2018-11-18T13:06:35Z</time>
      </trkpt>
      <trkpt lat="44.79434" lon="5.46278">
        <ele>1721.38</ele>
        <time>2018-11-18T13:06:49Z</time>
      </trkpt>
      <trkpt lat="44.79434" lon="5.46284">
        <ele>1719.94</ele>
        <time>2018-11-18T13:06:58Z</time>
      </trkpt>
      <trkpt lat="44.79434" lon="5.46292">
        <ele>1717.05</ele>
        <time>2018-11-18T13:07:07Z</time>
      </trkpt>
      <trkpt lat="44.79427" lon="5.46296">
        <ele>1713.69</ele>
        <time>2018-11-18T13:07:19Z</time>
      </trkpt>
      <trkpt lat="44.79425" lon="5.46301">
        <ele>1710.32</ele>
        <time>2018-11-18T13:07:29Z</time>
      </trkpt>
      <trkpt lat="44.79424" lon="5.46304">
        <ele>1709.36</ele>
        <time>2018-11-18T13:07:32Z</time>
      </trkpt>
      <trkpt lat="44.79419" lon="5.46313">
        <ele>1705.52</ele>
        <time>2018-11-18T13:07:45Z</time>
      </trkpt>
      <trkpt lat="44.79417" lon="5.46321">
        <ele>1702.63</ele>
        <time>2018-11-18T13:07:52Z</time>
      </trkpt>
      <trkpt lat="44.79416" lon="5.46325">
        <ele>1701.67</ele>
        <time>2018-11-18T13:07:56Z</time>
      </trkpt>
      <trkpt lat="44.79411" lon="5.46332">
        <ele>1698.31</ele>
        <time>2018-11-18T13:08:07Z</time>
      </trkpt>
      <trkpt lat="44.79404" lon="5.46333">
        <ele>1694.94</ele>
        <time>2018-11-18T13:08:18Z</time>
      </trkpt>
      <trkpt lat="44.79401" lon="5.46339">
        <ele>1692.06</ele>
        <time>2018-11-18T13:08:30Z</time>
      </trkpt>
      <trkpt lat="44.794" lon="5.46341">
        <ele>1691.58</ele>
        <time>2018-11-18T13:08:32Z</time>
      </trkpt>
      <trkpt lat="44.79398" lon="5.46349">
        <ele>1688.21</ele>
        <time>2018-11-18T13:08:41Z</time>
      </trkpt>
      <trkpt lat="44.79398" lon="5.4636">
        <ele>1684.85</ele>
        <time>2018-11-18T13:08:54Z</time>
      </trkpt>
      <trkpt lat="44.79398" lon="5.46361">
        <ele>1684.85</ele>
        <time>2018-11-18T13:08:55Z</time>
      </trkpt>
      <trkpt lat="44.79397" lon="5.46371">
        <ele>1681</ele>
        <time>2018-11-18T13:09:04Z</time>
      </trkpt>
      <trkpt lat="44.79397" lon="5.46373">
        <ele>1681</ele>
        <time>2018-11-18T13:09:05Z</time>
      </trkpt>
      <trkpt lat="44.79397" lon="5.46378">
        <ele>1679.56</ele>
        <time>2018-11-18T13:09:10Z</time>
      </trkpt>
      <trkpt lat="44.79396" lon="5.46392">
        <ele>1676.2</ele>
        <time>2018-11-18T13:09:21Z</time>
      </trkpt>
      <trkpt lat="44.79395" lon="5.46394">
        <ele>1675.72</ele>
        <time>2018-11-18T13:09:23Z</time>
      </trkpt>
      <trkpt lat="44.79394" lon="5.46403">
        <ele>1673.79</ele>
        <time>2018-11-18T13:09:30Z</time>
      </trkpt>
      <trkpt lat="44.79393" lon="5.46407">
        <ele>1672.83</ele>
        <time>2018-11-18T13:09:33Z</time>
      </trkpt>
      <trkpt lat="44.79386" lon="5.46415">
        <ele>1669.95</ele>
        <time>2018-11-18T13:09:41Z</time>
      </trkpt>
      <trkpt lat="44.79382" lon="5.46417">
        <ele>1668.99</ele>
        <time>2018-11-18T13:09:44Z</time>
      </trkpt>
      <trkpt lat="44.79373" lon="5.46423">
        <ele>1667.54</ele>
        <time>2018-11-18T13:09:53Z</time>
      </trkpt>
      <trkpt lat="44.79364" lon="5.46444">
        <ele>1664.66</ele>
        <time>2018-11-18T13:10:12Z</time>
      </trkpt>
      <trkpt lat="44.79359" lon="5.46449">
        <ele>1664.18</ele>
        <time>2018-11-18T13:10:20Z</time>
      </trkpt>
      <trkpt lat="44.79351" lon="5.4645">
        <ele>1662.26</ele>
        <time>2018-11-18T13:10:28Z</time>
      </trkpt>
      <trkpt lat="44.79349" lon="5.46451">
        <ele>1661.78</ele>
        <time>2018-11-18T13:10:30Z</time>
      </trkpt>
      <trkpt lat="44.79337" lon="5.46456">
        <ele>1658.41</ele>
        <time>2018-11-18T13:10:43Z</time>
      </trkpt>
      <trkpt lat="44.79327" lon="5.4646">
        <ele>1655.53</ele>
        <time>2018-11-18T13:10:54Z</time>
      </trkpt>
      <trkpt lat="44.79315" lon="5.46458">
        <ele>1652.64</ele>
        <time>2018-11-18T13:11:10Z</time>
      </trkpt>
      <trkpt lat="44.79308" lon="5.46454">
        <ele>1651.2</ele>
        <time>2018-11-18T13:11:20Z</time>
      </trkpt>
      <trkpt lat="44.7929" lon="5.46445">
        <ele>1648.32</ele>
        <time>2018-11-18T13:11:38Z</time>
      </trkpt>
      <trkpt lat="44.79284" lon="5.46442">
        <ele>1647.84</ele>
        <time>2018-11-18T13:11:44Z</time>
      </trkpt>
      <trkpt lat="44.79266" lon="5.46439">
        <ele>1645.91</ele>
        <time>2018-11-18T13:12:01Z</time>
      </trkpt>
      <trkpt lat="44.79255" lon="5.46437">
        <ele>1644.47</ele>
        <time>2018-11-18T13:12:10Z</time>
      </trkpt>
      <trkpt lat="44.79241" lon="5.46442">
        <ele>1643.51</ele>
        <time>2018-11-18T13:12:28Z</time>
      </trkpt>
      <trkpt lat="44.79229" lon="5.46442">
        <ele>1643.51</ele>
        <time>2018-11-18T13:12:43Z</time>
      </trkpt>
      <trkpt lat="44.79227" lon="5.46444">
        <ele>1643.51</ele>
        <time>2018-11-18T13:13:01Z</time>
      </trkpt>
      <trkpt lat="44.79224" lon="5.46446">
        <ele>1643.51</ele>
        <time>2018-11-18T13:13:28Z</time>
      </trkpt>
      <trkpt lat="44.79222" lon="5.46446">
        <ele>1644.95</ele>
        <time>2018-11-18T13:13:31Z</time>
      </trkpt>
      <trkpt lat="44.79219" lon="5.46447">
        <ele>1645.43</ele>
        <time>2018-11-18T13:13:34Z</time>
      </trkpt>
      <trkpt lat="44.79213" lon="5.46449">
        <ele>1644.95</ele>
        <time>2018-11-18T13:13:41Z</time>
      </trkpt>
      <trkpt lat="44.79203" lon="5.46451">
        <ele>1644.95</ele>
        <time>2018-11-18T13:13:52Z</time>
      </trkpt>
      <trkpt lat="44.79194" lon="5.46451">
        <ele>1644.95</ele>
        <time>2018-11-18T13:14:10Z</time>
      </trkpt>
      <trkpt lat="44.79182" lon="5.46456">
        <ele>1645.91</ele>
        <time>2018-11-18T13:14:27Z</time>
      </trkpt>
      <trkpt lat="44.79183" lon="5.46459">
        <ele>1645.91</ele>
        <time>2018-11-18T13:14:51Z</time>
      </trkpt>
      <trkpt lat="44.79183" lon="5.46458">
        <ele>1645.91</ele>
        <time>2018-11-18T13:15:16Z</time>
      </trkpt>
      <trkpt lat="44.79183" lon="5.46457">
        <ele>1645.91</ele>
        <time>2018-11-18T13:15:20Z</time>
      </trkpt>
      <trkpt lat="44.79176" lon="5.46457">
        <ele>1645.91</ele>
        <time>2018-11-18T13:15:28Z</time>
      </trkpt>
      <trkpt lat="44.79174" lon="5.46458">
        <ele>1646.88</ele>
        <time>2018-11-18T13:15:31Z</time>
      </trkpt>
      <trkpt lat="44.79171" lon="5.46458">
        <ele>1644.95</ele>
        <time>2018-11-18T13:15:34Z</time>
      </trkpt>
      <trkpt lat="44.79161" lon="5.4646">
        <ele>1644.95</ele>
        <time>2018-11-18T13:15:43Z</time>
      </trkpt>
      <trkpt lat="44.79158" lon="5.4646">
        <ele>1644.47</ele>
        <time>2018-11-18T13:15:46Z</time>
      </trkpt>
      <trkpt lat="44.79153" lon="5.46461">
        <ele>1644.95</ele>
        <time>2018-11-18T13:15:51Z</time>
      </trkpt>
      <trkpt lat="44.7915" lon="5.46462">
        <ele>1643.99</ele>
        <time>2018-11-18T13:15:55Z</time>
      </trkpt>
      <trkpt lat="44.79144" lon="5.46463">
        <ele>1643.51</ele>
        <time>2018-11-18T13:16:00Z</time>
      </trkpt>
      <trkpt lat="44.79143" lon="5.46464">
        <ele>1643.51</ele>
        <time>2018-11-18T13:16:02Z</time>
      </trkpt>
      <trkpt lat="44.79141" lon="5.46466">
        <ele>1643.03</ele>
        <time>2018-11-18T13:16:14Z</time>
      </trkpt>
      <trkpt lat="44.7914" lon="5.4647">
        <ele>1643.03</ele>
        <time>2018-11-18T13:16:44Z</time>
      </trkpt>
      <trkpt lat="44.79141" lon="5.46466">
        <ele>1643.03</ele>
        <time>2018-11-18T13:16:59Z</time>
      </trkpt>
      <trkpt lat="44.79129" lon="5.46468">
        <ele>1640.63</ele>
        <time>2018-11-18T13:17:10Z</time>
      </trkpt>
      <trkpt lat="44.79113" lon="5.46469">
        <ele>1637.26</ele>
        <time>2018-11-18T13:17:22Z</time>
      </trkpt>
      <trkpt lat="44.79097" lon="5.46473">
        <ele>1633.9</ele>
        <time>2018-11-18T13:17:34Z</time>
      </trkpt>
      <trkpt lat="44.79094" lon="5.46474">
        <ele>1633.9</ele>
        <time>2018-11-18T13:17:37Z</time>
      </trkpt>
      <trkpt lat="44.79074" lon="5.46485">
        <ele>1631.01</ele>
        <time>2018-11-18T13:17:55Z</time>
      </trkpt>
      <trkpt lat="44.79056" lon="5.46487">
        <ele>1628.13</ele>
        <time>2018-11-18T13:18:09Z</time>
      </trkpt>
      <trkpt lat="44.79043" lon="5.46482">
        <ele>1624.77</ele>
        <time>2018-11-18T13:18:22Z</time>
      </trkpt>
      <trkpt lat="44.79036" lon="5.46479">
        <ele>1622.84</ele>
        <time>2018-11-18T13:18:33Z</time>
      </trkpt>
      <trkpt lat="44.79022" lon="5.4647">
        <ele>1619.96</ele>
        <time>2018-11-18T13:18:49Z</time>
      </trkpt>
      <trkpt lat="44.79008" lon="5.46466">
        <ele>1618.04</ele>
        <time>2018-11-18T13:19:07Z</time>
      </trkpt>
      <trkpt lat="44.78994" lon="5.46463">
        <ele>1615.63</ele>
        <time>2018-11-18T13:19:24Z</time>
      </trkpt>
      <trkpt lat="44.78978" lon="5.4646">
        <ele>1612.75</ele>
        <time>2018-11-18T13:19:43Z</time>
      </trkpt>
      <trkpt lat="44.7896" lon="5.46454">
        <ele>1609.86</ele>
        <time>2018-11-18T13:20:02Z</time>
      </trkpt>
      <trkpt lat="44.78946" lon="5.4645">
        <ele>1608.42</ele>
        <time>2018-11-18T13:20:18Z</time>
      </trkpt>
      <trkpt lat="44.78937" lon="5.46441">
        <ele>1605.54</ele>
        <time>2018-11-18T13:20:32Z</time>
      </trkpt>
      <trkpt lat="44.78928" lon="5.46434">
        <ele>1603.14</ele>
        <time>2018-11-18T13:20:46Z</time>
      </trkpt>
      <trkpt lat="44.78918" lon="5.46427">
        <ele>1599.77</ele>
        <time>2018-11-18T13:21:02Z</time>
      </trkpt>
      <trkpt lat="44.78904" lon="5.46417">
        <ele>1597.37</ele>
        <time>2018-11-18T13:21:18Z</time>
      </trkpt>
      <trkpt lat="44.78898" lon="5.46414">
        <ele>1596.41</ele>
        <time>2018-11-18T13:21:25Z</time>
      </trkpt>
      <trkpt lat="44.78895" lon="5.46413">
        <ele>1596.41</ele>
        <time>2018-11-18T13:21:28Z</time>
      </trkpt>
      <trkpt lat="44.78884" lon="5.46408">
        <ele>1594.96</ele>
        <time>2018-11-18T13:21:48Z</time>
      </trkpt>
      <trkpt lat="44.78878" lon="5.46404">
        <ele>1594.96</ele>
        <time>2018-11-18T13:21:55Z</time>
      </trkpt>
      <trkpt lat="44.78872" lon="5.46402">
        <ele>1595.93</ele>
        <time>2018-11-18T13:22:00Z</time>
      </trkpt>
      <trkpt lat="44.7886" lon="5.46389">
        <ele>1597.37</ele>
        <time>2018-11-18T13:22:18Z</time>
      </trkpt>
      <trkpt lat="44.78858" lon="5.4638">
        <ele>1594</ele>
        <time>2018-11-18T13:22:32Z</time>
      </trkpt>
      <trkpt lat="44.78857" lon="5.46369">
        <ele>1590.64</ele>
        <time>2018-11-18T13:22:47Z</time>
      </trkpt>
      <trkpt lat="44.78856" lon="5.46359">
        <ele>1588.24</ele>
        <time>2018-11-18T13:23:01Z</time>
      </trkpt>
      <trkpt lat="44.78856" lon="5.46346">
        <ele>1584.87</ele>
        <time>2018-11-18T13:23:17Z</time>
      </trkpt>
      <trkpt lat="44.78859" lon="5.46336">
        <ele>1581.51</ele>
        <time>2018-11-18T13:23:33Z</time>
      </trkpt>
      <trkpt lat="44.78861" lon="5.46334">
        <ele>1581.03</ele>
        <time>2018-11-18T13:23:37Z</time>
      </trkpt>
      <trkpt lat="44.78867" lon="5.46331">
        <ele>1577.18</ele>
        <time>2018-11-18T13:23:52Z</time>
      </trkpt>
      <trkpt lat="44.78867" lon="5.46321">
        <ele>1574.3</ele>
        <time>2018-11-18T13:24:08Z</time>
      </trkpt>
      <trkpt lat="44.7887" lon="5.46311">
        <ele>1571.41</ele>
        <time>2018-11-18T13:24:23Z</time>
      </trkpt>
      <trkpt lat="44.78868" lon="5.4631">
        <ele>1570.93</ele>
        <time>2018-11-18T13:24:42Z</time>
      </trkpt>
      <trkpt lat="44.78859" lon="5.46299">
        <ele>1567.09</ele>
        <time>2018-11-18T13:24:56Z</time>
      </trkpt>
      <trkpt lat="44.78848" lon="5.46298">
        <ele>1564.2</ele>
        <time>2018-11-18T13:25:09Z</time>
      </trkpt>
      <trkpt lat="44.78837" lon="5.46296">
        <ele>1562.28</ele>
        <time>2018-11-18T13:25:25Z</time>
      </trkpt>
      <trkpt lat="44.7883" lon="5.4629">
        <ele>1558.92</ele>
        <time>2018-11-18T13:25:40Z</time>
      </trkpt>
      <trkpt lat="44.78821" lon="5.46279">
        <ele>1556.03</ele>
        <time>2018-11-18T13:25:58Z</time>
      </trkpt>
      <trkpt lat="44.78814" lon="5.46267">
        <ele>1554.59</ele>
        <time>2018-11-18T13:26:16Z</time>
      </trkpt>
      <trkpt lat="44.78807" lon="5.46255">
        <ele>1556.03</ele>
        <time>2018-11-18T13:26:33Z</time>
      </trkpt>
      <trkpt lat="44.78808" lon="5.46245">
        <ele>1556.03</ele>
        <time>2018-11-18T13:26:50Z</time>
      </trkpt>
      <trkpt lat="44.78807" lon="5.46237">
        <ele>1554.59</ele>
        <time>2018-11-18T13:27:04Z</time>
      </trkpt>
      <trkpt lat="44.78805" lon="5.46229">
        <ele>1554.59</ele>
        <time>2018-11-18T13:27:24Z</time>
      </trkpt>
      <trkpt lat="44.78805" lon="5.46224">
        <ele>1555.55</ele>
        <time>2018-11-18T13:27:30Z</time>
      </trkpt>
      <trkpt lat="44.78805" lon="5.46217">
        <ele>1555.55</ele>
        <time>2018-11-18T13:27:46Z</time>
      </trkpt>
      <trkpt lat="44.78809" lon="5.46204">
        <ele>1554.11</ele>
        <time>2018-11-18T13:28:01Z</time>
      </trkpt>
      <trkpt lat="44.78812" lon="5.46203">
        <ele>1552.19</ele>
        <time>2018-11-18T13:28:04Z</time>
      </trkpt>
      <trkpt lat="44.78813" lon="5.46204">
        <ele>1551.22</ele>
        <time>2018-11-18T13:28:05Z</time>
      </trkpt>
      <trkpt lat="44.78817" lon="5.46204">
        <ele>1547.38</ele>
        <time>2018-11-18T13:28:08Z</time>
      </trkpt>
      <trkpt lat="44.78822" lon="5.46202">
        <ele>1544.01</ele>
        <time>2018-11-18T13:28:16Z</time>
      </trkpt>
      <trkpt lat="44.78825" lon="5.46205">
        <ele>1542.09</ele>
        <time>2018-11-18T13:28:31Z</time>
      </trkpt>
      <trkpt lat="44.78829" lon="5.46209">
        <ele>1538.73</ele>
        <time>2018-11-18T13:28:35Z</time>
      </trkpt>
      <trkpt lat="44.7883" lon="5.46208">
        <ele>1537.77</ele>
        <time>2018-11-18T13:28:36Z</time>
      </trkpt>
      <trkpt lat="44.78831" lon="5.46209">
        <ele>1535.84</ele>
        <time>2018-11-18T13:28:39Z</time>
      </trkpt>
      <trkpt lat="44.78834" lon="5.46212">
        <ele>1533.44</ele>
        <time>2018-11-18T13:28:43Z</time>
      </trkpt>
      <trkpt lat="44.78831" lon="5.46211">
        <ele>1532.48</ele>
        <time>2018-11-18T13:28:58Z</time>
      </trkpt>
      <trkpt lat="44.7884" lon="5.46223">
        <ele>1530.56</ele>
        <time>2018-11-18T13:29:13Z</time>
      </trkpt>
      <trkpt lat="44.78847" lon="5.46234">
        <ele>1527.67</ele>
        <time>2018-11-18T13:29:27Z</time>
      </trkpt>
      <trkpt lat="44.78852" lon="5.46243">
        <ele>1527.19</ele>
        <time>2018-11-18T13:29:42Z</time>
      </trkpt>
      <trkpt lat="44.78857" lon="5.46253">
        <ele>1524.31</ele>
        <time>2018-11-18T13:29:51Z</time>
      </trkpt>
      <trkpt lat="44.78864" lon="5.46258">
        <ele>1520.94</ele>
        <time>2018-11-18T13:29:56Z</time>
      </trkpt>
      <trkpt lat="44.78872" lon="5.46263">
        <ele>1517.58</ele>
        <time>2018-11-18T13:30:01Z</time>
      </trkpt>
      <trkpt lat="44.78876" lon="5.46263">
        <ele>1516.14</ele>
        <time>2018-11-18T13:30:03Z</time>
      </trkpt>
      <trkpt lat="44.7888" lon="5.46268">
        <ele>1513.25</ele>
        <time>2018-11-18T13:30:13Z</time>
      </trkpt>
      <trkpt lat="44.78886" lon="5.46274">
        <ele>1510.37</ele>
        <time>2018-11-18T13:30:21Z</time>
      </trkpt>
      <trkpt lat="44.78896" lon="5.46279">
        <ele>1507</ele>
        <time>2018-11-18T13:30:30Z</time>
      </trkpt>
      <trkpt lat="44.78904" lon="5.46285">
        <ele>1504.12</ele>
        <time>2018-11-18T13:30:41Z</time>
      </trkpt>
      <trkpt lat="44.78908" lon="5.46286">
        <ele>1502.2</ele>
        <time>2018-11-18T13:30:55Z</time>
      </trkpt>
      <trkpt lat="44.78913" lon="5.46285">
        <ele>1499.31</ele>
        <time>2018-11-18T13:31:09Z</time>
      </trkpt>
      <trkpt lat="44.78917" lon="5.46284">
        <ele>1497.39</ele>
        <time>2018-11-18T13:31:14Z</time>
      </trkpt>
      <trkpt lat="44.78921" lon="5.4628">
        <ele>1494.03</ele>
        <time>2018-11-18T13:31:21Z</time>
      </trkpt>
      <trkpt lat="44.78924" lon="5.46278">
        <ele>1493.06</ele>
        <time>2018-11-18T13:31:24Z</time>
      </trkpt>
      <trkpt lat="44.78935" lon="5.46279">
        <ele>1489.7</ele>
        <time>2018-11-18T13:31:32Z</time>
      </trkpt>
      <trkpt lat="44.78942" lon="5.46278">
        <ele>1486.82</ele>
        <time>2018-11-18T13:31:42Z</time>
      </trkpt>
      <trkpt lat="44.78947" lon="5.46274">
        <ele>1482.49</ele>
        <time>2018-11-18T13:31:49Z</time>
      </trkpt>
      <trkpt lat="44.7895" lon="5.4627">
        <ele>1479.13</ele>
        <time>2018-11-18T13:31:54Z</time>
      </trkpt>
      <trkpt lat="44.78951" lon="5.46269">
        <ele>1478.65</ele>
        <time>2018-11-18T13:31:56Z</time>
      </trkpt>
      <trkpt lat="44.78953" lon="5.46265">
        <ele>1475.28</ele>
        <time>2018-11-18T13:32:01Z</time>
      </trkpt>
      <trkpt lat="44.78956" lon="5.46263">
        <ele>1473.84</ele>
        <time>2018-11-18T13:32:04Z</time>
      </trkpt>
      <trkpt lat="44.78957" lon="5.46263">
        <ele>1472.4</ele>
        <time>2018-11-18T13:32:06Z</time>
      </trkpt>
      <trkpt lat="44.78962" lon="5.46259">
        <ele>1469.03</ele>
        <time>2018-11-18T13:32:11Z</time>
      </trkpt>
      <trkpt lat="44.78967" lon="5.46256">
        <ele>1465.67</ele>
        <time>2018-11-18T13:32:15Z</time>
      </trkpt>
      <trkpt lat="44.78972" lon="5.46252">
        <ele>1461.82</ele>
        <time>2018-11-18T13:32:19Z</time>
      </trkpt>
      <trkpt lat="44.78977" lon="5.46247">
        <ele>1457.98</ele>
        <time>2018-11-18T13:32:23Z</time>
      </trkpt>
      <trkpt lat="44.78982" lon="5.46243">
        <ele>1454.13</ele>
        <time>2018-11-18T13:32:27Z</time>
      </trkpt>
      <trkpt lat="44.78983" lon="5.46242">
        <ele>1453.17</ele>
        <time>2018-11-18T13:32:28Z</time>
      </trkpt>
      <trkpt lat="44.78987" lon="5.4624">
        <ele>1449.81</ele>
        <time>2018-11-18T13:32:35Z</time>
      </trkpt>
      <trkpt lat="44.7899" lon="5.46235">
        <ele>1446.44</ele>
        <time>2018-11-18T13:32:42Z</time>
      </trkpt>
      <trkpt lat="44.78995" lon="5.4623">
        <ele>1443.08</ele>
        <time>2018-11-18T13:32:50Z</time>
      </trkpt>
      <trkpt lat="44.78997" lon="5.46228">
        <ele>1442.11</ele>
        <time>2018-11-18T13:32:54Z</time>
      </trkpt>
      <trkpt lat="44.78998" lon="5.46228">
        <ele>1441.63</ele>
        <time>2018-11-18T13:32:55Z</time>
      </trkpt>
      <trkpt lat="44.79003" lon="5.46228">
        <ele>1441.15</ele>
        <time>2018-11-18T13:33:11Z</time>
      </trkpt>
      <trkpt lat="44.79004" lon="5.46227">
        <ele>1441.15</ele>
        <time>2018-11-18T13:33:47Z</time>
      </trkpt>
      <trkpt lat="44.79006" lon="5.46227">
        <ele>1439.71</ele>
        <time>2018-11-18T13:33:59Z</time>
      </trkpt>
      <trkpt lat="44.79007" lon="5.46226">
        <ele>1439.71</ele>
        <time>2018-11-18T13:34:00Z</time>
      </trkpt>
      <trkpt lat="44.79013" lon="5.46222">
        <ele>1437.31</ele>
        <time>2018-11-18T13:34:05Z</time>
      </trkpt>
      <trkpt lat="44.79021" lon="5.46217">
        <ele>1433.94</ele>
        <time>2018-11-18T13:34:14Z</time>
      </trkpt>
      <trkpt lat="44.79023" lon="5.46214">
        <ele>1432.98</ele>
        <time>2018-11-18T13:34:17Z</time>
      </trkpt>
      <trkpt lat="44.79027" lon="5.46209">
        <ele>1429.62</ele>
        <time>2018-11-18T13:34:26Z</time>
      </trkpt>
      <trkpt lat="44.79029" lon="5.46209">
        <ele>1429.14</ele>
        <time>2018-11-18T13:34:29Z</time>
      </trkpt>
      <trkpt lat="44.79036" lon="5.46205">
        <ele>1425.77</ele>
        <time>2018-11-18T13:34:36Z</time>
      </trkpt>
      <trkpt lat="44.79045" lon="5.46202">
        <ele>1422.89</ele>
        <time>2018-11-18T13:34:49Z</time>
      </trkpt>
      <trkpt lat="44.79045" lon="5.46199">
        <ele>1422.41</ele>
        <time>2018-11-18T13:35:06Z</time>
      </trkpt>
      <trkpt lat="44.79043" lon="5.46198">
        <ele>1421.93</ele>
        <time>2018-11-18T13:35:47Z</time>
      </trkpt>
      <trkpt lat="44.79045" lon="5.46202">
        <ele>1421.93</ele>
        <time>2018-11-18T13:36:18Z</time>
      </trkpt>
      <trkpt lat="44.79049" lon="5.46204">
        <ele>1421.45</ele>
        <time>2018-11-18T13:36:48Z</time>
      </trkpt>
      <trkpt lat="44.79047" lon="5.46198">
        <ele>1421.45</ele>
        <time>2018-11-18T13:37:14Z</time>
      </trkpt>
      <trkpt lat="44.79042" lon="5.46192">
        <ele>1420.97</ele>
        <time>2018-11-18T13:37:49Z</time>
      </trkpt>
      <trkpt lat="44.79047" lon="5.46199">
        <ele>1420.97</ele>
        <time>2018-11-18T13:38:19Z</time>
      </trkpt>
      <trkpt lat="44.79045" lon="5.46201">
        <ele>1420.97</ele>
        <time>2018-11-18T13:38:49Z</time>
      </trkpt>
      <trkpt lat="44.79046" lon="5.46199">
        <ele>1420.97</ele>
        <time>2018-11-18T13:39:22Z</time>
      </trkpt>
      <trkpt lat="44.79046" lon="5.46203">
        <ele>1420.49</ele>
        <time>2018-11-18T13:39:55Z</time>
      </trkpt>
      <trkpt lat="44.7905" lon="5.46202">
        <ele>1421.45</ele>
        <time>2018-11-18T13:40:33Z</time>
      </trkpt>
      <trkpt lat="44.79046" lon="5.46201">
        <ele>1421.45</ele>
        <time>2018-11-18T13:41:14Z</time>
      </trkpt>
      <trkpt lat="44.79053" lon="5.46204">
        <ele>1421.45</ele>
        <time>2018-11-18T13:41:42Z</time>
      </trkpt>
      <trkpt lat="44.7905" lon="5.46199">
        <ele>1421.45</ele>
        <time>2018-11-18T13:42:16Z</time>
      </trkpt>
      <trkpt lat="44.79052" lon="5.46199">
        <ele>1420.97</ele>
        <time>2018-11-18T13:42:42Z</time>
      </trkpt>
      <trkpt lat="44.79052" lon="5.46198">
        <ele>1419.52</ele>
        <time>2018-11-18T13:42:53Z</time>
      </trkpt>
      <trkpt lat="44.79053" lon="5.46198">
        <ele>1420.97</ele>
        <time>2018-11-18T13:43:30Z</time>
      </trkpt>
      <trkpt lat="44.7905" lon="5.46201">
        <ele>1420.97</ele>
        <time>2018-11-18T13:44:15Z</time>
      </trkpt>
      <trkpt lat="44.79051" lon="5.46197">
        <ele>1420.49</ele>
        <time>2018-11-18T13:45:05Z</time>
      </trkpt>
      <trkpt lat="44.79052" lon="5.46201">
        <ele>1420.49</ele>
        <time>2018-11-18T13:45:44Z</time>
      </trkpt>
      <trkpt lat="44.79049" lon="5.46197">
        <ele>1420.49</ele>
        <time>2018-11-18T13:46:25Z</time>
      </trkpt>
      <trkpt lat="44.79049" lon="5.46199">
        <ele>1420.97</ele>
        <time>2018-11-18T13:46:39Z</time>
      </trkpt>
      <trkpt lat="44.7905" lon="5.46203">
        <ele>1421.45</ele>
        <time>2018-11-18T13:47:00Z</time>
      </trkpt>
      <trkpt lat="44.79051" lon="5.46202">
        <ele>1420.49</ele>
        <time>2018-11-18T13:47:02Z</time>
      </trkpt>
      <trkpt lat="44.79061" lon="5.46199">
        <ele>1417.12</ele>
        <time>2018-11-18T13:47:14Z</time>
      </trkpt>
      <trkpt lat="44.79074" lon="5.46196">
        <ele>1413.76</ele>
        <time>2018-11-18T13:47:24Z</time>
      </trkpt>
      <trkpt lat="44.79075" lon="5.46196">
        <ele>1413.28</ele>
        <time>2018-11-18T13:47:25Z</time>
      </trkpt>
      <trkpt lat="44.79079" lon="5.46191">
        <ele>1410.39</ele>
        <time>2018-11-18T13:47:28Z</time>
      </trkpt>
      <trkpt lat="44.79081" lon="5.46187">
        <ele>1409.43</ele>
        <time>2018-11-18T13:47:31Z</time>
      </trkpt>
      <trkpt lat="44.79082" lon="5.46178">
        <ele>1406.07</ele>
        <time>2018-11-18T13:47:36Z</time>
      </trkpt>
      <trkpt lat="44.79086" lon="5.46168">
        <ele>1403.18</ele>
        <time>2018-11-18T13:47:44Z</time>
      </trkpt>
      <trkpt lat="44.79094" lon="5.46156">
        <ele>1399.82</ele>
        <time>2018-11-18T13:47:53Z</time>
      </trkpt>
      <trkpt lat="44.79094" lon="5.46156">
        <ele>1398.86</ele>
        <time>2018-11-18T13:47:54Z</time>
      </trkpt>
      <trkpt lat="44.79101" lon="5.46145">
        <ele>1395.97</ele>
        <time>2018-11-18T13:48:02Z</time>
      </trkpt>
      <trkpt lat="44.79115" lon="5.46132">
        <ele>1393.09</ele>
        <time>2018-11-18T13:48:13Z</time>
      </trkpt>
      <trkpt lat="44.79129" lon="5.46124">
        <ele>1389.72</ele>
        <time>2018-11-18T13:48:23Z</time>
      </trkpt>
      <trkpt lat="44.79133" lon="5.4612">
        <ele>1388.28</ele>
        <time>2018-11-18T13:48:27Z</time>
      </trkpt>
      <trkpt lat="44.79144" lon="5.46118">
        <ele>1384.92</ele>
        <time>2018-11-18T13:48:36Z</time>
      </trkpt>
      <trkpt lat="44.79152" lon="5.46112">
        <ele>1381.55</ele>
        <time>2018-11-18T13:48:42Z</time>
      </trkpt>
      <trkpt lat="44.79153" lon="5.46111">
        <ele>1381.07</ele>
        <time>2018-11-18T13:48:43Z</time>
      </trkpt>
      <trkpt lat="44.79157" lon="5.46106">
        <ele>1379.63</ele>
        <time>2018-11-18T13:48:47Z</time>
      </trkpt>
      <trkpt lat="44.79164" lon="5.46101">
        <ele>1377.23</ele>
        <time>2018-11-18T13:48:53Z</time>
      </trkpt>
      <trkpt lat="44.79174" lon="5.46092">
        <ele>1374.34</ele>
        <time>2018-11-18T13:49:00Z</time>
      </trkpt>
      <trkpt lat="44.79178" lon="5.46086">
        <ele>1370.98</ele>
        <time>2018-11-18T13:49:06Z</time>
      </trkpt>
      <trkpt lat="44.79182" lon="5.4608">
        <ele>1369.54</ele>
        <time>2018-11-18T13:49:09Z</time>
      </trkpt>
      <trkpt lat="44.7919" lon="5.46071">
        <ele>1366.65</ele>
        <time>2018-11-18T13:49:17Z</time>
      </trkpt>
      <trkpt lat="44.79195" lon="5.46061">
        <ele>1364.25</ele>
        <time>2018-11-18T13:49:21Z</time>
      </trkpt>
      <trkpt lat="44.79199" lon="5.46055">
        <ele>1363.29</ele>
        <time>2018-11-18T13:49:24Z</time>
      </trkpt>
      <trkpt lat="44.79204" lon="5.46049">
        <ele>1362.33</ele>
        <time>2018-11-18T13:49:28Z</time>
      </trkpt>
      <trkpt lat="44.79216" lon="5.46034">
        <ele>1362.33</ele>
        <time>2018-11-18T13:49:38Z</time>
      </trkpt>
      <trkpt lat="44.79228" lon="5.46012">
        <ele>1358.48</ele>
        <time>2018-11-18T13:49:53Z</time>
      </trkpt>
      <trkpt lat="44.79233" lon="5.45997">
        <ele>1355.6</ele>
        <time>2018-11-18T13:50:00Z</time>
      </trkpt>
      <trkpt lat="44.79239" lon="5.45982">
        <ele>1352.71</ele>
        <time>2018-11-18T13:50:09Z</time>
      </trkpt>
      <trkpt lat="44.7924" lon="5.45979">
        <ele>1351.75</ele>
        <time>2018-11-18T13:50:11Z</time>
      </trkpt>
      <trkpt lat="44.79255" lon="5.45964">
        <ele>1348.87</ele>
        <time>2018-11-18T13:50:23Z</time>
      </trkpt>
      <trkpt lat="44.79257" lon="5.45956">
        <ele>1345.02</ele>
        <time>2018-11-18T13:50:30Z</time>
      </trkpt>
      <trkpt lat="44.79256" lon="5.45951">
        <ele>1344.06</ele>
        <time>2018-11-18T13:50:33Z</time>
      </trkpt>
      <trkpt lat="44.79252" lon="5.45946">
        <ele>1341.18</ele>
        <time>2018-11-18T13:50:38Z</time>
      </trkpt>
      <trkpt lat="44.79252" lon="5.45945">
        <ele>1340.7</ele>
        <time>2018-11-18T13:50:39Z</time>
      </trkpt>
      <trkpt lat="44.79248" lon="5.45944">
        <ele>1339.73</ele>
        <time>2018-11-18T13:50:42Z</time>
      </trkpt>
      <trkpt lat="44.79249" lon="5.45943">
        <ele>1339.25</ele>
        <time>2018-11-18T13:50:43Z</time>
      </trkpt>
      <trkpt lat="44.79249" lon="5.45939">
        <ele>1338.29</ele>
        <time>2018-11-18T13:50:45Z</time>
      </trkpt>
      <trkpt lat="44.79245" lon="5.45932">
        <ele>1335.41</ele>
        <time>2018-11-18T13:50:53Z</time>
      </trkpt>
      <trkpt lat="44.7925" lon="5.4592">
        <ele>1331.56</ele>
        <time>2018-11-18T13:51:02Z</time>
      </trkpt>
      <trkpt lat="44.79253" lon="5.4591">
        <ele>1328.2</ele>
        <time>2018-11-18T13:51:09Z</time>
      </trkpt>
      <trkpt lat="44.79254" lon="5.45901">
        <ele>1325.8</ele>
        <time>2018-11-18T13:51:13Z</time>
      </trkpt>
      <trkpt lat="44.7926" lon="5.45889">
        <ele>1321.95</ele>
        <time>2018-11-18T13:51:20Z</time>
      </trkpt>
      <trkpt lat="44.79262" lon="5.45883">
        <ele>1320.51</ele>
        <time>2018-11-18T13:51:23Z</time>
      </trkpt>
      <trkpt lat="44.79269" lon="5.45878">
        <ele>1319.07</ele>
        <time>2018-11-18T13:51:27Z</time>
      </trkpt>
      <trkpt lat="44.79273" lon="5.45876">
        <ele>1317.14</ele>
        <time>2018-11-18T13:51:29Z</time>
      </trkpt>
      <trkpt lat="44.79274" lon="5.45874">
        <ele>1317.14</ele>
        <time>2018-11-18T13:51:30Z</time>
      </trkpt>
      <trkpt lat="44.79284" lon="5.45862">
        <ele>1313.3</ele>
        <time>2018-11-18T13:51:37Z</time>
      </trkpt>
      <trkpt lat="44.79288" lon="5.45857">
        <ele>1311.86</ele>
        <time>2018-11-18T13:51:41Z</time>
      </trkpt>
      <trkpt lat="44.79291" lon="5.45842">
        <ele>1308.01</ele>
        <time>2018-11-18T13:51:50Z</time>
      </trkpt>
      <trkpt lat="44.79293" lon="5.45839">
        <ele>1305.61</ele>
        <time>2018-11-18T13:51:54Z</time>
      </trkpt>
      <trkpt lat="44.7929" lon="5.45828">
        <ele>1302.24</ele>
        <time>2018-11-18T13:52:00Z</time>
      </trkpt>
      <trkpt lat="44.79287" lon="5.45818">
        <ele>1298.88</ele>
        <time>2018-11-18T13:52:06Z</time>
      </trkpt>
      <trkpt lat="44.79279" lon="5.45813">
        <ele>1295.51</ele>
        <time>2018-11-18T13:52:15Z</time>
      </trkpt>
      <trkpt lat="44.79275" lon="5.45812">
        <ele>1294.07</ele>
        <time>2018-11-18T13:52:19Z</time>
      </trkpt>
      <trkpt lat="44.7927" lon="5.45807">
        <ele>1291.19</ele>
        <time>2018-11-18T13:52:26Z</time>
      </trkpt>
      <trkpt lat="44.79267" lon="5.45806">
        <ele>1289.75</ele>
        <time>2018-11-18T13:52:28Z</time>
      </trkpt>
      <trkpt lat="44.79263" lon="5.45803">
        <ele>1287.82</ele>
        <time>2018-11-18T13:52:31Z</time>
      </trkpt>
      <trkpt lat="44.7926" lon="5.45802">
        <ele>1285.9</ele>
        <time>2018-11-18T13:52:33Z</time>
      </trkpt>
      <trkpt lat="44.79257" lon="5.45801">
        <ele>1285.42</ele>
        <time>2018-11-18T13:52:35Z</time>
      </trkpt>
      <trkpt lat="44.79256" lon="5.45801">
        <ele>1284.46</ele>
        <time>2018-11-18T13:52:36Z</time>
      </trkpt>
      <trkpt lat="44.79248" lon="5.458">
        <ele>1281.57</ele>
        <time>2018-11-18T13:52:40Z</time>
      </trkpt>
      <trkpt lat="44.79239" lon="5.45796">
        <ele>1277.73</ele>
        <time>2018-11-18T13:52:45Z</time>
      </trkpt>
      <trkpt lat="44.79239" lon="5.45794">
        <ele>1277.73</ele>
        <time>2018-11-18T13:52:46Z</time>
      </trkpt>
      <trkpt lat="44.79239" lon="5.45792">
        <ele>1277.25</ele>
        <time>2018-11-18T13:52:47Z</time>
      </trkpt>
      <trkpt lat="44.79238" lon="5.45791">
        <ele>1277.25</ele>
        <time>2018-11-18T13:53:01Z</time>
      </trkpt>
      <trkpt lat="44.79237" lon="5.45796">
        <ele>1277.25</ele>
        <time>2018-11-18T13:53:20Z</time>
      </trkpt>
      <trkpt lat="44.79237" lon="5.45795">
        <ele>1277.25</ele>
        <time>2018-11-18T13:53:40Z</time>
      </trkpt>
      <trkpt lat="44.79234" lon="5.45796">
        <ele>1277.25</ele>
        <time>2018-11-18T13:54:09Z</time>
      </trkpt>
      <trkpt lat="44.79235" lon="5.45794">
        <ele>1277.73</ele>
        <time>2018-11-18T13:54:32Z</time>
      </trkpt>
      <trkpt lat="44.79236" lon="5.45794">
        <ele>1277.73</ele>
        <time>2018-11-18T13:55:03Z</time>
      </trkpt>
      <trkpt lat="44.79233" lon="5.45793">
        <ele>1277.73</ele>
        <time>2018-11-18T13:55:22Z</time>
      </trkpt>
      <trkpt lat="44.7923" lon="5.45793">
        <ele>1277.73</ele>
        <time>2018-11-18T13:55:27Z</time>
      </trkpt>
      <trkpt lat="44.79226" lon="5.45795">
        <ele>1277.73</ele>
        <time>2018-11-18T13:55:32Z</time>
      </trkpt>
      <trkpt lat="44.79219" lon="5.45804">
        <ele>1277.73</ele>
        <time>2018-11-18T13:55:40Z</time>
      </trkpt>
      <trkpt lat="44.79218" lon="5.45805">
        <ele>1277.73</ele>
        <time>2018-11-18T13:55:41Z</time>
      </trkpt>
      <trkpt lat="44.79217" lon="5.45807">
        <ele>1277.73</ele>
        <time>2018-11-18T13:55:42Z</time>
      </trkpt>
      <trkpt lat="44.792" lon="5.45819">
        <ele>1277.73</ele>
        <time>2018-11-18T13:55:56Z</time>
      </trkpt>
      <trkpt lat="44.79188" lon="5.45829">
        <ele>1277.25</ele>
        <time>2018-11-18T13:56:08Z</time>
      </trkpt>
      <trkpt lat="44.79169" lon="5.45847">
        <ele>1276.29</ele>
        <time>2018-11-18T13:56:21Z</time>
      </trkpt>
      <trkpt lat="44.7915" lon="5.4586">
        <ele>1275.81</ele>
        <time>2018-11-18T13:56:36Z</time>
      </trkpt>
      <trkpt lat="44.79149" lon="5.4586">
        <ele>1275.81</ele>
        <time>2018-11-18T13:56:37Z</time>
      </trkpt>
      <trkpt lat="44.7914" lon="5.45864">
        <ele>1275.33</ele>
        <time>2018-11-18T13:56:44Z</time>
      </trkpt>
      <trkpt lat="44.7912" lon="5.45861">
        <ele>1274.85</ele>
        <time>2018-11-18T13:56:57Z</time>
      </trkpt>
      <trkpt lat="44.79103" lon="5.45848">
        <ele>1273.88</ele>
        <time>2018-11-18T13:57:08Z</time>
      </trkpt>
      <trkpt lat="44.79101" lon="5.45847">
        <ele>1273.88</ele>
        <time>2018-11-18T13:57:09Z</time>
      </trkpt>
      <trkpt lat="44.791" lon="5.45847">
        <ele>1273.88</ele>
        <time>2018-11-18T13:57:10Z</time>
      </trkpt>
      <trkpt lat="44.79083" lon="5.4583">
        <ele>1272.44</ele>
        <time>2018-11-18T13:57:27Z</time>
      </trkpt>
      <trkpt lat="44.79082" lon="5.45828">
        <ele>1272.44</ele>
        <time>2018-11-18T13:57:29Z</time>
      </trkpt>
      <trkpt lat="44.79081" lon="5.45827">
        <ele>1272.44</ele>
        <time>2018-11-18T13:57:30Z</time>
      </trkpt>
      <trkpt lat="44.79069" lon="5.45813">
        <ele>1272.44</ele>
        <time>2018-11-18T13:57:44Z</time>
      </trkpt>
      <trkpt lat="44.79056" lon="5.4579">
        <ele>1271.96</ele>
        <time>2018-11-18T13:57:59Z</time>
      </trkpt>
      <trkpt lat="44.79046" lon="5.45768">
        <ele>1271</ele>
        <time>2018-11-18T13:58:12Z</time>
      </trkpt>
      <trkpt lat="44.79045" lon="5.45766">
        <ele>1270.52</ele>
        <time>2018-11-18T13:58:13Z</time>
      </trkpt>
      <trkpt lat="44.79045" lon="5.45764">
        <ele>1270.52</ele>
        <time>2018-11-18T13:58:14Z</time>
      </trkpt>
      <trkpt lat="44.79044" lon="5.45763">
        <ele>1270.52</ele>
        <time>2018-11-18T13:58:15Z</time>
      </trkpt>
      <trkpt lat="44.79043" lon="5.45761">
        <ele>1270.52</ele>
        <time>2018-11-18T13:58:16Z</time>
      </trkpt>
      <trkpt lat="44.79029" lon="5.45735">
        <ele>1269.56</ele>
        <time>2018-11-18T13:58:33Z</time>
      </trkpt>
      <trkpt lat="44.79027" lon="5.45732">
        <ele>1269.56</ele>
        <time>2018-11-18T13:58:35Z</time>
      </trkpt>
      <trkpt lat="44.79026" lon="5.45731">
        <ele>1269.56</ele>
        <time>2018-11-18T13:58:36Z</time>
      </trkpt>
      <trkpt lat="44.79011" lon="5.45707">
        <ele>1269.08</ele>
        <time>2018-11-18T13:58:52Z</time>
      </trkpt>
      <trkpt lat="44.79007" lon="5.45701">
        <ele>1269.08</ele>
        <time>2018-11-18T13:58:56Z</time>
      </trkpt>
      <trkpt lat="44.78992" lon="5.4568">
        <ele>1268.6</ele>
        <time>2018-11-18T13:59:12Z</time>
      </trkpt>
      <trkpt lat="44.78977" lon="5.4566">
        <ele>1267.64</ele>
        <time>2018-11-18T13:59:29Z</time>
      </trkpt>
      <trkpt lat="44.78961" lon="5.45642">
        <ele>1266.67</ele>
        <time>2018-11-18T13:59:44Z</time>
      </trkpt>
      <trkpt lat="44.78954" lon="5.45634">
        <ele>1266.67</ele>
        <time>2018-11-18T13:59:52Z</time>
      </trkpt>
      <trkpt lat="44.78952" lon="5.45633">
        <ele>1266.67</ele>
        <time>2018-11-18T13:59:53Z</time>
      </trkpt>
      <trkpt lat="44.78939" lon="5.4562">
        <ele>1266.19</ele>
        <time>2018-11-18T14:00:07Z</time>
      </trkpt>
      <trkpt lat="44.78938" lon="5.4562">
        <ele>1266.19</ele>
        <time>2018-11-18T14:00:08Z</time>
      </trkpt>
      <trkpt lat="44.78936" lon="5.45619">
        <ele>1266.19</ele>
        <time>2018-11-18T14:00:09Z</time>
      </trkpt>
      <trkpt lat="44.78935" lon="5.45618">
        <ele>1266.19</ele>
        <time>2018-11-18T14:00:10Z</time>
      </trkpt>
      <trkpt lat="44.78934" lon="5.45618">
        <ele>1266.19</ele>
        <time>2018-11-18T14:00:11Z</time>
      </trkpt>
      <trkpt lat="44.78931" lon="5.45618">
        <ele>1266.19</ele>
        <time>2018-11-18T14:00:13Z</time>
      </trkpt>
      <trkpt lat="44.7893" lon="5.45619">
        <ele>1266.19</ele>
        <time>2018-11-18T14:00:14Z</time>
      </trkpt>
      <trkpt lat="44.78925" lon="5.45617">
        <ele>1266.19</ele>
        <time>2018-11-18T14:00:19Z</time>
      </trkpt>
      <trkpt lat="44.78922" lon="5.45615">
        <ele>1265.71</ele>
        <time>2018-11-18T14:00:22Z</time>
      </trkpt>
      <trkpt lat="44.78921" lon="5.45613">
        <ele>1265.71</ele>
        <time>2018-11-18T14:00:23Z</time>
      </trkpt>
      <trkpt lat="44.78916" lon="5.45603">
        <ele>1265.23</ele>
        <time>2018-11-18T14:00:28Z</time>
      </trkpt>
      <trkpt lat="44.78906" lon="5.45569">
        <ele>1264.27</ele>
        <time>2018-11-18T14:00:45Z</time>
      </trkpt>
      <trkpt lat="44.789" lon="5.45561">
        <ele>1263.79</ele>
        <time>2018-11-18T14:00:51Z</time>
      </trkpt>
      <trkpt lat="44.78899" lon="5.4556">
        <ele>1263.79</ele>
        <time>2018-11-18T14:00:52Z</time>
      </trkpt>
      <trkpt lat="44.78898" lon="5.45558">
        <ele>1264.27</ele>
        <time>2018-11-18T14:00:53Z</time>
      </trkpt>
      <trkpt lat="44.78881" lon="5.4553">
        <ele>1262.83</ele>
        <time>2018-11-18T14:01:10Z</time>
      </trkpt>
      <trkpt lat="44.78876" lon="5.45524">
        <ele>1263.31</ele>
        <time>2018-11-18T14:01:15Z</time>
      </trkpt>
      <trkpt lat="44.78872" lon="5.4552">
        <ele>1263.31</ele>
        <time>2018-11-18T14:01:19Z</time>
      </trkpt>
      <trkpt lat="44.78871" lon="5.45519">
        <ele>1264.27</ele>
        <time>2018-11-18T14:01:20Z</time>
      </trkpt>
      <trkpt lat="44.78871" lon="5.45518">
        <ele>1264.27</ele>
        <time>2018-11-18T14:01:21Z</time>
      </trkpt>
      <trkpt lat="44.78868" lon="5.45511">
        <ele>1262.83</ele>
        <time>2018-11-18T14:01:28Z</time>
      </trkpt>
      <trkpt lat="44.78867" lon="5.45505">
        <ele>1262.83</ele>
        <time>2018-11-18T14:01:31Z</time>
      </trkpt>
      <trkpt lat="44.78863" lon="5.45499">
        <ele>1262.35</ele>
        <time>2018-11-18T14:01:36Z</time>
      </trkpt>
      <trkpt lat="44.78862" lon="5.45498">
        <ele>1262.35</ele>
        <time>2018-11-18T14:01:37Z</time>
      </trkpt>
      <trkpt lat="44.78856" lon="5.45493">
        <ele>1261.87</ele>
        <time>2018-11-18T14:01:43Z</time>
      </trkpt>
      <trkpt lat="44.7885" lon="5.45481">
        <ele>1261.39</ele>
        <time>2018-11-18T14:01:53Z</time>
      </trkpt>
      <trkpt lat="44.78831" lon="5.45465">
        <ele>1259.94</ele>
        <time>2018-11-18T14:02:08Z</time>
      </trkpt>
      <trkpt lat="44.78823" lon="5.45461">
        <ele>1259.46</ele>
        <time>2018-11-18T14:02:16Z</time>
      </trkpt>
      <trkpt lat="44.78817" lon="5.45449">
        <ele>1259.46</ele>
        <time>2018-11-18T14:02:26Z</time>
      </trkpt>
      <trkpt lat="44.78816" lon="5.45447">
        <ele>1259.46</ele>
        <time>2018-11-18T14:02:27Z</time>
      </trkpt>
      <trkpt lat="44.78815" lon="5.45445">
        <ele>1259.46</ele>
        <time>2018-11-18T14:02:28Z</time>
      </trkpt>
      <trkpt lat="44.78802" lon="5.45424">
        <ele>1258.98</ele>
        <time>2018-11-18T14:02:45Z</time>
      </trkpt>
      <trkpt lat="44.78796" lon="5.45416">
        <ele>1258.5</ele>
        <time>2018-11-18T14:02:51Z</time>
      </trkpt>
      <trkpt lat="44.78788" lon="5.45412">
        <ele>1258.5</ele>
        <time>2018-11-18T14:02:56Z</time>
      </trkpt>
      <trkpt lat="44.78787" lon="5.45411">
        <ele>1258.5</ele>
        <time>2018-11-18T14:02:57Z</time>
      </trkpt>
      <trkpt lat="44.78782" lon="5.4541">
        <ele>1258.5</ele>
        <time>2018-11-18T14:03:00Z</time>
      </trkpt>
      <trkpt lat="44.7878" lon="5.4541">
        <ele>1258.5</ele>
        <time>2018-11-18T14:03:01Z</time>
      </trkpt>
      <trkpt lat="44.78779" lon="5.4541">
        <ele>1258.5</ele>
        <time>2018-11-18T14:03:02Z</time>
      </trkpt>
      <trkpt lat="44.78778" lon="5.4541">
        <ele>1258.02</ele>
        <time>2018-11-18T14:03:03Z</time>
      </trkpt>
      <trkpt lat="44.78776" lon="5.45409">
        <ele>1258.02</ele>
        <time>2018-11-18T14:03:04Z</time>
      </trkpt>
      <trkpt lat="44.78774" lon="5.4541">
        <ele>1258.02</ele>
        <time>2018-11-18T14:03:06Z</time>
      </trkpt>
      <trkpt lat="44.78757" lon="5.45408">
        <ele>1257.06</ele>
        <time>2018-11-18T14:03:17Z</time>
      </trkpt>
      <trkpt lat="44.78756" lon="5.45408">
        <ele>1257.06</ele>
        <time>2018-11-18T14:03:18Z</time>
      </trkpt>
      <trkpt lat="44.78755" lon="5.45408">
        <ele>1257.06</ele>
        <time>2018-11-18T14:03:19Z</time>
      </trkpt>
      <trkpt lat="44.78753" lon="5.45408">
        <ele>1257.06</ele>
        <time>2018-11-18T14:03:20Z</time>
      </trkpt>
      <trkpt lat="44.78751" lon="5.45407">
        <ele>1256.58</ele>
        <time>2018-11-18T14:03:21Z</time>
      </trkpt>
      <trkpt lat="44.7875" lon="5.45406">
        <ele>1256.58</ele>
        <time>2018-11-18T14:03:22Z</time>
      </trkpt>
      <trkpt lat="44.78728" lon="5.45407">
        <ele>1256.1</ele>
        <time>2018-11-18T14:03:39Z</time>
      </trkpt>
      <trkpt lat="44.78725" lon="5.45408">
        <ele>1255.62</ele>
        <time>2018-11-18T14:03:43Z</time>
      </trkpt>
      <trkpt lat="44.78718" lon="5.45412">
        <ele>1255.62</ele>
        <time>2018-11-18T14:03:49Z</time>
      </trkpt>
      <trkpt lat="44.78716" lon="5.45412">
        <ele>1255.14</ele>
        <time>2018-11-18T14:03:50Z</time>
      </trkpt>
      <trkpt lat="44.78702" lon="5.45409">
        <ele>1255.14</ele>
        <time>2018-11-18T14:03:59Z</time>
      </trkpt>
      <trkpt lat="44.78701" lon="5.45409">
        <ele>1255.14</ele>
        <time>2018-11-18T14:04:00Z</time>
      </trkpt>
      <trkpt lat="44.78685" lon="5.45408">
        <ele>1254.18</ele>
        <time>2018-11-18T14:04:14Z</time>
      </trkpt>
      <trkpt lat="44.78668" lon="5.45386">
        <ele>1253.7</ele>
        <time>2018-11-18T14:04:31Z</time>
      </trkpt>
      <trkpt lat="44.78651" lon="5.45366">
        <ele>1253.22</ele>
        <time>2018-11-18T14:04:48Z</time>
      </trkpt>
      <trkpt lat="44.78632" lon="5.45351">
        <ele>1252.25</ele>
        <time>2018-11-18T14:05:03Z</time>
      </trkpt>
      <trkpt lat="44.78631" lon="5.4535">
        <ele>1252.25</ele>
        <time>2018-11-18T14:05:04Z</time>
      </trkpt>
      <trkpt lat="44.78629" lon="5.45349">
        <ele>1252.25</ele>
        <time>2018-11-18T14:05:05Z</time>
      </trkpt>
      <trkpt lat="44.78628" lon="5.45348">
        <ele>1252.25</ele>
        <time>2018-11-18T14:05:06Z</time>
      </trkpt>
      <trkpt lat="44.78623" lon="5.45337">
        <ele>1251.77</ele>
        <time>2018-11-18T14:05:14Z</time>
      </trkpt>
      <trkpt lat="44.78623" lon="5.45335">
        <ele>1251.77</ele>
        <time>2018-11-18T14:05:15Z</time>
      </trkpt>
      <trkpt lat="44.78622" lon="5.45333">
        <ele>1251.77</ele>
        <time>2018-11-18T14:05:16Z</time>
      </trkpt>
      <trkpt lat="44.78615" lon="5.45315">
        <ele>1251.29</ele>
        <time>2018-11-18T14:05:29Z</time>
      </trkpt>
      <trkpt lat="44.7861" lon="5.45296">
        <ele>1251.29</ele>
        <time>2018-11-18T14:05:39Z</time>
      </trkpt>
      <trkpt lat="44.78609" lon="5.45294">
        <ele>1251.29</ele>
        <time>2018-11-18T14:05:40Z</time>
      </trkpt>
      <trkpt lat="44.78607" lon="5.45284">
        <ele>1250.81</ele>
        <time>2018-11-18T14:05:46Z</time>
      </trkpt>
      <trkpt lat="44.78606" lon="5.4528">
        <ele>1250.33</ele>
        <time>2018-11-18T14:05:48Z</time>
      </trkpt>
      <trkpt lat="44.78603" lon="5.45256">
        <ele>1250.33</ele>
        <time>2018-11-18T14:06:00Z</time>
      </trkpt>
      <trkpt lat="44.78604" lon="5.45235">
        <ele>1250.33</ele>
        <time>2018-11-18T14:06:13Z</time>
      </trkpt>
      <trkpt lat="44.78597" lon="5.45209">
        <ele>1249.37</ele>
        <time>2018-11-18T14:06:26Z</time>
      </trkpt>
      <trkpt lat="44.78597" lon="5.45206">
        <ele>1249.37</ele>
        <time>2018-11-18T14:06:27Z</time>
      </trkpt>
      <trkpt lat="44.78586" lon="5.45181">
        <ele>1249.37</ele>
        <time>2018-11-18T14:06:42Z</time>
      </trkpt>
      <trkpt lat="44.78579" lon="5.45149">
        <ele>1248.89</ele>
        <time>2018-11-18T14:06:58Z</time>
      </trkpt>
      <trkpt lat="44.78578" lon="5.45145">
        <ele>1248.89</ele>
        <time>2018-11-18T14:07:00Z</time>
      </trkpt>
      <trkpt lat="44.78578" lon="5.45144">
        <ele>1248.89</ele>
        <time>2018-11-18T14:07:01Z</time>
      </trkpt>
      <trkpt lat="44.78578" lon="5.45142">
        <ele>1248.89</ele>
        <time>2018-11-18T14:07:02Z</time>
      </trkpt>
      <trkpt lat="44.78574" lon="5.45116">
        <ele>1248.41</ele>
        <time>2018-11-18T14:07:18Z</time>
      </trkpt>
      <trkpt lat="44.7857" lon="5.45094">
        <ele>1247.45</ele>
        <time>2018-11-18T14:07:30Z</time>
      </trkpt>
      <trkpt lat="44.78567" lon="5.45076">
        <ele>1246.97</ele>
        <time>2018-11-18T14:07:41Z</time>
      </trkpt>
      <trkpt lat="44.7856" lon="5.45071">
        <ele>1246.49</ele>
        <time>2018-11-18T14:07:47Z</time>
      </trkpt>
      <trkpt lat="44.78542" lon="5.4506">
        <ele>1246.01</ele>
        <time>2018-11-18T14:08:03Z</time>
      </trkpt>
      <trkpt lat="44.78523" lon="5.45046">
        <ele>1245.53</ele>
        <time>2018-11-18T14:08:18Z</time>
      </trkpt>
      <trkpt lat="44.78519" lon="5.45043">
        <ele>1245.53</ele>
        <time>2018-11-18T14:08:21Z</time>
      </trkpt>
      <trkpt lat="44.78512" lon="5.45037">
        <ele>1245.04</ele>
        <time>2018-11-18T14:08:27Z</time>
      </trkpt>
      <trkpt lat="44.78496" lon="5.45019">
        <ele>1244.08</ele>
        <time>2018-11-18T14:08:41Z</time>
      </trkpt>
      <trkpt lat="44.78485" lon="5.45005">
        <ele>1242.64</ele>
        <time>2018-11-18T14:08:57Z</time>
      </trkpt>
      <trkpt lat="44.78485" lon="5.45002">
        <ele>1241.68</ele>
        <time>2018-11-18T14:09:17Z</time>
      </trkpt>
      <trkpt lat="44.78486" lon="5.45002">
        <ele>1241.68</ele>
        <time>2018-11-18T14:09:52Z</time>
      </trkpt>
      <trkpt lat="44.78487" lon="5.44999">
        <ele>1241.68</ele>
        <time>2018-11-18T14:10:26Z</time>
      </trkpt>
      <trkpt lat="44.78486" lon="5.45">
        <ele>1241.68</ele>
        <time>2018-11-18T14:10:56Z</time>
      </trkpt>
      <trkpt lat="44.78486" lon="5.45001">
        <ele>1241.68</ele>
        <time>2018-11-18T14:11:35Z</time>
      </trkpt>
      <trkpt lat="44.78485" lon="5.45002">
        <ele>1241.68</ele>
        <time>2018-11-18T14:11:51Z</time>
      </trkpt>
      <trkpt lat="44.78486" lon="5.45">
        <ele>1241.2</ele>
        <time>2018-11-18T14:12:17Z</time>
      </trkpt>
      <trkpt lat="44.78487" lon="5.44996">
        <ele>1241.2</ele>
        <time>2018-11-18T14:12:52Z</time>
      </trkpt>
      <trkpt lat="44.78486" lon="5.45001">
        <ele>1242.16</ele>
        <time>2018-11-18T14:13:43Z</time>
      </trkpt>
      <trkpt lat="44.78485" lon="5.4501">
        <ele>1243.12</ele>
        <time>2018-11-18T14:14:01Z</time>
      </trkpt>
      <trkpt lat="44.78478" lon="5.45023">
        <ele>1243.12</ele>
        <time>2018-11-18T14:14:17Z</time>
      </trkpt>
      <trkpt lat="44.78478" lon="5.45025">
        <ele>1243.12</ele>
        <time>2018-11-18T14:14:20Z</time>
      </trkpt>
      <trkpt lat="44.78474" lon="5.45034">
        <ele>1243.12</ele>
        <time>2018-11-18T14:14:28Z</time>
      </trkpt>
      <trkpt lat="44.78461" lon="5.45065">
        <ele>1241.68</ele>
        <time>2018-11-18T14:14:46Z</time>
      </trkpt>
      <trkpt lat="44.7845" lon="5.4509">
        <ele>1241.68</ele>
        <time>2018-11-18T14:15:04Z</time>
      </trkpt>
      <trkpt lat="44.78438" lon="5.45114">
        <ele>1241.68</ele>
        <time>2018-11-18T14:15:20Z</time>
      </trkpt>
      <trkpt lat="44.78437" lon="5.45115">
        <ele>1241.68</ele>
        <time>2018-11-18T14:15:21Z</time>
      </trkpt>
      <trkpt lat="44.7842" lon="5.4513">
        <ele>1241.68</ele>
        <time>2018-11-18T14:15:35Z</time>
      </trkpt>
      <trkpt lat="44.78415" lon="5.45134">
        <ele>1241.68</ele>
        <time>2018-11-18T14:15:39Z</time>
      </trkpt>
      <trkpt lat="44.78415" lon="5.45142">
        <ele>1241.68</ele>
        <time>2018-11-18T14:15:43Z</time>
      </trkpt>
      <trkpt lat="44.78417" lon="5.45158">
        <ele>1241.2</ele>
        <time>2018-11-18T14:15:51Z</time>
      </trkpt>
      <trkpt lat="44.78417" lon="5.45168">
        <ele>1241.2</ele>
        <time>2018-11-18T14:15:55Z</time>
      </trkpt>
      <trkpt lat="44.78417" lon="5.45174">
        <ele>1241.2</ele>
        <time>2018-11-18T14:15:58Z</time>
      </trkpt>
      <trkpt lat="44.78417" lon="5.45178">
        <ele>1241.2</ele>
        <time>2018-11-18T14:16:01Z</time>
      </trkpt>
      <trkpt lat="44.78418" lon="5.45181">
        <ele>1241.2</ele>
        <time>2018-11-18T14:16:03Z</time>
      </trkpt>
      <trkpt lat="44.78403" lon="5.45207">
        <ele>1239.76</ele>
        <time>2018-11-18T14:16:19Z</time>
      </trkpt>
      <trkpt lat="44.78396" lon="5.4521">
        <ele>1239.28</ele>
        <time>2018-11-18T14:16:23Z</time>
      </trkpt>
      <trkpt lat="44.7839" lon="5.45211">
        <ele>1238.8</ele>
        <time>2018-11-18T14:16:27Z</time>
      </trkpt>
      <trkpt lat="44.78379" lon="5.45214">
        <ele>1237.83</ele>
        <time>2018-11-18T14:16:37Z</time>
      </trkpt>
      <trkpt lat="44.78364" lon="5.45231">
        <ele>1235.91</ele>
        <time>2018-11-18T14:16:52Z</time>
      </trkpt>
      <trkpt lat="44.78358" lon="5.45236">
        <ele>1235.43</ele>
        <time>2018-11-18T14:16:56Z</time>
      </trkpt>
      <trkpt lat="44.7835" lon="5.4524">
        <ele>1235.43</ele>
        <time>2018-11-18T14:17:01Z</time>
      </trkpt>
      <trkpt lat="44.7834" lon="5.45239">
        <ele>1234.95</ele>
        <time>2018-11-18T14:17:08Z</time>
      </trkpt>
      <trkpt lat="44.7832" lon="5.45247">
        <ele>1233.51</ele>
        <time>2018-11-18T14:17:22Z</time>
      </trkpt>
      <trkpt lat="44.78305" lon="5.45259">
        <ele>1232.07</ele>
        <time>2018-11-18T14:17:36Z</time>
      </trkpt>
      <trkpt lat="44.78295" lon="5.45279">
        <ele>1231.11</ele>
        <time>2018-11-18T14:17:49Z</time>
      </trkpt>
      <trkpt lat="44.78287" lon="5.45287">
        <ele>1230.62</ele>
        <time>2018-11-18T14:17:54Z</time>
      </trkpt>
      <trkpt lat="44.78271" lon="5.45302">
        <ele>1230.14</ele>
        <time>2018-11-18T14:18:07Z</time>
      </trkpt>
      <trkpt lat="44.78262" lon="5.45311">
        <ele>1229.18</ele>
        <time>2018-11-18T14:18:14Z</time>
      </trkpt>
      <trkpt lat="44.78256" lon="5.45315">
        <ele>1228.7</ele>
        <time>2018-11-18T14:18:20Z</time>
      </trkpt>
      <trkpt lat="44.78245" lon="5.45316">
        <ele>1228.7</ele>
        <time>2018-11-18T14:18:27Z</time>
      </trkpt>
      <trkpt lat="44.78242" lon="5.45318">
        <ele>1228.22</ele>
        <time>2018-11-18T14:18:29Z</time>
      </trkpt>
      <trkpt lat="44.78238" lon="5.4534">
        <ele>1228.7</ele>
        <time>2018-11-18T14:18:40Z</time>
      </trkpt>
      <trkpt lat="44.78231" lon="5.45351">
        <ele>1231.59</ele>
        <time>2018-11-18T14:18:49Z</time>
      </trkpt>
      <trkpt lat="44.78225" lon="5.4535">
        <ele>1231.59</ele>
        <time>2018-11-18T14:19:01Z</time>
      </trkpt>
      <trkpt lat="44.78225" lon="5.45349">
        <ele>1231.11</ele>
        <time>2018-11-18T14:19:02Z</time>
      </trkpt>
      <trkpt lat="44.78223" lon="5.45344">
        <ele>1230.62</ele>
        <time>2018-11-18T14:19:04Z</time>
      </trkpt>
      <trkpt lat="44.78221" lon="5.45339">
        <ele>1229.18</ele>
        <time>2018-11-18T14:19:07Z</time>
      </trkpt>
      <trkpt lat="44.78219" lon="5.45332">
        <ele>1228.7</ele>
        <time>2018-11-18T14:19:25Z</time>
      </trkpt>
      <trkpt lat="44.78213" lon="5.45326">
        <ele>1228.22</ele>
        <time>2018-11-18T14:19:31Z</time>
      </trkpt>
      <trkpt lat="44.78211" lon="5.45328">
        <ele>1228.22</ele>
        <time>2018-11-18T14:19:34Z</time>
      </trkpt>
      <trkpt lat="44.78203" lon="5.45333">
        <ele>1227.26</ele>
        <time>2018-11-18T14:19:40Z</time>
      </trkpt>
      <trkpt lat="44.78199" lon="5.45336">
        <ele>1226.78</ele>
        <time>2018-11-18T14:19:45Z</time>
      </trkpt>
      <trkpt lat="44.78195" lon="5.45335">
        <ele>1226.78</ele>
        <time>2018-11-18T14:19:48Z</time>
      </trkpt>
      <trkpt lat="44.7819" lon="5.45336">
        <ele>1225.82</ele>
        <time>2018-11-18T14:19:51Z</time>
      </trkpt>
      <trkpt lat="44.78188" lon="5.45335">
        <ele>1225.82</ele>
        <time>2018-11-18T14:19:53Z</time>
      </trkpt>
      <trkpt lat="44.78167" lon="5.45322">
        <ele>1223.9</ele>
        <time>2018-11-18T14:20:07Z</time>
      </trkpt>
      <trkpt lat="44.78165" lon="5.4532">
        <ele>1223.9</ele>
        <time>2018-11-18T14:20:10Z</time>
      </trkpt>
      <trkpt lat="44.78162" lon="5.45318">
        <ele>1223.42</ele>
        <time>2018-11-18T14:20:12Z</time>
      </trkpt>
      <trkpt lat="44.78143" lon="5.453">
        <ele>1221.01</ele>
        <time>2018-11-18T14:20:27Z</time>
      </trkpt>
      <trkpt lat="44.78131" lon="5.45291">
        <ele>1220.05</ele>
        <time>2018-11-18T14:20:36Z</time>
      </trkpt>
      <trkpt lat="44.78116" lon="5.4528">
        <ele>1218.61</ele>
        <time>2018-11-18T14:20:49Z</time>
      </trkpt>
      <trkpt lat="44.78106" lon="5.45257">
        <ele>1216.69</ele>
        <time>2018-11-18T14:21:06Z</time>
      </trkpt>
      <trkpt lat="44.78104" lon="5.45247">
        <ele>1216.21</ele>
        <time>2018-11-18T14:21:12Z</time>
      </trkpt>
      <trkpt lat="44.78099" lon="5.4524">
        <ele>1215.24</ele>
        <time>2018-11-18T14:21:17Z</time>
      </trkpt>
      <trkpt lat="44.78082" lon="5.45218">
        <ele>1213.8</ele>
        <time>2018-11-18T14:21:34Z</time>
      </trkpt>
      <trkpt lat="44.78076" lon="5.45203">
        <ele>1212.36</ele>
        <time>2018-11-18T14:21:46Z</time>
      </trkpt>
      <trkpt lat="44.78074" lon="5.45194">
        <ele>1211.88</ele>
        <time>2018-11-18T14:21:51Z</time>
      </trkpt>
      <trkpt lat="44.78072" lon="5.45187">
        <ele>1211.4</ele>
        <time>2018-11-18T14:21:56Z</time>
      </trkpt>
      <trkpt lat="44.78065" lon="5.45159">
        <ele>1209.48</ele>
        <time>2018-11-18T14:22:11Z</time>
      </trkpt>
      <trkpt lat="44.78053" lon="5.45146">
        <ele>1208.03</ele>
        <time>2018-11-18T14:22:22Z</time>
      </trkpt>
      <trkpt lat="44.78037" lon="5.45144">
        <ele>1206.11</ele>
        <time>2018-11-18T14:22:38Z</time>
      </trkpt>
      <trkpt lat="44.78036" lon="5.45144">
        <ele>1206.11</ele>
        <time>2018-11-18T14:22:39Z</time>
      </trkpt>
      <trkpt lat="44.78017" lon="5.45143">
        <ele>1204.19</ele>
        <time>2018-11-18T14:22:52Z</time>
      </trkpt>
      <trkpt lat="44.78008" lon="5.4514">
        <ele>1204.19</ele>
        <time>2018-11-18T14:22:59Z</time>
      </trkpt>
      <trkpt lat="44.78" lon="5.45137">
        <ele>1202.75</ele>
        <time>2018-11-18T14:23:06Z</time>
      </trkpt>
      <trkpt lat="44.77985" lon="5.45117">
        <ele>1200.34</ele>
        <time>2018-11-18T14:23:23Z</time>
      </trkpt>
      <trkpt lat="44.77972" lon="5.4509">
        <ele>1196.98</ele>
        <time>2018-11-18T14:23:39Z</time>
      </trkpt>
      <trkpt lat="44.77959" lon="5.45059">
        <ele>1194.58</ele>
        <time>2018-11-18T14:23:55Z</time>
      </trkpt>
      <trkpt lat="44.77948" lon="5.45028">
        <ele>1193.13</ele>
        <time>2018-11-18T14:24:11Z</time>
      </trkpt>
      <trkpt lat="44.77943" lon="5.45023">
        <ele>1193.13</ele>
        <time>2018-11-18T14:24:27Z</time>
      </trkpt>
      <trkpt lat="44.77941" lon="5.45023">
        <ele>1192.65</ele>
        <time>2018-11-18T14:24:30Z</time>
      </trkpt>
      <trkpt lat="44.77929" lon="5.4502">
        <ele>1191.21</ele>
        <time>2018-11-18T14:24:43Z</time>
      </trkpt>
      <trkpt lat="44.77916" lon="5.45017">
        <ele>1190.25</ele>
        <time>2018-11-18T14:24:58Z</time>
      </trkpt>
      <trkpt lat="44.77908" lon="5.45017">
        <ele>1188.81</ele>
        <time>2018-11-18T14:25:11Z</time>
      </trkpt>
      <trkpt lat="44.77896" lon="5.45022">
        <ele>1187.37</ele>
        <time>2018-11-18T14:25:21Z</time>
      </trkpt>
      <trkpt lat="44.77884" lon="5.45028">
        <ele>1186.88</ele>
        <time>2018-11-18T14:25:35Z</time>
      </trkpt>
      <trkpt lat="44.77881" lon="5.45029">
        <ele>1186.4</ele>
        <time>2018-11-18T14:25:37Z</time>
      </trkpt>
      <trkpt lat="44.77875" lon="5.45033">
        <ele>1185.92</ele>
        <time>2018-11-18T14:25:42Z</time>
      </trkpt>
      <trkpt lat="44.77864" lon="5.45035">
        <ele>1184.48</ele>
        <time>2018-11-18T14:25:50Z</time>
      </trkpt>
      <trkpt lat="44.77854" lon="5.45037">
        <ele>1184</ele>
        <time>2018-11-18T14:25:56Z</time>
      </trkpt>
      <trkpt lat="44.77838" lon="5.45035">
        <ele>1183.04</ele>
        <time>2018-11-18T14:26:11Z</time>
      </trkpt>
      <trkpt lat="44.7783" lon="5.45029">
        <ele>1182.08</ele>
        <time>2018-11-18T14:26:18Z</time>
      </trkpt>
      <trkpt lat="44.77807" lon="5.45029">
        <ele>1180.16</ele>
        <time>2018-11-18T14:26:35Z</time>
      </trkpt>
      <trkpt lat="44.77794" lon="5.45027">
        <ele>1179.19</ele>
        <time>2018-11-18T14:26:43Z</time>
      </trkpt>
      <trkpt lat="44.77773" lon="5.45029">
        <ele>1177.27</ele>
        <time>2018-11-18T14:26:59Z</time>
      </trkpt>
      <trkpt lat="44.77767" lon="5.4503">
        <ele>1176.79</ele>
        <time>2018-11-18T14:27:03Z</time>
      </trkpt>
      <trkpt lat="44.7776" lon="5.45031">
        <ele>1176.31</ele>
        <time>2018-11-18T14:27:08Z</time>
      </trkpt>
      <trkpt lat="44.77739" lon="5.45036">
        <ele>1174.39</ele>
        <time>2018-11-18T14:27:24Z</time>
      </trkpt>
      <trkpt lat="44.77715" lon="5.45033">
        <ele>1171.98</ele>
        <time>2018-11-18T14:27:41Z</time>
      </trkpt>
      <trkpt lat="44.77695" lon="5.45037">
        <ele>1170.54</ele>
        <time>2018-11-18T14:27:57Z</time>
      </trkpt>
      <trkpt lat="44.77672" lon="5.45045">
        <ele>1168.14</ele>
        <time>2018-11-18T14:28:15Z</time>
      </trkpt>
      <trkpt lat="44.77671" lon="5.4505">
        <ele>1167.66</ele>
        <time>2018-11-18T14:28:20Z</time>
      </trkpt>
      <trkpt lat="44.77666" lon="5.45069">
        <ele>1165.74</ele>
        <time>2018-11-18T14:28:36Z</time>
      </trkpt>
      <trkpt lat="44.77657" lon="5.45089">
        <ele>1164.29</ele>
        <time>2018-11-18T14:28:48Z</time>
      </trkpt>
      <trkpt lat="44.77639" lon="5.45101">
        <ele>1164.29</ele>
        <time>2018-11-18T14:29:01Z</time>
      </trkpt>
      <trkpt lat="44.77636" lon="5.451">
        <ele>1164.29</ele>
        <time>2018-11-18T14:29:03Z</time>
      </trkpt>
      <trkpt lat="44.77627" lon="5.45098">
        <ele>1163.33</ele>
        <time>2018-11-18T14:29:09Z</time>
      </trkpt>
      <trkpt lat="44.77626" lon="5.45097">
        <ele>1163.33</ele>
        <time>2018-11-18T14:29:10Z</time>
      </trkpt>
      <trkpt lat="44.77622" lon="5.45091">
        <ele>1162.37</ele>
        <time>2018-11-18T14:29:14Z</time>
      </trkpt>
      <trkpt lat="44.7762" lon="5.45088">
        <ele>1162.37</ele>
        <time>2018-11-18T14:29:16Z</time>
      </trkpt>
      <trkpt lat="44.77609" lon="5.45082">
        <ele>1161.89</ele>
        <time>2018-11-18T14:29:27Z</time>
      </trkpt>
      <trkpt lat="44.77605" lon="5.45082">
        <ele>1161.89</ele>
        <time>2018-11-18T14:29:30Z</time>
      </trkpt>
      <trkpt lat="44.77591" lon="5.45071">
        <ele>1160.93</ele>
        <time>2018-11-18T14:29:44Z</time>
      </trkpt>
      <trkpt lat="44.77585" lon="5.45064">
        <ele>1159.97</ele>
        <time>2018-11-18T14:29:49Z</time>
      </trkpt>
      <trkpt lat="44.77571" lon="5.45044">
        <ele>1159.01</ele>
        <time>2018-11-18T14:30:03Z</time>
      </trkpt>
      <trkpt lat="44.77561" lon="5.45038">
        <ele>1158.05</ele>
        <time>2018-11-18T14:30:11Z</time>
      </trkpt>
      <trkpt lat="44.77559" lon="5.45039">
        <ele>1158.05</ele>
        <time>2018-11-18T14:30:13Z</time>
      </trkpt>
      <trkpt lat="44.77552" lon="5.45049">
        <ele>1157.56</ele>
        <time>2018-11-18T14:30:20Z</time>
      </trkpt>
      <trkpt lat="44.77543" lon="5.45062">
        <ele>1156.6</ele>
        <time>2018-11-18T14:30:30Z</time>
      </trkpt>
      <trkpt lat="44.77528" lon="5.45078">
        <ele>1154.68</ele>
        <time>2018-11-18T14:30:49Z</time>
      </trkpt>
      <trkpt lat="44.77523" lon="5.45088">
        <ele>1154.2</ele>
        <time>2018-11-18T14:30:55Z</time>
      </trkpt>
      <trkpt lat="44.77504" lon="5.45109">
        <ele>1153.72</ele>
        <time>2018-11-18T14:31:10Z</time>
      </trkpt>
      <trkpt lat="44.77502" lon="5.45113">
        <ele>1153.72</ele>
        <time>2018-11-18T14:31:13Z</time>
      </trkpt>
      <trkpt lat="44.77497" lon="5.45111">
        <ele>1153.72</ele>
        <time>2018-11-18T14:31:18Z</time>
      </trkpt>
      <trkpt lat="44.7749" lon="5.45101">
        <ele>1152.76</ele>
        <time>2018-11-18T14:31:25Z</time>
      </trkpt>
      <trkpt lat="44.77477" lon="5.4508">
        <ele>1150.84</ele>
        <time>2018-11-18T14:31:41Z</time>
      </trkpt>
      <trkpt lat="44.77472" lon="5.45078">
        <ele>1150.84</ele>
        <time>2018-11-18T14:31:46Z</time>
      </trkpt>
      <trkpt lat="44.77468" lon="5.45087">
        <ele>1151.8</ele>
        <time>2018-11-18T14:31:53Z</time>
      </trkpt>
      <trkpt lat="44.77462" lon="5.45095">
        <ele>1150.35</ele>
        <time>2018-11-18T14:32:10Z</time>
      </trkpt>
      <trkpt lat="44.77458" lon="5.45091">
        <ele>1149.87</ele>
        <time>2018-11-18T14:32:15Z</time>
      </trkpt>
      <trkpt lat="44.77456" lon="5.45086">
        <ele>1149.87</ele>
        <time>2018-11-18T14:32:18Z</time>
      </trkpt>
      <trkpt lat="44.77452" lon="5.45059">
        <ele>1148.43</ele>
        <time>2018-11-18T14:32:34Z</time>
      </trkpt>
      <trkpt lat="44.77448" lon="5.45046">
        <ele>1147.47</ele>
        <time>2018-11-18T14:32:43Z</time>
      </trkpt>
      <trkpt lat="44.77436" lon="5.45047">
        <ele>1146.03</ele>
        <time>2018-11-18T14:32:52Z</time>
      </trkpt>
      <trkpt lat="44.77431" lon="5.4505">
        <ele>1146.03</ele>
        <time>2018-11-18T14:32:56Z</time>
      </trkpt>
      <trkpt lat="44.77426" lon="5.4505">
        <ele>1146.03</ele>
        <time>2018-11-18T14:33:00Z</time>
      </trkpt>
      <trkpt lat="44.77416" lon="5.45041">
        <ele>1144.59</ele>
        <time>2018-11-18T14:33:07Z</time>
      </trkpt>
      <trkpt lat="44.77413" lon="5.4504">
        <ele>1145.07</ele>
        <time>2018-11-18T14:33:09Z</time>
      </trkpt>
      <trkpt lat="44.77406" lon="5.45047">
        <ele>1143.63</ele>
        <time>2018-11-18T14:33:17Z</time>
      </trkpt>
      <trkpt lat="44.7739" lon="5.45052">
        <ele>1143.14</ele>
        <time>2018-11-18T14:33:31Z</time>
      </trkpt>
      <trkpt lat="44.77381" lon="5.45059">
        <ele>1142.66</ele>
        <time>2018-11-18T14:33:44Z</time>
      </trkpt>
      <trkpt lat="44.77373" lon="5.45058">
        <ele>1141.22</ele>
        <time>2018-11-18T14:33:50Z</time>
      </trkpt>
      <trkpt lat="44.77365" lon="5.45052">
        <ele>1141.22</ele>
        <time>2018-11-18T14:33:57Z</time>
      </trkpt>
      <trkpt lat="44.77366" lon="5.45038">
        <ele>1140.74</ele>
        <time>2018-11-18T14:34:05Z</time>
      </trkpt>
      <trkpt lat="44.77366" lon="5.4503">
        <ele>1140.74</ele>
        <time>2018-11-18T14:34:11Z</time>
      </trkpt>
      <trkpt lat="44.77371" lon="5.45014">
        <ele>1139.78</ele>
        <time>2018-11-18T14:34:20Z</time>
      </trkpt>
      <trkpt lat="44.77372" lon="5.45007">
        <ele>1138.82</ele>
        <time>2018-11-18T14:34:25Z</time>
      </trkpt>
      <trkpt lat="44.77371" lon="5.45002">
        <ele>1138.82</ele>
        <time>2018-11-18T14:34:27Z</time>
      </trkpt>
      <trkpt lat="44.77364" lon="5.44979">
        <ele>1137.38</ele>
        <time>2018-11-18T14:34:37Z</time>
      </trkpt>
      <trkpt lat="44.77347" lon="5.44965">
        <ele>1135.45</ele>
        <time>2018-11-18T14:34:53Z</time>
      </trkpt>
      <trkpt lat="44.7733" lon="5.44947">
        <ele>1134.01</ele>
        <time>2018-11-18T14:35:07Z</time>
      </trkpt>
      <trkpt lat="44.77314" lon="5.4493">
        <ele>1133.53</ele>
        <time>2018-11-18T14:35:21Z</time>
      </trkpt>
      <trkpt lat="44.77312" lon="5.44929">
        <ele>1133.05</ele>
        <time>2018-11-18T14:35:23Z</time>
      </trkpt>
      <trkpt lat="44.773" lon="5.44901">
        <ele>1131.61</ele>
        <time>2018-11-18T14:35:37Z</time>
      </trkpt>
      <trkpt lat="44.77298" lon="5.44893">
        <ele>1131.61</ele>
        <time>2018-11-18T14:35:42Z</time>
      </trkpt>
      <trkpt lat="44.77294" lon="5.44885">
        <ele>1130.65</ele>
        <time>2018-11-18T14:35:49Z</time>
      </trkpt>
      <trkpt lat="44.77284" lon="5.44861">
        <ele>1129.21</ele>
        <time>2018-11-18T14:36:04Z</time>
      </trkpt>
      <trkpt lat="44.77282" lon="5.44849">
        <ele>1129.21</ele>
        <time>2018-11-18T14:36:11Z</time>
      </trkpt>
      <trkpt lat="44.77282" lon="5.44841">
        <ele>1128.73</ele>
        <time>2018-11-18T14:36:15Z</time>
      </trkpt>
      <trkpt lat="44.77295" lon="5.44816">
        <ele>1127.28</ele>
        <time>2018-11-18T14:36:32Z</time>
      </trkpt>
      <trkpt lat="44.77294" lon="5.44799">
        <ele>1125.84</ele>
        <time>2018-11-18T14:36:42Z</time>
      </trkpt>
      <trkpt lat="44.77296" lon="5.44783">
        <ele>1125.36</ele>
        <time>2018-11-18T14:36:52Z</time>
      </trkpt>
      <trkpt lat="44.77296" lon="5.44777">
        <ele>1125.36</ele>
        <time>2018-11-18T14:36:55Z</time>
      </trkpt>
      <trkpt lat="44.77283" lon="5.4475">
        <ele>1123.44</ele>
        <time>2018-11-18T14:37:13Z</time>
      </trkpt>
      <trkpt lat="44.77271" lon="5.44731">
        <ele>1121.52</ele>
        <time>2018-11-18T14:37:29Z</time>
      </trkpt>
      <trkpt lat="44.7727" lon="5.44718">
        <ele>1121.52</ele>
        <time>2018-11-18T14:37:34Z</time>
      </trkpt>
      <trkpt lat="44.77264" lon="5.44703">
        <ele>1120.07</ele>
        <time>2018-11-18T14:37:42Z</time>
      </trkpt>
      <trkpt lat="44.77259" lon="5.44699">
        <ele>1119.59</ele>
        <time>2018-11-18T14:37:47Z</time>
      </trkpt>
      <trkpt lat="44.77252" lon="5.44693">
        <ele>1119.11</ele>
        <time>2018-11-18T14:37:53Z</time>
      </trkpt>
      <trkpt lat="44.7725" lon="5.44679">
        <ele>1118.63</ele>
        <time>2018-11-18T14:38:01Z</time>
      </trkpt>
      <trkpt lat="44.77259" lon="5.44649">
        <ele>1117.19</ele>
        <time>2018-11-18T14:38:14Z</time>
      </trkpt>
      <trkpt lat="44.77261" lon="5.44634">
        <ele>1116.71</ele>
        <time>2018-11-18T14:38:22Z</time>
      </trkpt>
      <trkpt lat="44.77253" lon="5.44625">
        <ele>1116.23</ele>
        <time>2018-11-18T14:38:29Z</time>
      </trkpt>
      <trkpt lat="44.77247" lon="5.44621">
        <ele>1115.75</ele>
        <time>2018-11-18T14:38:34Z</time>
      </trkpt>
      <trkpt lat="44.77245" lon="5.4462">
        <ele>1115.75</ele>
        <time>2018-11-18T14:38:36Z</time>
      </trkpt>
      <trkpt lat="44.7723" lon="5.44613">
        <ele>1114.79</ele>
        <time>2018-11-18T14:38:51Z</time>
      </trkpt>
      <trkpt lat="44.77228" lon="5.44612">
        <ele>1113.82</ele>
        <time>2018-11-18T14:38:52Z</time>
      </trkpt>
      <trkpt lat="44.77219" lon="5.44598">
        <ele>1113.82</ele>
        <time>2018-11-18T14:39:01Z</time>
      </trkpt>
      <trkpt lat="44.77205" lon="5.44587">
        <ele>1112.38</ele>
        <time>2018-11-18T14:39:14Z</time>
      </trkpt>
      <trkpt lat="44.77198" lon="5.44586">
        <ele>1111.9</ele>
        <time>2018-11-18T14:39:20Z</time>
      </trkpt>
      <trkpt lat="44.7719" lon="5.44581">
        <ele>1111.42</ele>
        <time>2018-11-18T14:39:25Z</time>
      </trkpt>
      <trkpt lat="44.77187" lon="5.44578">
        <ele>1110.94</ele>
        <time>2018-11-18T14:39:27Z</time>
      </trkpt>
      <trkpt lat="44.77177" lon="5.44561">
        <ele>1109.98</ele>
        <time>2018-11-18T14:39:37Z</time>
      </trkpt>
      <trkpt lat="44.77176" lon="5.44558">
        <ele>1109.98</ele>
        <time>2018-11-18T14:39:39Z</time>
      </trkpt>
      <trkpt lat="44.77167" lon="5.44536">
        <ele>1108.54</ele>
        <time>2018-11-18T14:39:50Z</time>
      </trkpt>
      <trkpt lat="44.77154" lon="5.44523">
        <ele>1108.06</ele>
        <time>2018-11-18T14:40:04Z</time>
      </trkpt>
      <trkpt lat="44.77148" lon="5.44512">
        <ele>1107.1</ele>
        <time>2018-11-18T14:40:12Z</time>
      </trkpt>
      <trkpt lat="44.77144" lon="5.44505">
        <ele>1108.06</ele>
        <time>2018-11-18T14:40:17Z</time>
      </trkpt>
      <trkpt lat="44.77125" lon="5.44482">
        <ele>1105.65</ele>
        <time>2018-11-18T14:40:35Z</time>
      </trkpt>
      <trkpt lat="44.77117" lon="5.44477">
        <ele>1105.17</ele>
        <time>2018-11-18T14:40:40Z</time>
      </trkpt>
      <trkpt lat="44.77108" lon="5.44472">
        <ele>1105.17</ele>
        <time>2018-11-18T14:40:56Z</time>
      </trkpt>
      <trkpt lat="44.7711" lon="5.4447">
        <ele>1104.69</ele>
        <time>2018-11-18T14:41:21Z</time>
      </trkpt>
      <trkpt lat="44.77108" lon="5.44468">
        <ele>1104.69</ele>
        <time>2018-11-18T14:41:51Z</time>
      </trkpt>
      <trkpt lat="44.77107" lon="5.44469">
        <ele>1104.21</ele>
        <time>2018-11-18T14:42:23Z</time>
      </trkpt>
      <trkpt lat="44.77104" lon="5.44466">
        <ele>1103.73</ele>
        <time>2018-11-18T14:42:26Z</time>
      </trkpt>
      <trkpt lat="44.77096" lon="5.44462">
        <ele>1102.29</ele>
        <time>2018-11-18T14:42:33Z</time>
      </trkpt>
      <trkpt lat="44.77087" lon="5.44457">
        <ele>1100.37</ele>
        <time>2018-11-18T14:42:43Z</time>
      </trkpt>
      <trkpt lat="44.77073" lon="5.44458">
        <ele>1097</ele>
        <time>2018-11-18T14:42:54Z</time>
      </trkpt>
      <trkpt lat="44.77069" lon="5.44451">
        <ele>1095.56</ele>
        <time>2018-11-18T14:42:59Z</time>
      </trkpt>
      <trkpt lat="44.77068" lon="5.44448">
        <ele>1094.12</ele>
        <time>2018-11-18T14:43:01Z</time>
      </trkpt>
      <trkpt lat="44.77066" lon="5.44438">
        <ele>1091.23</ele>
        <time>2018-11-18T14:43:08Z</time>
      </trkpt>
      <trkpt lat="44.77063" lon="5.44426">
        <ele>1087.87</ele>
        <time>2018-11-18T14:43:20Z</time>
      </trkpt>
      <trkpt lat="44.7706" lon="5.44421">
        <ele>1084.5</ele>
        <time>2018-11-18T14:43:32Z</time>
      </trkpt>
      <trkpt lat="44.77054" lon="5.44416">
        <ele>1081.14</ele>
        <time>2018-11-18T14:43:46Z</time>
      </trkpt>
      <trkpt lat="44.77052" lon="5.44412">
        <ele>1079.7</ele>
        <time>2018-11-18T14:43:51Z</time>
      </trkpt>
      <trkpt lat="44.77052" lon="5.44412">
        <ele>1078.26</ele>
        <time>2018-11-18T14:44:13Z</time>
      </trkpt>
      <trkpt lat="44.77051" lon="5.44414">
        <ele>1080.18</ele>
        <time>2018-11-18T14:44:37Z</time>
      </trkpt>
      <trkpt lat="44.77051" lon="5.44414">
        <ele>1080.18</ele>
        <time>2018-11-18T14:45:04Z</time>
      </trkpt>
      <trkpt lat="44.77051" lon="5.44409">
        <ele>1079.22</ele>
        <time>2018-11-18T14:45:13Z</time>
      </trkpt>
      <trkpt lat="44.7705" lon="5.44401">
        <ele>1075.85</ele>
        <time>2018-11-18T14:45:24Z</time>
      </trkpt>
      <trkpt lat="44.77044" lon="5.44399">
        <ele>1073.45</ele>
        <time>2018-11-18T14:45:31Z</time>
      </trkpt>
      <trkpt lat="44.77041" lon="5.44397">
        <ele>1071.05</ele>
        <time>2018-11-18T14:45:35Z</time>
      </trkpt>
      <trkpt lat="44.77038" lon="5.44385">
        <ele>1067.2</ele>
        <time>2018-11-18T14:45:43Z</time>
      </trkpt>
      <trkpt lat="44.77039" lon="5.44376">
        <ele>1063.84</ele>
        <time>2018-11-18T14:45:51Z</time>
      </trkpt>
      <trkpt lat="44.77033" lon="5.44364">
        <ele>1060.47</ele>
        <time>2018-11-18T14:46:02Z</time>
      </trkpt>
      <trkpt lat="44.77025" lon="5.44356">
        <ele>1057.11</ele>
        <time>2018-11-18T14:46:12Z</time>
      </trkpt>
      <trkpt lat="44.77023" lon="5.44345">
        <ele>1053.74</ele>
        <time>2018-11-18T14:46:21Z</time>
      </trkpt>
      <trkpt lat="44.7702" lon="5.44341">
        <ele>1052.78</ele>
        <time>2018-11-18T14:46:24Z</time>
      </trkpt>
      <trkpt lat="44.77018" lon="5.44336">
        <ele>1051.82</ele>
        <time>2018-11-18T14:46:27Z</time>
      </trkpt>
      <trkpt lat="44.77015" lon="5.44329">
        <ele>1049.42</ele>
        <time>2018-11-18T14:46:33Z</time>
      </trkpt>
      <trkpt lat="44.77011" lon="5.44325">
        <ele>1047.97</ele>
        <time>2018-11-18T14:46:37Z</time>
      </trkpt>
      <trkpt lat="44.7701" lon="5.44324">
        <ele>1047.49</ele>
        <time>2018-11-18T14:46:39Z</time>
      </trkpt>
      <trkpt lat="44.77003" lon="5.44314">
        <ele>1044.61</ele>
        <time>2018-11-18T14:46:48Z</time>
      </trkpt>
      <trkpt lat="44.76998" lon="5.44304">
        <ele>1042.69</ele>
        <time>2018-11-18T14:46:56Z</time>
      </trkpt>
      <trkpt lat="44.76997" lon="5.443">
        <ele>1041.73</ele>
        <time>2018-11-18T14:46:58Z</time>
      </trkpt>
      <trkpt lat="44.76998" lon="5.44292">
        <ele>1040.76</ele>
        <time>2018-11-18T14:47:03Z</time>
      </trkpt>
      <trkpt lat="44.76992" lon="5.44284">
        <ele>1038.36</ele>
        <time>2018-11-18T14:47:11Z</time>
      </trkpt>
      <trkpt lat="44.76988" lon="5.44266">
        <ele>1035</ele>
        <time>2018-11-18T14:47:23Z</time>
      </trkpt>
      <trkpt lat="44.76985" lon="5.44259">
        <ele>1034.04</ele>
        <time>2018-11-18T14:47:28Z</time>
      </trkpt>
      <trkpt lat="44.76979" lon="5.44246">
        <ele>1030.19</ele>
        <time>2018-11-18T14:47:40Z</time>
      </trkpt>
      <trkpt lat="44.76978" lon="5.44239">
        <ele>1028.75</ele>
        <time>2018-11-18T14:47:50Z</time>
      </trkpt>
      <trkpt lat="44.76975" lon="5.44232">
        <ele>1025.86</ele>
        <time>2018-11-18T14:47:58Z</time>
      </trkpt>
      <trkpt lat="44.76966" lon="5.44222">
        <ele>1022.98</ele>
        <time>2018-11-18T14:48:10Z</time>
      </trkpt>
      <trkpt lat="44.76957" lon="5.44206">
        <ele>1020.1</ele>
        <time>2018-11-18T14:48:27Z</time>
      </trkpt>
      <trkpt lat="44.76951" lon="5.44194">
        <ele>1017.21</ele>
        <time>2018-11-18T14:48:38Z</time>
      </trkpt>
      <trkpt lat="44.76941" lon="5.44178">
        <ele>1013.85</ele>
        <time>2018-11-18T14:48:56Z</time>
      </trkpt>
      <trkpt lat="44.76938" lon="5.44173">
        <ele>1013.37</ele>
        <time>2018-11-18T14:49:24Z</time>
      </trkpt>
      <trkpt lat="44.76941" lon="5.44173">
        <ele>1012.89</ele>
        <time>2018-11-18T14:49:43Z</time>
      </trkpt>
      <trkpt lat="44.76929" lon="5.44158">
        <ele>1009.52</ele>
        <time>2018-11-18T14:49:56Z</time>
      </trkpt>
      <trkpt lat="44.76928" lon="5.44154">
        <ele>1009.52</ele>
        <time>2018-11-18T14:49:58Z</time>
      </trkpt>
      <trkpt lat="44.76924" lon="5.44149">
        <ele>1008.56</ele>
        <time>2018-11-18T14:50:02Z</time>
      </trkpt>
      <trkpt lat="44.76914" lon="5.44127">
        <ele>1006.16</ele>
        <time>2018-11-18T14:50:21Z</time>
      </trkpt>
      <trkpt lat="44.76914" lon="5.4413">
        <ele>1006.64</ele>
        <time>2018-11-18T14:50:53Z</time>
      </trkpt>
      <trkpt lat="44.76913" lon="5.44126">
        <ele>1006.64</ele>
        <time>2018-11-18T14:51:20Z</time>
      </trkpt>
      <trkpt lat="44.76915" lon="5.44125">
        <ele>1006.64</ele>
        <time>2018-11-18T14:51:47Z</time>
      </trkpt>
      <trkpt lat="44.76912" lon="5.44124">
        <ele>1006.64</ele>
        <time>2018-11-18T14:51:54Z</time>
      </trkpt>
      <trkpt lat="44.7691" lon="5.44117">
        <ele>1006.16</ele>
        <time>2018-11-18T14:52:00Z</time>
      </trkpt>
      <trkpt lat="44.7691" lon="5.44119">
        <ele>1005.68</ele>
        <time>2018-11-18T14:52:20Z</time>
      </trkpt>
      <trkpt lat="44.76912" lon="5.44117">
        <ele>1005.68</ele>
        <time>2018-11-18T14:52:47Z</time>
      </trkpt>
      <trkpt lat="44.76907" lon="5.44114">
        <ele>1005.68</ele>
        <time>2018-11-18T14:53:19Z</time>
      </trkpt>
      <trkpt lat="44.76914" lon="5.44116">
        <ele>1005.68</ele>
        <time>2018-11-18T14:53:48Z</time>
      </trkpt>
      <trkpt lat="44.76913" lon="5.44116">
        <ele>1005.68</ele>
        <time>2018-11-18T14:54:15Z</time>
      </trkpt>
      <trkpt lat="44.76909" lon="5.44116">
        <ele>1005.68</ele>
        <time>2018-11-18T14:54:49Z</time>
      </trkpt>
      <trkpt lat="44.76908" lon="5.44117">
        <ele>1005.68</ele>
        <time>2018-11-18T14:55:19Z</time>
      </trkpt>
      <trkpt lat="44.7691" lon="5.44119">
        <ele>1005.68</ele>
        <time>2018-11-18T14:55:47Z</time>
      </trkpt>
      <trkpt lat="44.7691" lon="5.44116">
        <ele>1005.68</ele>
        <time>2018-11-18T14:56:09Z</time>
      </trkpt>
      <trkpt lat="44.7691" lon="5.44117">
        <ele>1005.68</ele>
        <time>2018-11-18T14:56:17Z</time>
      </trkpt>
      <trkpt lat="44.76907" lon="5.44115">
        <ele>1005.68</ele>
        <time>2018-11-18T14:56:20Z</time>
      </trkpt>
      <trkpt lat="44.76901" lon="5.44105">
        <ele>1004.23</ele>
        <time>2018-11-18T14:56:30Z</time>
      </trkpt>
      <trkpt lat="44.76899" lon="5.44103">
        <ele>1002.79</ele>
        <time>2018-11-18T14:56:33Z</time>
      </trkpt>
      <trkpt lat="44.76898" lon="5.44099">
        <ele>1004.72</ele>
        <time>2018-11-18T14:56:36Z</time>
      </trkpt>
      <trkpt lat="44.76897" lon="5.44095">
        <ele>1002.79</ele>
        <time>2018-11-18T14:56:39Z</time>
      </trkpt>
      <trkpt lat="44.76893" lon="5.44088">
        <ele>1002.31</ele>
        <time>2018-11-18T14:56:45Z</time>
      </trkpt>
      <trkpt lat="44.76885" lon="5.44071">
        <ele>998.95</ele>
        <time>2018-11-18T14:57:00Z</time>
      </trkpt>
      <trkpt lat="44.76877" lon="5.44064">
        <ele>997.02</ele>
        <time>2018-11-18T14:57:15Z</time>
      </trkpt>
      <trkpt lat="44.76875" lon="5.44055">
        <ele>996.06</ele>
        <time>2018-11-18T14:57:19Z</time>
      </trkpt>
      <trkpt lat="44.76873" lon="5.44049">
        <ele>995.1</ele>
        <time>2018-11-18T14:57:23Z</time>
      </trkpt>
      <trkpt lat="44.76869" lon="5.4404">
        <ele>994.62</ele>
        <time>2018-11-18T14:57:29Z</time>
      </trkpt>
      <trkpt lat="44.76863" lon="5.4403">
        <ele>994.14</ele>
        <time>2018-11-18T14:57:36Z</time>
      </trkpt>
      <trkpt lat="44.76858" lon="5.44016">
        <ele>992.7</ele>
        <time>2018-11-18T14:57:52Z</time>
      </trkpt>
      <trkpt lat="44.76857" lon="5.44014">
        <ele>992.7</ele>
        <time>2018-11-18T14:58:05Z</time>
      </trkpt>
      <trkpt lat="44.76846" lon="5.43999">
        <ele>989.33</ele>
        <time>2018-11-18T14:58:20Z</time>
      </trkpt>
      <trkpt lat="44.76844" lon="5.43985">
        <ele>986.45</ele>
        <time>2018-11-18T14:58:29Z</time>
      </trkpt>
      <trkpt lat="44.76834" lon="5.43962">
        <ele>985.49</ele>
        <time>2018-11-18T14:58:43Z</time>
      </trkpt>
      <trkpt lat="44.76833" lon="5.43947">
        <ele>985.49</ele>
        <time>2018-11-18T14:58:51Z</time>
      </trkpt>
      <trkpt lat="44.76835" lon="5.43919">
        <ele>985.49</ele>
        <time>2018-11-18T14:59:07Z</time>
      </trkpt>
      <trkpt lat="44.76838" lon="5.43891">
        <ele>984.05</ele>
        <time>2018-11-18T14:59:23Z</time>
      </trkpt>
      <trkpt lat="44.76836" lon="5.43883">
        <ele>984.05</ele>
        <time>2018-11-18T14:59:27Z</time>
      </trkpt>
      <trkpt lat="44.7683" lon="5.43855">
        <ele>985.01</ele>
        <time>2018-11-18T14:59:41Z</time>
      </trkpt>
      <trkpt lat="44.76829" lon="5.43849">
        <ele>983.57</ele>
        <time>2018-11-18T14:59:44Z</time>
      </trkpt>
      <trkpt lat="44.76827" lon="5.4382">
        <ele>982.6</ele>
        <time>2018-11-18T15:00:01Z</time>
      </trkpt>
      <trkpt lat="44.76826" lon="5.43819">
        <ele>982.6</ele>
        <time>2018-11-18T15:00:04Z</time>
      </trkpt>
      <trkpt lat="44.7682" lon="5.43805">
        <ele>981.16</ele>
        <time>2018-11-18T15:00:14Z</time>
      </trkpt>
      <trkpt lat="44.76824" lon="5.43787">
        <ele>977.8</ele>
        <time>2018-11-18T15:00:25Z</time>
      </trkpt>
      <trkpt lat="44.76825" lon="5.43782">
        <ele>976.84</ele>
        <time>2018-11-18T15:00:28Z</time>
      </trkpt>
      <trkpt lat="44.76827" lon="5.43777">
        <ele>974.43</ele>
        <time>2018-11-18T15:00:34Z</time>
      </trkpt>
      <trkpt lat="44.76824" lon="5.43763">
        <ele>971.07</ele>
        <time>2018-11-18T15:00:44Z</time>
      </trkpt>
      <trkpt lat="44.76819" lon="5.4375">
        <ele>968.18</ele>
        <time>2018-11-18T15:00:54Z</time>
      </trkpt>
      <trkpt lat="44.76812" lon="5.43738">
        <ele>964.82</ele>
        <time>2018-11-18T15:01:05Z</time>
      </trkpt>
      <trkpt lat="44.76805" lon="5.43727">
        <ele>961.46</ele>
        <time>2018-11-18T15:01:16Z</time>
      </trkpt>
      <trkpt lat="44.76798" lon="5.43713">
        <ele>958.09</ele>
        <time>2018-11-18T15:01:27Z</time>
      </trkpt>
      <trkpt lat="44.76797" lon="5.43709">
        <ele>957.61</ele>
        <time>2018-11-18T15:01:30Z</time>
      </trkpt>
      <trkpt lat="44.76797" lon="5.43687">
        <ele>953.77</ele>
        <time>2018-11-18T15:01:44Z</time>
      </trkpt>
      <trkpt lat="44.76793" lon="5.43669">
        <ele>950.4</ele>
        <time>2018-11-18T15:01:58Z</time>
      </trkpt>
      <trkpt lat="44.76787" lon="5.43652">
        <ele>948.48</ele>
        <time>2018-11-18T15:02:12Z</time>
      </trkpt>
      <trkpt lat="44.76776" lon="5.43637">
        <ele>947.52</ele>
        <time>2018-11-18T15:02:26Z</time>
      </trkpt>
      <trkpt lat="44.76775" lon="5.43635">
        <ele>947.52</ele>
        <time>2018-11-18T15:02:41Z</time>
      </trkpt>
      <trkpt lat="44.76775" lon="5.43634">
        <ele>947.52</ele>
        <time>2018-11-18T15:02:43Z</time>
      </trkpt>
      <trkpt lat="44.76774" lon="5.43622">
        <ele>946.56</ele>
        <time>2018-11-18T15:02:56Z</time>
      </trkpt>
      <trkpt lat="44.76774" lon="5.43617">
        <ele>945.11</ele>
        <time>2018-11-18T15:02:59Z</time>
      </trkpt>
      <trkpt lat="44.76771" lon="5.43604">
        <ele>941.75</ele>
        <time>2018-11-18T15:03:08Z</time>
      </trkpt>
      <trkpt lat="44.7677" lon="5.43597">
        <ele>940.31</ele>
        <time>2018-11-18T15:03:12Z</time>
      </trkpt>
      <trkpt lat="44.7677" lon="5.43593">
        <ele>938.86</ele>
        <time>2018-11-18T15:03:17Z</time>
      </trkpt>
      <trkpt lat="44.7677" lon="5.43586">
        <ele>936.94</ele>
        <time>2018-11-18T15:03:23Z</time>
      </trkpt>
      <trkpt lat="44.7677" lon="5.4358">
        <ele>935.02</ele>
        <time>2018-11-18T15:03:28Z</time>
      </trkpt>
      <trkpt lat="44.7677" lon="5.43563">
        <ele>931.65</ele>
        <time>2018-11-18T15:03:39Z</time>
      </trkpt>
      <trkpt lat="44.76764" lon="5.4354">
        <ele>928.77</ele>
        <time>2018-11-18T15:03:52Z</time>
      </trkpt>
      <trkpt lat="44.7676" lon="5.43524">
        <ele>925.41</ele>
        <time>2018-11-18T15:04:03Z</time>
      </trkpt>
      <trkpt lat="44.7676" lon="5.43523">
        <ele>925.41</ele>
        <time>2018-11-18T15:04:04Z</time>
      </trkpt>
      <trkpt lat="44.76762" lon="5.43519">
        <ele>922.04</ele>
        <time>2018-11-18T15:04:15Z</time>
      </trkpt>
      <trkpt lat="44.76769" lon="5.4352">
        <ele>918.68</ele>
        <time>2018-11-18T15:04:25Z</time>
      </trkpt>
      <trkpt lat="44.76766" lon="5.435">
        <ele>915.31</ele>
        <time>2018-11-18T15:04:37Z</time>
      </trkpt>
      <trkpt lat="44.76766" lon="5.43498">
        <ele>915.31</ele>
        <time>2018-11-18T15:04:38Z</time>
      </trkpt>
      <trkpt lat="44.76758" lon="5.43483">
        <ele>913.39</ele>
        <time>2018-11-18T15:04:49Z</time>
      </trkpt>
      <trkpt lat="44.76753" lon="5.4348">
        <ele>912.43</ele>
        <time>2018-11-18T15:04:53Z</time>
      </trkpt>
      <trkpt lat="44.76752" lon="5.43474">
        <ele>909.54</ele>
        <time>2018-11-18T15:05:06Z</time>
      </trkpt>
      <trkpt lat="44.76754" lon="5.4347">
        <ele>907.62</ele>
        <time>2018-11-18T15:05:15Z</time>
      </trkpt>
      <trkpt lat="44.76749" lon="5.43461">
        <ele>904.74</ele>
        <time>2018-11-18T15:05:24Z</time>
      </trkpt>
      <trkpt lat="44.76749" lon="5.43458">
        <ele>904.26</ele>
        <time>2018-11-18T15:05:26Z</time>
      </trkpt>
      <trkpt lat="44.76749" lon="5.43447">
        <ele>900.41</ele>
        <time>2018-11-18T15:05:37Z</time>
      </trkpt>
      <trkpt lat="44.76745" lon="5.4344">
        <ele>899.45</ele>
        <time>2018-11-18T15:05:43Z</time>
      </trkpt>
      <trkpt lat="44.76743" lon="5.43426">
        <ele>896.09</ele>
        <time>2018-11-18T15:05:54Z</time>
      </trkpt>
      <trkpt lat="44.76739" lon="5.43406">
        <ele>894.16</ele>
        <time>2018-11-18T15:06:05Z</time>
      </trkpt>
      <trkpt lat="44.76733" lon="5.43395">
        <ele>893.2</ele>
        <time>2018-11-18T15:06:13Z</time>
      </trkpt>
      <trkpt lat="44.76731" lon="5.43385">
        <ele>890.8</ele>
        <time>2018-11-18T15:06:21Z</time>
      </trkpt>
      <trkpt lat="44.76738" lon="5.43369">
        <ele>886.95</ele>
        <time>2018-11-18T15:06:36Z</time>
      </trkpt>
      <trkpt lat="44.76741" lon="5.43363">
        <ele>883.59</ele>
        <time>2018-11-18T15:06:45Z</time>
      </trkpt>
      <trkpt lat="44.7674" lon="5.43351">
        <ele>881.67</ele>
        <time>2018-11-18T15:06:57Z</time>
      </trkpt>
      <trkpt lat="44.76738" lon="5.43342">
        <ele>878.3</ele>
        <time>2018-11-18T15:07:07Z</time>
      </trkpt>
      <trkpt lat="44.76743" lon="5.43336">
        <ele>876.38</ele>
        <time>2018-11-18T15:07:15Z</time>
      </trkpt>
      <trkpt lat="44.76751" lon="5.43334">
        <ele>873.01</ele>
        <time>2018-11-18T15:07:28Z</time>
      </trkpt>
      <trkpt lat="44.76748" lon="5.43322">
        <ele>870.13</ele>
        <time>2018-11-18T15:07:40Z</time>
      </trkpt>
      <trkpt lat="44.76745" lon="5.43304">
        <ele>867.25</ele>
        <time>2018-11-18T15:07:54Z</time>
      </trkpt>
      <trkpt lat="44.7674" lon="5.43286">
        <ele>864.36</ele>
        <time>2018-11-18T15:08:06Z</time>
      </trkpt>
      <trkpt lat="44.76738" lon="5.43275">
        <ele>862.44</ele>
        <time>2018-11-18T15:08:13Z</time>
      </trkpt>
      <trkpt lat="44.7673" lon="5.43255">
        <ele>858.59</ele>
        <time>2018-11-18T15:08:29Z</time>
      </trkpt>
      <trkpt lat="44.76728" lon="5.43237">
        <ele>855.71</ele>
        <time>2018-11-18T15:08:42Z</time>
      </trkpt>
      <trkpt lat="44.76732" lon="5.43223">
        <ele>852.83</ele>
        <time>2018-11-18T15:08:54Z</time>
      </trkpt>
      <trkpt lat="44.76729" lon="5.4321">
        <ele>850.9</ele>
        <time>2018-11-18T15:09:04Z</time>
      </trkpt>
      <trkpt lat="44.76731" lon="5.43185">
        <ele>847.54</ele>
        <time>2018-11-18T15:09:20Z</time>
      </trkpt>
      <trkpt lat="44.76732" lon="5.43183">
        <ele>847.54</ele>
        <time>2018-11-18T15:09:22Z</time>
      </trkpt>
      <trkpt lat="44.76732" lon="5.43168">
        <ele>846.58</ele>
        <time>2018-11-18T15:09:30Z</time>
      </trkpt>
      <trkpt lat="44.76739" lon="5.43155">
        <ele>844.18</ele>
        <time>2018-11-18T15:09:41Z</time>
      </trkpt>
      <trkpt lat="44.76743" lon="5.43163">
        <ele>842.25</ele>
        <time>2018-11-18T15:09:53Z</time>
      </trkpt>
      <trkpt lat="44.76744" lon="5.4318">
        <ele>840.33</ele>
        <time>2018-11-18T15:10:07Z</time>
      </trkpt>
      <trkpt lat="44.76745" lon="5.43181">
        <ele>839.85</ele>
        <time>2018-11-18T15:10:08Z</time>
      </trkpt>
      <trkpt lat="44.76747" lon="5.43183">
        <ele>838.41</ele>
        <time>2018-11-18T15:10:12Z</time>
      </trkpt>
      <trkpt lat="44.76756" lon="5.43176">
        <ele>836</ele>
        <time>2018-11-18T15:10:22Z</time>
      </trkpt>
      <trkpt lat="44.76756" lon="5.43174">
        <ele>835.52</ele>
        <time>2018-11-18T15:10:23Z</time>
      </trkpt>
      <trkpt lat="44.76759" lon="5.43159">
        <ele>832.64</ele>
        <time>2018-11-18T15:10:35Z</time>
      </trkpt>
      <trkpt lat="44.7676" lon="5.43144">
        <ele>829.76</ele>
        <time>2018-11-18T15:10:47Z</time>
      </trkpt>
      <trkpt lat="44.76761" lon="5.43137">
        <ele>828.31</ele>
        <time>2018-11-18T15:10:50Z</time>
      </trkpt>
      <trkpt lat="44.76759" lon="5.43119">
        <ele>825.43</ele>
        <time>2018-11-18T15:11:04Z</time>
      </trkpt>
      <trkpt lat="44.76758" lon="5.43103">
        <ele>823.03</ele>
        <time>2018-11-18T15:11:20Z</time>
      </trkpt>
      <trkpt lat="44.76759" lon="5.431">
        <ele>820.62</ele>
        <time>2018-11-18T15:11:32Z</time>
      </trkpt>
      <trkpt lat="44.7676" lon="5.43091">
        <ele>817.74</ele>
        <time>2018-11-18T15:11:43Z</time>
      </trkpt>
      <trkpt lat="44.7676" lon="5.43088">
        <ele>817.26</ele>
        <time>2018-11-18T15:11:45Z</time>
      </trkpt>
      <trkpt lat="44.76759" lon="5.43079">
        <ele>813.89</ele>
        <time>2018-11-18T15:11:55Z</time>
      </trkpt>
      <trkpt lat="44.76761" lon="5.43073">
        <ele>811.49</ele>
        <time>2018-11-18T15:12:06Z</time>
      </trkpt>
      <trkpt lat="44.76761" lon="5.43063">
        <ele>808.61</ele>
        <time>2018-11-18T15:12:14Z</time>
      </trkpt>
      <trkpt lat="44.76762" lon="5.43061">
        <ele>808.13</ele>
        <time>2018-11-18T15:12:15Z</time>
      </trkpt>
      <trkpt lat="44.76763" lon="5.43049">
        <ele>804.76</ele>
        <time>2018-11-18T15:12:26Z</time>
      </trkpt>
      <trkpt lat="44.76767" lon="5.43043">
        <ele>801.4</ele>
        <time>2018-11-18T15:12:36Z</time>
      </trkpt>
      <trkpt lat="44.76767" lon="5.4304">
        <ele>800.44</ele>
        <time>2018-11-18T15:12:38Z</time>
      </trkpt>
      <trkpt lat="44.7677" lon="5.43025">
        <ele>798.03</ele>
        <time>2018-11-18T15:12:52Z</time>
      </trkpt>
      <trkpt lat="44.76773" lon="5.42999">
        <ele>794.67</ele>
        <time>2018-11-18T15:13:06Z</time>
      </trkpt>
      <trkpt lat="44.7677" lon="5.42979">
        <ele>793.22</ele>
        <time>2018-11-18T15:13:17Z</time>
      </trkpt>
      <trkpt lat="44.76762" lon="5.42986">
        <ele>790.34</ele>
        <time>2018-11-18T15:13:32Z</time>
      </trkpt>
      <trkpt lat="44.7675" lon="5.42981">
        <ele>786.98</ele>
        <time>2018-11-18T15:13:46Z</time>
      </trkpt>
      <trkpt lat="44.76746" lon="5.42973">
        <ele>783.61</ele>
        <time>2018-11-18T15:13:56Z</time>
      </trkpt>
      <trkpt lat="44.76746" lon="5.4296">
        <ele>780.25</ele>
        <time>2018-11-18T15:14:06Z</time>
      </trkpt>
      <trkpt lat="44.76745" lon="5.42956">
        <ele>779.77</ele>
        <time>2018-11-18T15:14:08Z</time>
      </trkpt>
      <trkpt lat="44.7674" lon="5.42941">
        <ele>777.36</ele>
        <time>2018-11-18T15:14:17Z</time>
      </trkpt>
      <trkpt lat="44.76739" lon="5.42936">
        <ele>776.88</ele>
        <time>2018-11-18T15:14:20Z</time>
      </trkpt>
      <trkpt lat="44.7674" lon="5.42909">
        <ele>773.52</ele>
        <time>2018-11-18T15:14:34Z</time>
      </trkpt>
      <trkpt lat="44.76741" lon="5.42886">
        <ele>771.11</ele>
        <time>2018-11-18T15:14:49Z</time>
      </trkpt>
      <trkpt lat="44.76742" lon="5.42876">
        <ele>768.71</ele>
        <time>2018-11-18T15:14:58Z</time>
      </trkpt>
      <trkpt lat="44.76742" lon="5.42872">
        <ele>767.75</ele>
        <time>2018-11-18T15:15:01Z</time>
      </trkpt>
      <trkpt lat="44.7674" lon="5.42854">
        <ele>765.35</ele>
        <time>2018-11-18T15:15:14Z</time>
      </trkpt>
      <trkpt lat="44.76741" lon="5.42847">
        <ele>763.9</ele>
        <time>2018-11-18T15:15:19Z</time>
      </trkpt>
      <trkpt lat="44.76747" lon="5.42829">
        <ele>761.02</ele>
        <time>2018-11-18T15:15:31Z</time>
      </trkpt>
      <trkpt lat="44.76755" lon="5.4281">
        <ele>758.14</ele>
        <time>2018-11-18T15:15:46Z</time>
      </trkpt>
      <trkpt lat="44.76762" lon="5.42798">
        <ele>755.25</ele>
        <time>2018-11-18T15:15:58Z</time>
      </trkpt>
      <trkpt lat="44.76764" lon="5.42781">
        <ele>751.89</ele>
        <time>2018-11-18T15:16:12Z</time>
      </trkpt>
      <trkpt lat="44.7677" lon="5.42776">
        <ele>750.93</ele>
        <time>2018-11-18T15:16:19Z</time>
      </trkpt>
      <trkpt lat="44.7678" lon="5.42771">
        <ele>748.04</ele>
        <time>2018-11-18T15:16:33Z</time>
      </trkpt>
      <trkpt lat="44.76789" lon="5.42769">
        <ele>745.16</ele>
        <time>2018-11-18T15:16:47Z</time>
      </trkpt>
      <trkpt lat="44.76802" lon="5.42764">
        <ele>742.28</ele>
        <time>2018-11-18T15:17:00Z</time>
      </trkpt>
      <trkpt lat="44.76815" lon="5.42761">
        <ele>739.39</ele>
        <time>2018-11-18T15:17:15Z</time>
      </trkpt>
      <trkpt lat="44.76826" lon="5.42755">
        <ele>736.51</ele>
        <time>2018-11-18T15:17:28Z</time>
      </trkpt>
      <trkpt lat="44.76837" lon="5.42752">
        <ele>733.14</ele>
        <time>2018-11-18T15:17:38Z</time>
      </trkpt>
      <trkpt lat="44.76848" lon="5.42747">
        <ele>730.74</ele>
        <time>2018-11-18T15:17:52Z</time>
      </trkpt>
      <trkpt lat="44.76854" lon="5.42743">
        <ele>727.37</ele>
        <time>2018-11-18T15:18:02Z</time>
      </trkpt>
      <trkpt lat="44.76856" lon="5.42743">
        <ele>726.41</ele>
        <time>2018-11-18T15:18:04Z</time>
      </trkpt>
      <trkpt lat="44.76869" lon="5.42732">
        <ele>723.05</ele>
        <time>2018-11-18T15:18:18Z</time>
      </trkpt>
      <trkpt lat="44.76878" lon="5.42726">
        <ele>720.65</ele>
        <time>2018-11-18T15:18:30Z</time>
      </trkpt>
      <trkpt lat="44.76888" lon="5.42722">
        <ele>718.24</ele>
        <time>2018-11-18T15:18:43Z</time>
      </trkpt>
      <trkpt lat="44.76898" lon="5.4272">
        <ele>714.88</ele>
        <time>2018-11-18T15:18:54Z</time>
      </trkpt>
      <trkpt lat="44.76904" lon="5.42721">
        <ele>711.99</ele>
        <time>2018-11-18T15:19:05Z</time>
      </trkpt>
      <trkpt lat="44.76912" lon="5.42724">
        <ele>710.55</ele>
        <time>2018-11-18T15:19:12Z</time>
      </trkpt>
      <trkpt lat="44.7692" lon="5.4272">
        <ele>707.67</ele>
        <time>2018-11-18T15:19:24Z</time>
      </trkpt>
      <trkpt lat="44.76927" lon="5.42709">
        <ele>705.26</ele>
        <time>2018-11-18T15:19:37Z</time>
      </trkpt>
      <trkpt lat="44.76929" lon="5.42707">
        <ele>704.3</ele>
        <time>2018-11-18T15:19:40Z</time>
      </trkpt>
      <trkpt lat="44.76936" lon="5.42702">
        <ele>702.38</ele>
        <time>2018-11-18T15:19:50Z</time>
      </trkpt>
      <trkpt lat="44.76935" lon="5.42702">
        <ele>702.38</ele>
        <time>2018-11-18T15:19:51Z</time>
      </trkpt>
      <trkpt lat="44.76942" lon="5.42707">
        <ele>699.02</ele>
        <time>2018-11-18T15:20:02Z</time>
      </trkpt>
      <trkpt lat="44.76944" lon="5.4271">
        <ele>698.05</ele>
        <time>2018-11-18T15:20:05Z</time>
      </trkpt>
      <trkpt lat="44.7695" lon="5.42704">
        <ele>696.13</ele>
        <time>2018-11-18T15:20:18Z</time>
      </trkpt>
      <trkpt lat="44.76953" lon="5.42699">
        <ele>693.25</ele>
        <time>2018-11-18T15:20:31Z</time>
      </trkpt>
      <trkpt lat="44.76965" lon="5.42685">
        <ele>691.33</ele>
        <time>2018-11-18T15:20:41Z</time>
      </trkpt>
      <trkpt lat="44.76981" lon="5.42677">
        <ele>688.44</ele>
        <time>2018-11-18T15:20:55Z</time>
      </trkpt>
      <trkpt lat="44.7699" lon="5.4267">
        <ele>686.04</ele>
        <time>2018-11-18T15:21:07Z</time>
      </trkpt>
      <trkpt lat="44.76993" lon="5.42669">
        <ele>685.08</ele>
        <time>2018-11-18T15:21:11Z</time>
      </trkpt>
      <trkpt lat="44.77002" lon="5.42671">
        <ele>683.15</ele>
        <time>2018-11-18T15:21:24Z</time>
      </trkpt>
      <trkpt lat="44.77005" lon="5.42672">
        <ele>680.27</ele>
        <time>2018-11-18T15:21:36Z</time>
      </trkpt>
      <trkpt lat="44.77012" lon="5.42669">
        <ele>677.39</ele>
        <time>2018-11-18T15:21:46Z</time>
      </trkpt>
      <trkpt lat="44.77023" lon="5.42661">
        <ele>674.5</ele>
        <time>2018-11-18T15:22:00Z</time>
      </trkpt>
      <trkpt lat="44.7703" lon="5.42658">
        <ele>671.62</ele>
        <time>2018-11-18T15:22:11Z</time>
      </trkpt>
      <trkpt lat="44.77038" lon="5.42651">
        <ele>668.73</ele>
        <time>2018-11-18T15:22:23Z</time>
      </trkpt>
      <trkpt lat="44.77047" lon="5.42643">
        <ele>665.85</ele>
        <time>2018-11-18T15:22:35Z</time>
      </trkpt>
      <trkpt lat="44.77055" lon="5.42631">
        <ele>662.49</ele>
        <time>2018-11-18T15:22:48Z</time>
      </trkpt>
      <trkpt lat="44.77061" lon="5.42619">
        <ele>659.12</ele>
        <time>2018-11-18T15:23:02Z</time>
      </trkpt>
      <trkpt lat="44.77072" lon="5.42619">
        <ele>657.2</ele>
        <time>2018-11-18T15:23:17Z</time>
      </trkpt>
      <trkpt lat="44.77075" lon="5.42621">
        <ele>657.2</ele>
        <time>2018-11-18T15:23:20Z</time>
      </trkpt>
      <trkpt lat="44.77078" lon="5.42622">
        <ele>657.2</ele>
        <time>2018-11-18T15:23:22Z</time>
      </trkpt>
      <trkpt lat="44.77088" lon="5.42624">
        <ele>655.28</ele>
        <time>2018-11-18T15:23:37Z</time>
      </trkpt>
      <trkpt lat="44.77102" lon="5.42627">
        <ele>653.83</ele>
        <time>2018-11-18T15:23:48Z</time>
      </trkpt>
      <trkpt lat="44.77123" lon="5.42623">
        <ele>652.39</ele>
        <time>2018-11-18T15:24:07Z</time>
      </trkpt>
      <trkpt lat="44.77129" lon="5.42621">
        <ele>652.39</ele>
        <time>2018-11-18T15:24:13Z</time>
      </trkpt>
      <trkpt lat="44.77132" lon="5.42619">
        <ele>651.91</ele>
        <time>2018-11-18T15:24:16Z</time>
      </trkpt>
      <trkpt lat="44.77134" lon="5.42623">
        <ele>650.95</ele>
        <time>2018-11-18T15:24:20Z</time>
      </trkpt>
      <trkpt lat="44.77128" lon="5.42636">
        <ele>647.59</ele>
        <time>2018-11-18T15:24:32Z</time>
      </trkpt>
      <trkpt lat="44.77131" lon="5.42637">
        <ele>646.14</ele>
        <time>2018-11-18T15:24:37Z</time>
      </trkpt>
      <trkpt lat="44.77132" lon="5.42637">
        <ele>646.14</ele>
        <time>2018-11-18T15:24:38Z</time>
      </trkpt>
      <trkpt lat="44.77141" lon="5.42637">
        <ele>643.26</ele>
        <time>2018-11-18T15:24:48Z</time>
      </trkpt>
      <trkpt lat="44.7715" lon="5.42638">
        <ele>640.38</ele>
        <time>2018-11-18T15:24:58Z</time>
      </trkpt>
      <trkpt lat="44.77158" lon="5.42637">
        <ele>637.97</ele>
        <time>2018-11-18T15:25:07Z</time>
      </trkpt>
      <trkpt lat="44.77166" lon="5.42636">
        <ele>636.05</ele>
        <time>2018-11-18T15:25:14Z</time>
      </trkpt>
      <trkpt lat="44.77181" lon="5.42632">
        <ele>633.65</ele>
        <time>2018-11-18T15:25:27Z</time>
      </trkpt>
      <trkpt lat="44.77191" lon="5.42627">
        <ele>631.72</ele>
        <time>2018-11-18T15:25:45Z</time>
      </trkpt>
      <trkpt lat="44.77201" lon="5.42624">
        <ele>629.32</ele>
        <time>2018-11-18T15:25:58Z</time>
      </trkpt>
      <trkpt lat="44.77207" lon="5.42622">
        <ele>628.84</ele>
        <time>2018-11-18T15:26:03Z</time>
      </trkpt>
      <trkpt lat="44.77217" lon="5.42619">
        <ele>626.92</ele>
        <time>2018-11-18T15:26:20Z</time>
      </trkpt>
      <trkpt lat="44.77219" lon="5.42617">
        <ele>625.96</ele>
        <time>2018-11-18T15:26:25Z</time>
      </trkpt>
      <trkpt lat="44.77235" lon="5.42611">
        <ele>622.11</ele>
        <time>2018-11-18T15:26:41Z</time>
      </trkpt>
      <trkpt lat="44.77241" lon="5.42612">
        <ele>620.67</ele>
        <time>2018-11-18T15:26:45Z</time>
      </trkpt>
      <trkpt lat="44.77244" lon="5.42612">
        <ele>620.19</ele>
        <time>2018-11-18T15:26:47Z</time>
      </trkpt>
      <trkpt lat="44.7725" lon="5.4261">
        <ele>618.26</ele>
        <time>2018-11-18T15:26:58Z</time>
      </trkpt>
      <trkpt lat="44.77261" lon="5.42608">
        <ele>614.42</ele>
        <time>2018-11-18T15:27:11Z</time>
      </trkpt>
      <trkpt lat="44.77268" lon="5.42607">
        <ele>613.46</ele>
        <time>2018-11-18T15:27:16Z</time>
      </trkpt>
      <trkpt lat="44.77271" lon="5.42607">
        <ele>612.5</ele>
        <time>2018-11-18T15:27:18Z</time>
      </trkpt>
      <trkpt lat="44.77277" lon="5.42602">
        <ele>609.61</ele>
        <time>2018-11-18T15:27:31Z</time>
      </trkpt>
      <trkpt lat="44.77283" lon="5.426">
        <ele>608.17</ele>
        <time>2018-11-18T15:27:35Z</time>
      </trkpt>
      <trkpt lat="44.77296" lon="5.42596">
        <ele>605.77</ele>
        <time>2018-11-18T15:27:46Z</time>
      </trkpt>
      <trkpt lat="44.77308" lon="5.42591">
        <ele>603.36</ele>
        <time>2018-11-18T15:27:59Z</time>
      </trkpt>
      <trkpt lat="44.77309" lon="5.4259">
        <ele>602.88</ele>
        <time>2018-11-18T15:28:01Z</time>
      </trkpt>
      <trkpt lat="44.77314" lon="5.42585">
        <ele>602.4</ele>
        <time>2018-11-18T15:28:05Z</time>
      </trkpt>
      <trkpt lat="44.7732" lon="5.42577">
        <ele>600.96</ele>
        <time>2018-11-18T15:28:13Z</time>
      </trkpt>
      <trkpt lat="44.77332" lon="5.42567">
        <ele>599.52</ele>
        <time>2018-11-18T15:28:24Z</time>
      </trkpt>
      <trkpt lat="44.77346" lon="5.42555">
        <ele>598.08</ele>
        <time>2018-11-18T15:28:36Z</time>
      </trkpt>
      <trkpt lat="44.77351" lon="5.42551">
        <ele>597.6</ele>
        <time>2018-11-18T15:28:39Z</time>
      </trkpt>
      <trkpt lat="44.7736" lon="5.4254">
        <ele>595.67</ele>
        <time>2018-11-18T15:28:48Z</time>
      </trkpt>
      <trkpt lat="44.77362" lon="5.42538">
        <ele>595.67</ele>
        <time>2018-11-18T15:28:50Z</time>
      </trkpt>
      <trkpt lat="44.7737" lon="5.4253">
        <ele>594.23</ele>
        <time>2018-11-18T15:28:56Z</time>
      </trkpt>
      <trkpt lat="44.77372" lon="5.42529">
        <ele>594.23</ele>
        <time>2018-11-18T15:28:57Z</time>
      </trkpt>
      <trkpt lat="44.7738" lon="5.42521">
        <ele>590.87</ele>
        <time>2018-11-18T15:29:07Z</time>
      </trkpt>
      <trkpt lat="44.7738" lon="5.42515">
        <ele>590.39</ele>
        <time>2018-11-18T15:29:12Z</time>
      </trkpt>
      <trkpt lat="44.77382" lon="5.42507">
        <ele>590.39</ele>
        <time>2018-11-18T15:29:18Z</time>
      </trkpt>
      <trkpt lat="44.77385" lon="5.42499">
        <ele>589.91</ele>
        <time>2018-11-18T15:29:23Z</time>
      </trkpt>
      <trkpt lat="44.7739" lon="5.42495">
        <ele>588.46</ele>
        <time>2018-11-18T15:29:27Z</time>
      </trkpt>
      <trkpt lat="44.77402" lon="5.42481">
        <ele>584.14</ele>
        <time>2018-11-18T15:29:40Z</time>
      </trkpt>
      <trkpt lat="44.77405" lon="5.42474">
        <ele>583.18</ele>
        <time>2018-11-18T15:29:46Z</time>
      </trkpt>
      <trkpt lat="44.77407" lon="5.42471">
        <ele>582.22</ele>
        <time>2018-11-18T15:29:49Z</time>
      </trkpt>
      <trkpt lat="44.77408" lon="5.42462">
        <ele>581.25</ele>
        <time>2018-11-18T15:29:53Z</time>
      </trkpt>
      <trkpt lat="44.7741" lon="5.42455">
        <ele>579.81</ele>
        <time>2018-11-18T15:29:58Z</time>
      </trkpt>
      <trkpt lat="44.7741" lon="5.42449">
        <ele>578.37</ele>
        <time>2018-11-18T15:30:03Z</time>
      </trkpt>
      <trkpt lat="44.77413" lon="5.42436">
        <ele>575.01</ele>
        <time>2018-11-18T15:30:15Z</time>
      </trkpt>
      <trkpt lat="44.77413" lon="5.42432">
        <ele>574.04</ele>
        <time>2018-11-18T15:30:18Z</time>
      </trkpt>
      <trkpt lat="44.77411" lon="5.42415">
        <ele>570.2</ele>
        <time>2018-11-18T15:30:29Z</time>
      </trkpt>
      <trkpt lat="44.77413" lon="5.42407">
        <ele>568.28</ele>
        <time>2018-11-18T15:30:35Z</time>
      </trkpt>
      <trkpt lat="44.77415" lon="5.424">
        <ele>566.83</ele>
        <time>2018-11-18T15:30:39Z</time>
      </trkpt>
      <trkpt lat="44.77416" lon="5.42391">
        <ele>566.35</ele>
        <time>2018-11-18T15:30:44Z</time>
      </trkpt>
      <trkpt lat="44.77418" lon="5.42376">
        <ele>565.87</ele>
        <time>2018-11-18T15:30:53Z</time>
      </trkpt>
      <trkpt lat="44.77417" lon="5.42369">
        <ele>565.39</ele>
        <time>2018-11-18T15:30:56Z</time>
      </trkpt>
      <trkpt lat="44.77416" lon="5.42368">
        <ele>565.39</ele>
        <time>2018-11-18T15:30:57Z</time>
      </trkpt>
      <trkpt lat="44.77416" lon="5.42366">
        <ele>565.39</ele>
        <time>2018-11-18T15:30:58Z</time>
      </trkpt>
      <trkpt lat="44.77417" lon="5.42364">
        <ele>565.39</ele>
        <time>2018-11-18T15:30:59Z</time>
      </trkpt>
      <trkpt lat="44.77418" lon="5.42361">
        <ele>565.39</ele>
        <time>2018-11-18T15:31:01Z</time>
      </trkpt>
      <trkpt lat="44.77419" lon="5.4236">
        <ele>565.39</ele>
        <time>2018-11-18T15:31:02Z</time>
      </trkpt>
      <trkpt lat="44.77419" lon="5.42357">
        <ele>565.39</ele>
        <time>2018-11-18T15:31:04Z</time>
      </trkpt>
      <trkpt lat="44.77422" lon="5.4235">
        <ele>565.39</ele>
        <time>2018-11-18T15:31:08Z</time>
      </trkpt>
      <trkpt lat="44.77422" lon="5.42348">
        <ele>564.91</ele>
        <time>2018-11-18T15:31:09Z</time>
      </trkpt>
      <trkpt lat="44.77424" lon="5.42336">
        <ele>564.91</ele>
        <time>2018-11-18T15:31:17Z</time>
      </trkpt>
      <trkpt lat="44.77425" lon="5.42335">
        <ele>564.91</ele>
        <time>2018-11-18T15:31:18Z</time>
      </trkpt>
      <trkpt lat="44.77425" lon="5.42333">
        <ele>564.91</ele>
        <time>2018-11-18T15:31:19Z</time>
      </trkpt>
      <trkpt lat="44.77426" lon="5.42326">
        <ele>563.95</ele>
        <time>2018-11-18T15:31:24Z</time>
      </trkpt>
      <trkpt lat="44.77426" lon="5.42321">
        <ele>563.47</ele>
        <time>2018-11-18T15:31:28Z</time>
      </trkpt>
      <trkpt lat="44.77427" lon="5.42307">
        <ele>560.59</ele>
        <time>2018-11-18T15:31:38Z</time>
      </trkpt>
      <trkpt lat="44.77427" lon="5.42304">
        <ele>560.59</ele>
        <time>2018-11-18T15:31:39Z</time>
      </trkpt>
      <trkpt lat="44.77427" lon="5.42302">
        <ele>560.11</ele>
        <time>2018-11-18T15:31:40Z</time>
      </trkpt>
      <trkpt lat="44.77425" lon="5.42283">
        <ele>556.26</ele>
        <time>2018-11-18T15:31:53Z</time>
      </trkpt>
      <trkpt lat="44.77424" lon="5.42276">
        <ele>555.3</ele>
        <time>2018-11-18T15:31:57Z</time>
      </trkpt>
      <trkpt lat="44.77423" lon="5.42274">
        <ele>555.3</ele>
        <time>2018-11-18T15:31:58Z</time>
      </trkpt>
      <trkpt lat="44.7742" lon="5.42264">
        <ele>552.9</ele>
        <time>2018-11-18T15:32:05Z</time>
      </trkpt>
      <trkpt lat="44.77417" lon="5.42258">
        <ele>551.45</ele>
        <time>2018-11-18T15:32:09Z</time>
      </trkpt>
      <trkpt lat="44.77416" lon="5.42256">
        <ele>551.45</ele>
        <time>2018-11-18T15:32:10Z</time>
      </trkpt>
      <trkpt lat="44.77414" lon="5.42242">
        <ele>548.09</ele>
        <time>2018-11-18T15:32:22Z</time>
      </trkpt>
      <trkpt lat="44.77413" lon="5.42228">
        <ele>544.72</ele>
        <time>2018-11-18T15:32:32Z</time>
      </trkpt>
      <trkpt lat="44.77413" lon="5.42209">
        <ele>541.36</ele>
        <time>2018-11-18T15:32:44Z</time>
      </trkpt>
      <trkpt lat="44.77412" lon="5.422">
        <ele>539.92</ele>
        <time>2018-11-18T15:32:50Z</time>
      </trkpt>
      <trkpt lat="44.77417" lon="5.42192">
        <ele>537.03</ele>
        <time>2018-11-18T15:32:58Z</time>
      </trkpt>
      <trkpt lat="44.77419" lon="5.42191">
        <ele>536.55</ele>
        <time>2018-11-18T15:32:59Z</time>
      </trkpt>
      <trkpt lat="44.7742" lon="5.42187">
        <ele>536.07</ele>
        <time>2018-11-18T15:33:02Z</time>
      </trkpt>
      <trkpt lat="44.77425" lon="5.42156">
        <ele>533.67</ele>
        <time>2018-11-18T15:33:20Z</time>
      </trkpt>
      <trkpt lat="44.77428" lon="5.42116">
        <ele>530.79</ele>
        <time>2018-11-18T15:33:42Z</time>
      </trkpt>
      <trkpt lat="44.77432" lon="5.4209">
        <ele>529.34</ele>
        <time>2018-11-18T15:34:00Z</time>
      </trkpt>
      <trkpt lat="44.77431" lon="5.42091">
        <ele>528.86</ele>
        <time>2018-11-18T15:34:20Z</time>
      </trkpt>
      <trkpt lat="44.77431" lon="5.42089">
        <ele>528.86</ele>
        <time>2018-11-18T15:34:38Z</time>
      </trkpt>
      <trkpt lat="44.7743" lon="5.42089">
        <ele>529.34</ele>
        <time>2018-11-18T15:35:03Z</time>
      </trkpt>
      <trkpt lat="44.77431" lon="5.42086">
        <ele>529.34</ele>
        <time>2018-11-18T15:35:24Z</time>
      </trkpt>
      <trkpt lat="44.77432" lon="5.42087">
        <ele>528.38</ele>
        <time>2018-11-18T15:35:44Z</time>
      </trkpt>
      <trkpt lat="44.77432" lon="5.4209">
        <ele>528.86</ele>
        <time>2018-11-18T15:36:31Z</time>
      </trkpt>
      <trkpt lat="44.77429" lon="5.42086">
        <ele>529.34</ele>
        <time>2018-11-18T15:37:10Z</time>
      </trkpt>
      <trkpt lat="44.77429" lon="5.42086">
        <ele>529.82</ele>
        <time>2018-11-18T15:37:37Z</time>
      </trkpt>
      <trkpt lat="44.7743" lon="5.42084">
        <ele>530.3</ele>
        <time>2018-11-18T15:37:55Z</time>
      </trkpt>
    </trkseg>
  </trk>
</gpx>